MPMG - Transparência

Contra-cheque - Remuneração de todos os servidores ativos - Pré Resolução CNMP 200/2019

Período: 2014 - Fevereiro

Ordem Matrícula Nome Cargo Efetivo Situação Unidade Administrativa Rendimentos Descontos Rendimento Líquido Total Indenizações Outras Remunerações Retroativas/Temporárias Data de Referência
Remuneração Básica Remuneração Eventual ou Temporária Total de Rendimentos Brutos Obrigatórios/Legais Total de Descontos
Remuneração do Cargo Efetivo Outras Verbas Remuneratórias Função de Confiança ou Cargo em Comissão Gratificação Natalina Férias Abono de Permanência Contribuição Previdenciária Imposto de Renda Retenção por Teto Constitucional
1 498900 ABDON MARCIO BARBOSA DA SILVA OFICIAL DO MP ATIVO ABRE CAMPO - COMARCA; ABRE CAMPO-PJ-02PJ 3.250,03 0,00 0,00 0,00 0,00 0,00 3.250,03 357,50 42,43 0,00 399,93 2.850,10 692,00 0,00 28/02/2014
2 177800 ADALBERTO MENEZES FARIA SAMORA COORDENADOR/OFICIAL ATIVO BELO HORIZONTE - COMARCA; DIRET DE PLANOS PROJETOS E PROGRAMAS INST 0,00 2.060,57 10.302,83 0,00 0,00 0,00 12.363,40 1.122,13 2.166,36 0,00 3.288,49 9.074,91 4.237,29 324,98 28/02/2014
3 306400 ADALBERTO MOREIRA GONCALVES ANALISTA DO MP ATIVO CONTAGEM - COMARCA; CONTAGEM-PJ-01PJ 9.358,72 935,87 0,00 0,00 0,00 0,00 10.294,59 1.132,40 1.693,45 0,00 2.825,85 7.468,74 457,00 0,00 28/02/2014
4 179300 ADENISE AUXILIADORA SOUZA SAD OFICIAL DO MP ATIVO BARBACENA - COMARCA; EXTINTA-BARBACENA - 06ª PJ EXECUÇÃO PENAL 8.233,02 1.646,60 0,00 0,00 0,00 0,00 9.879,62 1.086,76 1.493,05 0,00 2.579,81 7.299,81 457,00 0,00 28/02/2014
5 77700 ADIL EXPEDITO DE OLIVEIRA JUNIOR ASSESSOR ATIVO BELO HORIZONTE - COMARCA; CAO-CRIANCAS E ADOLESCENTES-SECRETARIA 0,00 6.378,72 7.973,40 0,00 0,00 0,00 14.352,12 1.578,73 2.587,69 0,00 4.166,42 10.185,70 457,00 0,00 28/02/2014
6 272200 ADILSON BATISTA ORNELAS OFICIAL DO MP ATIVO LAVRAS - COMARCA; LAVRAS-PJ-02PJ 3.938,84 787,77 0,00 0,00 0,00 0,00 4.726,61 519,93 222,24 0,00 742,17 3.984,44 4.002,29 265,90 28/02/2014
7 380100 ADILSON GONCALVES DE MELO JUNIOR ANALISTA DO MP ATIVO ARAXÁ - COMARCA; ARAXA-PJ-05PJ 6.469,61 646,96 0,00 0,00 0,00 0,00 7.116,57 782,82 816,79 0,00 1.599,61 5.516,96 4.237,29 324,98 28/02/2014
8 148800 ADILSON JANUARIO OFICIAL DO MP ATIVO BELO HORIZONTE - COMARCA; BH-22PJ PES COM DEF E IDOSOS-SECRETARIA 10.302,83 5.151,42 0,00 0,00 0,00 0,00 15.454,25 1.699,97 2.808,02 0,00 4.507,99 10.946,26 4.002,29 324,98 28/02/2014
9 322600 ADMILSON SILVEIRA OFICIAL DO MP ATIVO BOCAIÚVA - COMARCA; BOCAIUVA-PJ-01PJ 4.696,06 469,61 0,00 0,00 0,00 0,00 5.165,67 568,22 438,15 0,00 1.006,37 4.159,30 457,00 0,00 28/02/2014
10 333700 ADRIANA ABRITTA TEIXEIRA OFICIAL DO MP ATIVO BELO HORIZONTE - COMARCA; DIRET DE PESSOAL DO MINISTERIO PUBLICO - DPMP 5.876,69 587,67 0,00 0,00 0,00 0,00 6.464,36 772,03 891,62 0,00 1.663,65 4.800,71 3.376,07 821,68 28/02/2014
11 468500 ADRIANA APARECIDA FIRMINO ANALISTA DO MP ATIVO CARATINGA - COMARCA; CARATINGA-PJ-04PJ 6.265,58 375,93 0,00 0,00 0,00 0,00 6.641,51 730,57 700,52 0,00 1.431,09 5.210,42 692,00 0,00 28/02/2014
12 326100 ADRIANA AUGUSTA AMARAL BELO OFICIAL DO MP ATIVO BARBACENA - COMARCA; BARBACENA-PJ-08PJ 5.876,69 587,67 0,00 0,00 0,00 0,00 6.464,36 711,08 657,16 0,00 1.368,24 5.096,12 927,00 0,00 28/02/2014
13 605700 ADRIANA COSTA LIRA OFICIAL DO MP ATIVO BELO HORIZONTE - COMARCA; DIRET DE FORMACAO, APERFEIC. E POS-GRADUACAO 2.859,08 0,00 0,00 0,00 0,00 0,00 2.859,08 314,50 56,76 0,00 371,26 2.487,82 457,00 0,00 28/02/2014
14 541100 ADRIANA CRISTINA DE OLIVEIRA OFICIAL DO MP ATIVO GUAPÉ - COMARCA; GUAPE-PJ-UNPJ 2.859,08 0,00 0,00 0,00 953,03 0,00 3.812,11 314,50 162,66 0,00 477,16 3.334,95 692,00 0,00 28/02/2014
15 254800 ADRIANA DAS GRACAS FERNANDES ANALISTA DO MP ATIVO UBERABA - COMARCA; UBERABA-PJ-07PJ 9.977,95 4.988,98 0,00 0,00 0,00 0,00 14.966,93 1.646,36 2.787,59 0,00 4.433,95 10.532,98 457,00 0,00 28/02/2014
16 246900 ADRIANA DE ALMEIDA ANTONINI ASSESSOR ATIVO BELO HORIZONTE - COMARCA; PROCON-MG-SECRETARIA DE FISCALIZACOES 0,00 471,82 2.359,08 0,00 0,00 0,00 2.830,90 361,67 103,90 0,00 465,57 2.365,33 457,00 0,00 28/02/2014
17 217400 ADRIANA DE CARVALHO CATAO BRAGA ASSESSOR ATIVO BELO HORIZONTE - COMARCA; EXTINTA - DIRETORIA DE CONTRATOS E CONVÊNIOS 0,00 1.253,12 6.265,58 0,00 0,00 0,00 7.518,70 482,93 1.234,36 0,00 1.717,29 5.801,41 457,00 0,00 28/02/2014
18 434600 ADRIANA FERREIRA DA SILVA ANALISTA DO MP ATIVO BELO HORIZONTE - COMARCA; BH-19PJ SAUDE-SECRETARIA 129PJ 6.265,58 375,93 0,00 0,00 0,00 0,00 6.641,51 730,57 799,36 0,00 1.529,93 5.111,58 457,00 0,00 28/02/2014
19 499800 ADRIANA FERREIRA TIAGO OFICIAL DO MP ATIVO SALINAS - COMARCA; SALINAS-PJ-02PJ 3.577,90 0,00 0,00 0,00 0,00 0,00 3.577,90 393,57 142,62 0,00 536,19 3.041,71 457,00 0,00 28/02/2014
20 543400 ADRIANA GUIMARAES NUNES DE PAULA ANALISTA DO MP ATIVO PATROCÍNIO - COMARCA; PATROCINIO-PJ-01PJ 4.848,98 0,00 0,00 0,00 0,00 0,00 4.848,98 533,39 368,05 0,00 901,44 3.947,54 457,00 0,00 28/02/2014
21 471500 ADRIANA HORTA DE CARVALHO RODRIGUES DE SOUSA ANALISTA DO MP ATIVO NOVA LIMA - COMARCA; NOVA LIMA-PJ-03PJ 6.265,58 375,93 0,00 0,00 0,00 0,00 6.641,51 730,57 749,94 0,00 1.480,51 5.161,00 927,00 0,00 28/02/2014
22 86400 ADRIANA MOREIRA CALDEIRA BRANT OFICIAL DO MP ATIVO BELO HORIZONTE - COMARCA; EXTINTA-TUTELA DAS FUNDACOES-21 PJ- GABINETE 8.501,02 4.250,51 0,00 0,00 0,00 0,00 12.751,53 1.402,67 2.245,37 0,00 3.648,04 9.103,49 4.002,29 324,98 28/02/2014
23 480700 ADRIANA MOREIRA DE AVELLAR CEZILIO OFICIAL DO MP ATIVO BELO HORIZONTE - COMARCA; EXTINTA - DIVISAO DE MATERIAL DE CONSUMO 3.355,81 201,35 0,00 0,00 0,00 0,00 3.557,16 417,60 115,00 0,00 532,60 3.024,56 927,00 276,59 28/02/2014
24 326000 ADRIANA PEREIRA CARNEIRO RESENDE OFICIAL DO MP ATIVO BELO HORIZONTE - COMARCA; PJDH-COMB A VIOLENCIA DOMESTICA-ATENDIMENTO 5.511,94 551,19 0,00 0,00 0,00 0,00 6.063,13 666,94 558,96 0,00 1.225,90 4.837,23 457,00 0,00 28/02/2014
25 502200 ADRIANA PETRUCCI DAVINA OFICIAL DO MP ATIVO PATROCÍNIO - COMARCA; PATROCINIO-PJ-03PJ 3.938,84 0,00 0,00 0,00 0,00 0,00 3.938,84 433,27 190,81 0,00 624,08 3.314,76 457,00 0,00 28/02/2014
26 201900 ADRIANA REIS PIMENTA OFICIAL DO MP ATIVO TEÓFILO OTONI - COMARCA; TEOFILO OTONI-PJ-03PJ 8.233,02 2.469,91 0,00 0,00 0,00 0,00 10.702,93 1.177,32 1.793,39 0,00 2.970,71 7.732,22 4.002,29 324,98 28/02/2014
27 278700 ADRIANA RODRIGUES PINTO COELHO AMARAL ANALISTA DO MP ATIVO BELO HORIZONTE - COMARCA; EXTINTA-MEIO AMB PATRIM HIST CULTURAL-15PJGAB 9.663,38 1.932,68 0,00 0,00 0,00 0,00 11.596,06 1.275,57 1.913,14 0,00 3.188,71 8.407,35 457,00 0,00 28/02/2014
28 468000 ADRIANA SANTOS DE SANTANA MOREIRA ANALISTA DO MP ATIVO ARAÇUAÍ - COMARCA; ARACUAI-PJ-01PJ 6.265,58 1.253,12 0,00 0,00 0,00 0,00 7.518,70 827,06 915,21 0,00 1.742,27 5.776,43 1.397,00 0,00 28/02/2014
29 194700 ADRIANA TSUKIDE OFICIAL DO MP ATIVO UBERABA - COMARCA; COORD REG BACIAS PARANAIBA BAIXO RIO GRANDE 8.233,02 1.646,60 0,00 0,00 0,00 0,00 9.879,62 1.086,76 1.542,47 0,00 2.629,23 7.250,39 457,00 0,00 28/02/2014
30 206400 ADRIANE MENDES DE SOUZA ANALISTA DO MP ATIVO BELO HORIZONTE - COMARCA; BH-23PJ CIVEL-FISC AC POL PUB II 11.885,64 5.942,82 0,00 0,00 0,00 0,00 17.828,46 1.961,13 3.487,95 0,00 5.449,08 12.379,38 457,00 0,00 28/02/2014
31 465500 ADRIANO CASSIANO MATOS ANALISTA DO MP ATIVO ARAXÁ - COMARCA; ARAXA-PJ-03PJ 5.169,86 310,19 0,00 0,00 0,00 0,00 5.480,05 602,81 515,09 0,00 1.117,90 4.362,15 457,00 0,00 28/02/2014
32 500500 ADRIANO DE ALMEIDA SILVA OFICIAL DO MP ATIVO UBERABA - COMARCA; UBERABA-PJ-12PJ 3.250,03 0,00 0,00 0,00 0,00 0,00 3.250,03 357,50 98,85 0,00 456,35 2.793,68 3.707,03 162,50 28/02/2014
33 187200 ADRIANO DE FREITAS MARON OFICIAL DO MP ATIVO PONTE NOVA - COMARCA; PONTE NOVA-PJ-03PJ 6.265,58 4.385,90 0,00 0,00 0,00 0,00 10.651,48 1.272,10 2.004,28 0,00 3.276,38 7.375,10 457,00 913,10 28/02/2014
34 477900 ADRIANO FERREIRA DE ALMEIDA OFICIAL DO MP ATIVO MONTES CLAROS - COMARCA; MONTES CLAROS-PJ-01PJ 3.355,81 201,35 0,00 0,00 0,00 0,00 3.557,16 458,39 167,37 0,00 625,76 2.931,40 468,87 610,59 28/02/2014
35 269101 ADRIANO PEREIRA SILVA ANALISTA DO MP ATIVO UBERABA - COMARCA; UBERABA-PJ-02PJ 6.265,58 375,93 0,00 0,00 0,00 0,00 6.641,51 730,57 700,52 0,00 1.431,09 5.210,42 3.788,22 283,82 28/02/2014
36 414200 ADRIANO RODRIGUES FERNANDES ANALISTA DO MP ATIVO CARANDAÍ - COMARCA; CARANDAI-PJ-UNPJ 5.876,69 587,67 0,00 0,00 0,00 0,00 6.464,36 772,03 743,36 0,00 1.515,39 4.948,97 3.611,07 821,68 28/02/2014
37 536700 ADRIELLE COSTA MARIA OFICIAL DO MP ATIVO SERRO - COMARCA; SERRO-PJ-SECRETARIA 2.859,08 0,00 0,00 0,00 0,00 0,00 2.859,08 314,50 56,76 0,00 371,26 2.487,82 457,00 0,00 28/02/2014
38 514300 ADRIENE DAMASCENO BRAGA ANALISTA DO MP ATIVO ALFENAS - COMARCA; ALFENAS-PJ-03PJ 6.068,01 0,00 0,00 0,00 0,00 0,00 6.068,01 707,53 748,10 0,00 1.455,63 4.612,38 457,00 364,07 28/02/2014
39 254600 ADRIENE DOMINGUES COSTA ANALISTA DO MP ATIVO BELO HORIZONTE - COMARCA; PROC. JUSTICA DIR. DIFUSOS E COLETIVOS-SEC 8.501,02 708,85 0,00 0,00 0,00 0,00 9.209,87 1.013,09 1.427,96 0,00 2.441,05 6.768,82 0,00 0,00 28/02/2014
40 252001 ADRIENE GOMES BARRETO ANALISTA DO MP ATIVO BELO HORIZONTE - COMARCA; BH-19PJ SAUDE-SECRETARIA 150PJ 7.973,40 2.392,02 0,00 0,00 0,00 0,00 10.365,42 1.140,20 1.710,79 0,00 2.850,99 7.514,43 457,00 0,00 28/02/2014
41 118100 AGENOR ALCIR RODRIGUES DA SILVA OFICIAL DO MP ATIVO SÃO JOÃO NEPOMUCENO - COMARCA; SAO JOAO NEPOMUCENO-PJ-01PJ 10.638,28 7.446,79 0,00 0,00 0,00 0,00 18.085,07 1.989,36 3.600,17 0,00 5.589,53 12.495,54 4.002,29 324,98 28/02/2014
42 302500 AGENOR JOSE DA SILVA JUNIOR ANALISTA DO MP ATIVO JUIZ DE FORA - COMARCA; JUIZ DE FORA-PJ-07PJ 9.358,72 935,87 0,00 0,00 0,00 0,00 10.294,59 1.132,40 1.594,61 0,00 2.727,01 7.567,58 457,00 0,00 28/02/2014
43 357500 AILSON WAGNER DE ALENCAR SILVA OFICIAL DO MP ATIVO BELO HORIZONTE - COMARCA; DIRETORIA DO COLEGIO E DA CAMARA DE PJ 5.691,44 1.707,43 0,00 0,00 0,00 0,00 7.398,87 813,88 885,88 0,00 1.699,76 5.699,11 4.237,29 324,98 28/02/2014
44 366400 AILTON ALEXSSANDRO ALVES OFICIAL DO MP ATIVO PARÁ DE MINAS - COMARCA; PARA DE MINAS-PJ-05PJ 4.848,98 969,80 0,00 0,00 0,00 0,00 5.818,78 640,07 598,00 0,00 1.238,07 4.580,71 457,00 0,00 28/02/2014
45 318900 AILTON DE CASTRO RIBEIRO JUNIOR OFICIAL DO MP ATIVO POUSO ALEGRE - COMARCA; POUSO ALEGRE-PJ-03PJ 4.848,98 1.593,22 0,00 0,00 0,00 0,00 6.442,20 586,73 635,84 0,00 1.222,57 5.219,63 4.002,29 324,98 28/02/2014
46 464400 ALAN MONTEIRO GASPAR ANALISTA DO MP ATIVO SETE LAGOAS - COMARCA; SETE LAGOAS-PJ-03PJ 6.265,58 375,93 0,00 0,00 0,00 0,00 6.641,51 730,57 799,36 0,00 1.529,93 5.111,58 457,00 0,00 28/02/2014
47 492000 ALANA DE CASTRO FREITAS OFICIAL DO MP ATIVO BOM SUCESSO - COMARCA; BOM SUCESSO-PJ-UNPJ 3.250,03 0,00 0,00 0,00 0,00 0,00 3.250,03 357,50 98,85 0,00 456,35 2.793,68 457,00 0,00 28/02/2014
48 306700 ALANA MARCIA DE OLIVEIRA OFICIAL DO MP ATIVO BELO HORIZONTE - COMARCA; DIRETORIA DE ADMINISTRACAO FINANCEIRA 5.511,94 551,19 0,00 0,00 0,00 0,00 6.063,13 666,94 657,80 0,00 1.324,74 4.738,39 457,00 0,00 28/02/2014
49 324500 ALANMAR COUTINHO COSTA OFICIAL DO MP ATIVO LEOPOLDINA - COMARCA; LEOPOLDINA-PJ-02PJ 4.696,06 469,61 0,00 0,00 0,00 0,00 5.165,67 568,22 193,53 0,00 761,75 4.403,92 4.237,29 177,26 28/02/2014
50 508200 ALBERTO DA SILVA VIEIRA ASSESSOR ATIVO BELO HORIZONTE - COMARCA; ASSESS ESPECIAL DO PGJ ATUACAO JUNTO A PGJAA 0,00 0,00 8.777,78 0,00 0,00 0,00 8.777,78 482,93 1.481,77 0,00 1.964,70 6.813,08 4.002,29 324,98 28/02/2014
51 407300 ALBERTO LUIZ SOARES DE OLIVEIRA ANALISTA DO MP ATIVO BELO HORIZONTE - COMARCA; SUPERINTENDÊNCIA DE ENGENHARIA E ARQUITETURA 6.469,61 646,96 0,00 0,00 0,00 0,00 7.116,57 782,82 915,63 0,00 1.698,45 5.418,12 1.181,65 66,43 28/02/2014
52 118200 ALBERTO PEREIRA DA COSTA OFICIAL DO MP ATIVO DORES DO INDAIÁ - COMARCA; DORES DO INDAIA-PJ-UNPJ 9.358,72 6.551,11 0,00 0,00 0,00 0,00 15.909,83 1.750,08 2.968,94 0,00 4.719,02 11.190,81 3.275,64 258,38 28/02/2014
53 282400 ALCILENE MARISE DE ARAUJO ANALISTA DO MP ATIVO BELO HORIZONTE - COMARCA; BH-23PJ INF-FISC MED SOC FEC 9.663,38 1.932,68 0,00 0,00 0,00 0,00 11.596,06 1.275,57 1.913,14 0,00 3.188,71 8.407,35 4.002,29 324,98 28/02/2014
54 112600 ALCIONE DA MOTA JARDIM OFICIAL DO MP ATIVO BELO HORIZONTE - COMARCA; CAO-CRIANCAS E ADOLESCENTES 7.721,95 3.088,79 0,00 0,00 0,00 0,00 10.810,74 1.189,18 1.770,36 0,00 2.959,54 7.851,20 692,00 0,00 28/02/2014
55 396400 ALCIONE DE FREITAS E SILVA ANALISTA DO MP ATIVO BELO HORIZONTE - COMARCA; DIRET DE PESSOAL DO MINISTERIO PUBLICO - DPMP 7.973,40 2.392,02 0,00 0,00 0,00 0,00 10.365,42 1.140,20 1.710,79 0,00 2.850,99 7.514,43 4.002,29 324,98 28/02/2014
56 161600 ALCIONE NERY SOUZA ASSESSOR ATIVO BELO HORIZONTE - COMARCA; BH-07PJ TRIBUNAL DO JURI 0,00 1.879,67 6.265,58 0,00 0,00 0,00 8.145,25 482,93 1.406,66 0,00 1.889,59 6.255,66 457,00 0,00 28/02/2014
57 376000 ALDA GOMES LANA OFICIAL DO MP ATIVO BELO HORIZONTE - COMARCA; BH-18PJ VIOLENCIA DOMESTICA-SECRETARIA 5.006,87 500,69 0,00 0,00 0,00 0,00 5.507,56 605,83 472,41 0,00 1.078,24 4.429,32 457,00 0,00 28/02/2014
58 148000 ALDA MARTINS SIMOES OFICIAL DO MP ATIVO BELO HORIZONTE - COMARCA; BH-23PJ CIVEL- FISC ENT AB POL 9.663,38 3.865,35 0,00 0,00 0,00 0,00 13.528,73 1.488,16 2.485,01 0,00 3.973,17 9.555,56 4.002,29 324,98 28/02/2014
59 318400 ALDO CREPALDI JUNIOR OFICIAL DO MP ATIVO BELO HORIZONTE - COMARCA; EXTINTA - DIVISAO DE MATERIAL DE CONSUMO 5.511,94 551,19 0,00 0,00 0,00 0,00 6.063,13 666,94 608,38 0,00 1.275,32 4.787,81 692,00 0,00 28/02/2014
60 118400 ALECIO JOSE GUIMARAES DE OLIVEIRA ANALISTA DO MP ATIVO BOM SUCESSO - COMARCA; BOM SUCESSO-PJ-UNPJ 14.432,31 11.545,84 0,00 0,00 0,00 0,00 25.978,15 2.966,43 5.864,85 0,00 8.831,28 17.146,87 457,00 1.319,19 28/02/2014
61 604500 ALENIZE APARECIDA RODRIGUES HENRIQUE OFICIAL DO MP ATIVO RIO NOVO - COMARCA; RIO NOVO-PJ-UNPJ 2.859,08 0,00 0,00 0,00 0,00 0,00 2.859,08 314,50 56,76 0,00 371,26 2.487,82 457,00 0,00 28/02/2014
62 197900 ALESSA DE SOUSA E SILVA OFICIAL DO MP ATIVO OLIVEIRA - COMARCA; OLIVEIRA-PJ-02PJ 8.501,02 1.700,20 0,00 0,00 0,00 0,00 10.201,22 1.122,13 1.571,76 0,00 2.693,89 7.507,33 571,00 0,00 28/02/2014
63 428500 ALESSANDRA ALVES DINIZ OFICIAL DO MP ATIVO BELO HORIZONTE - COMARCA; CENTRAL DE APOIO TECNICO-SECRETARIA 3.694,41 1.108,32 0,00 0,00 0,00 0,00 4.802,73 528,30 358,79 0,00 887,09 3.915,64 457,00 0,00 28/02/2014
64 286801 ALESSANDRA BOTELHO JUNQUEIRA DE MENEZES ANALISTA DO MP ATIVO PASSOS - COMARCA; PASSOS-PJ-05PJ 7.014,37 1.402,87 0,00 0,00 0,00 0,00 8.417,24 925,90 1.135,13 0,00 2.061,03 6.356,21 4.237,29 324,98 28/02/2014
65 307000 ALESSANDRA CRISTINA SANTOS MENDES ANALISTA DO MP ATIVO BELO HORIZONTE - COMARCA; BH-18PJ VIOLENCIA DOMESTICA 6.793,15 679,32 0,00 0,00 0,00 0,00 7.472,47 821,97 953,32 0,00 1.775,29 5.697,18 457,00 0,00 28/02/2014
66 264400 ALESSANDRA DE SOUZA SANTOS COORDENADOR/ANALISTA ATIVO BELO HORIZONTE - COMARCA; DIRETORIA DE PRODUCAO EDITORIAL 9.977,95 5.053,96 0,00 0,00 0,00 0,00 15.031,91 1.426,85 2.915,24 0,00 4.342,09 10.689,82 457,00 0,00 28/02/2014
67 441500 ALESSANDRA DRUMMOND DE FIGUEIREDO ROSSI ANALISTA DO MP ATIVO BELO HORIZONTE - COMARCA; DIRETORIA DE PROJETOS DE EDIFICACOES 6.265,58 375,93 0,00 0,00 2.213,84 0,00 8.855,35 730,57 1.408,16 0,00 2.138,73 6.716,62 457,00 0,00 28/02/2014
68 524000 ALESSANDRA LUCIOLI DE BARROS GUERRA ANALISTA DO MP ATIVO BELO HORIZONTE - COMARCA; BH-12PJ JUIZO CRIMINAL 4.548,03 0,00 0,00 0,00 0,00 0,00 4.548,03 500,28 191,26 0,00 691,54 3.856,49 457,00 0,00 28/02/2014
69 479900 ALESSANDRA MARA ANDRADE DE FARIA OFICIAL DO MP ATIVO UBERABA - COMARCA; UBERABA-PJ-05PJ 4.000,95 240,06 0,00 0,00 0,00 0,00 4.241,01 482,41 272,34 0,00 754,75 3.486,26 692,00 166,45 28/02/2014
70 226700 ALESSANDRA MARA VASCONCELOS REZENDE OFICIAL DO MP ATIVO CONSELHEIRO LAFAIETE - COMARCA; CONSELHEIRO LAFAIETE-PJ-07PJ 5.169,86 1.033,97 0,00 0,00 0,00 0,00 6.203,83 682,42 692,24 0,00 1.374,66 4.829,17 457,00 0,00 28/02/2014
71 112100 ALESSANDRA MARCIA FERREIRA OFICIAL DO MP ATIVO BELO HORIZONTE - COMARCA; BELO HORIZONTE- SECRETARIA DAS PROMOTORIAS 7.721,95 3.088,79 0,00 0,00 3.603,58 0,00 14.414,32 1.301,66 2.928,19 0,00 4.229,85 10.184,47 457,00 1.022,55 28/02/2014
72 196500 ALESSANDRA MARIA RIBEIRO LUCIANO OFICIAL DO MP ATIVO RIO PARANAÍBA - COMARCA; RIO PARANAIBA-PJ-UNPJ 8.501,02 2.550,31 0,00 0,00 0,00 0,00 11.051,33 1.215,65 1.829,24 0,00 3.044,89 8.006,44 1.162,00 0,00 28/02/2014
73 91400 ALESSANDRA MENDES VASCONCELOS DE SOUZA OFICIAL DO MP ATIVO BELO HORIZONTE - COMARCA; BH-23PJ INF-FISC MED SOC AB 11.885,64 5.942,82 0,00 0,00 0,00 0,00 17.828,46 1.961,13 3.537,37 0,00 5.498,50 12.329,96 457,00 0,00 28/02/2014
74 384900 ALESSANDRA RODRIGUES ANALISTA DO MP ATIVO VISCONDE DO RIO BRANCO - COMARCA; VISCONDE DO RIO BRANCO-PJ-03PJ 7.973,40 797,34 0,00 0,00 0,00 0,00 8.770,74 1.047,48 1.405,65 0,00 2.453,13 6.317,61 4.002,29 1.076,78 28/02/2014
75 390000 ALESSANDRA SPADANO MASSARA VASCONCELOS OFICIAL DO MP ATIVO BETIM - COMARCA; BETIM-PJ-10PJ 5.006,87 500,69 0,00 0,00 0,00 0,00 5.507,56 605,83 521,83 0,00 1.127,66 4.379,90 457,00 0,00 28/02/2014
76 426500 ALESSANDRO CAMPOS DE PAIVA COORDENADOR/ANALISTA ATIVO BELO HORIZONTE - COMARCA; DIRETORIA DE PUBLICIDADE INSTITUCIONAL 0,00 1.030,28 10.302,83 0,00 3.777,70 0,00 15.110,81 867,30 3.204,15 0,00 4.071,45 11.039,36 457,00 412,11 28/02/2014
77 420600 ALESSANDRO SILVA OFICIAL DO MP ATIVO VISCONDE DO RIO BRANCO - COMARCA; VISCONDE DO RIO BRANCO-PJ-02PJ 3.814,70 762,94 0,00 0,00 0,00 0,00 4.577,64 546,70 177,31 0,00 724,01 3.853,63 4.002,29 569,66 28/02/2014
78 375301 ALETHEIA PATRICIA ASSIS MORAIS MOREIRA ANALISTA DO MP ATIVO ITABIRA - COMARCA; ITABIRA-PJ-02PJ 5.338,12 0,00 0,00 0,00 0,00 0,00 5.338,12 587,19 480,36 0,00 1.067,55 4.270,57 457,00 0,00 28/02/2014
79 382300 ALEX CARVALHO LIMA ANALISTA DO MP ATIVO UBERLÂNDIA - COMARCA; UBERLANDIA-PJ-14PJ 7.973,40 797,34 0,00 0,00 0,00 0,00 8.770,74 964,78 1.201,03 0,00 2.165,81 6.604,93 457,00 0,00 28/02/2014
80 195201 ALEX DE CASTRO PEREIRA ANALISTA DO MP ATIVO UBERABA - COMARCA; UBERABA-PJ-09PJ 9.663,38 1.932,68 0,00 0,00 0,00 0,00 11.596,06 1.275,57 1.913,14 0,00 3.188,71 8.407,35 4.002,29 324,98 28/02/2014
81 358900 ALEX DE PAULA LANZA ASSESSOR ATIVO BELO HORIZONTE - COMARCA; DIRETORIA DE IMPRENSA 0,00 0,00 6.265,58 0,00 2.088,53 0,00 8.354,11 482,93 1.464,10 0,00 1.947,03 6.407,08 457,00 0,00 28/02/2014
82 178400 ALEX RODRIGO SALDANHA GUIMARAES OFICIAL DO MP ATIVO BELO HORIZONTE - COMARCA; DIRETORIA DE SISTEMAS DE INFORMACAO 4.696,06 939,21 0,00 0,00 0,00 0,00 5.635,27 619,88 553,08 0,00 1.172,96 4.462,31 457,00 0,00 28/02/2014
83 289200 ALEX SANDRO PEREIRA DE MATOS OFICIAL DO MP ATIVO BELO HORIZONTE - COMARCA; PROCON-MG-SECRETARIA DE FISCALIZACOES 4.696,06 2.047,53 0,00 0,00 0,00 0,00 6.743,59 619,88 857,87 0,00 1.477,75 5.265,84 457,00 0,00 28/02/2014
84 413500 ALEX VILELA OLIVEIRA ANALISTA DO MP ATIVO GOVERNADOR VALADARES - COMARCA; COORD REG PJ DEF EDU DIR CRIANCA ADOL RIODOCE 7.014,37 701,44 0,00 0,00 2.571,94 0,00 10.287,75 863,29 1.801,95 0,00 2.665,24 7.622,51 457,00 132,28 28/02/2014
85 264300 ALEXANDRA FATIMA SARAIVA SOARES ANALISTA DO MP ATIVO BELO HORIZONTE - COMARCA; CENTRAL DE APOIO TECN-SETOR DE MEIO AMBIENTE 9.977,95 1.995,59 0,00 0,00 0,00 0,00 11.973,54 1.317,09 2.104,37 0,00 3.421,46 8.552,08 457,00 0,00 28/02/2014
86 488000 ALEXANDRA LARA PAIS DE CARVALHO ANALISTA DO MP ATIVO GUANHÃES - COMARCA; GUANHAES-PJ-SECRETARIA 5.511,94 0,00 0,00 0,00 0,00 0,00 5.511,94 606,31 424,06 0,00 1.030,37 4.481,57 927,00 0,00 28/02/2014
87 256300 ALEXANDRA SANTOS GOMES OFICIAL DO MP ATIVO BELO HORIZONTE - COMARCA; EXTINTA - DIVISÃO DE COMPRAS 5.691,44 1.138,29 0,00 0,00 0,00 0,00 6.829,73 815,68 988,73 0,00 1.804,41 5.025,32 457,00 585,50 28/02/2014
88 403300 ALEXANDRE AUGUSTO RODRIGUES ANALISTA DO MP ATIVO ÁGUAS FORMOSAS - COMARCA; AGUAS FORMOSAS-PJ-UNPJ 6.469,61 646,96 0,00 0,00 0,00 0,00 7.116,57 782,82 915,63 0,00 1.698,45 5.418,12 457,00 0,00 28/02/2014
89 311700 ALEXANDRE BARCELOS RESENDE OFICIAL DO MP ATIVO BELO HORIZONTE - COMARCA; BH-07PJ 03 TRIBUNAL DO JURI-GAB 109PJ 4.265,74 426,57 0,00 0,00 0,00 0,00 4.692,31 516,15 336,68 0,00 852,83 3.839,48 3.272,39 211,15 28/02/2014
90 285600 ALEXANDRE CAMPOS DE OLIVEIRA OFICIAL DO MP ATIVO UBERABA - COMARCA; COORD REG BACIAS PARANAIBA BAIXO RIO GRANDE 6.068,01 1.213,60 0,00 0,00 0,00 0,00 7.281,61 800,98 807,76 0,00 1.608,74 5.672,87 4.472,29 324,98 28/02/2014
91 509200 ALEXANDRE CAPUANO DE REZENDE ANALISTA DO MP ATIVO BELO HORIZONTE - COMARCA; PROC. JUSTICA DE HABEAS CORPUS 6.068,01 0,00 0,00 0,00 0,00 0,00 6.068,01 667,48 609,58 0,00 1.277,06 4.790,95 457,00 0,00 28/02/2014
92 229400 ALEXANDRE CARLOS BOTREL DIRETOR/OFICIAL ATIVO BELO HORIZONTE - COMARCA; SUPERINTENDENCIA DOS ORGAOS COLEGIADOS 0,00 2.670,79 13.353,95 0,00 0,00 0,00 16.024,74 853,99 3.345,81 0,00 4.199,80 11.824,94 4.002,29 324,98 28/02/2014
93 411900 ALEXANDRE CARVALHO SANTOS RIBEIRO ANALISTA DO MP ATIVO PERDÕES - COMARCA; PERDOES-PJ-UNPJ 7.014,37 701,44 0,00 0,00 0,00 0,00 7.715,81 848,74 1.062,29 0,00 1.911,03 5.804,78 687,40 0,00 28/02/2014
94 201200 ALEXANDRE DE ALENCAR CORDEIRO OFICIAL DO MP ATIVO ÁGUAS FORMOSAS - COMARCA; AGUAS FORMOSAS-PJ-UNPJ 4.696,06 1.878,43 0,00 0,00 0,00 0,00 6.574,49 723,19 684,12 0,00 1.407,31 5.167,18 457,00 0,00 28/02/2014
95 288200 ALEXANDRE DE VASCONCELOS COSTA KER ANALISTA DO MP ATIVO BELO HORIZONTE - COMARCA; BH-03PJ EMPRESARIAL-SECRETARIA 9.358,72 1.871,74 0,00 0,00 0,00 0,00 11.230,46 1.235,35 1.873,09 0,00 3.108,44 8.122,02 4.002,29 324,98 28/02/2014
96 445000 ALEXANDRE DIOGENES OLIVEIRA ANALISTA DO MP ATIVO SALINAS - COMARCA; SALINAS-PJ-02PJ 6.793,15 407,59 0,00 0,00 0,00 0,00 7.200,74 792,08 936,23 0,00 1.728,31 5.472,43 457,00 0,00 28/02/2014
97 463400 ALEXANDRE LEAL WINKELSTROTER ANALISTA DO MP ATIVO TEÓFILO OTONI - COMARCA; TEOFILO OTONI-PJ-04PJ 5.691,44 341,49 0,00 0,00 0,00 0,00 6.032,93 663,62 600,99 0,00 1.264,61 4.768,32 457,00 0,00 28/02/2014
98 356900 ALEXANDRE MOISES MENDONCA E ARAUJO OFICIAL DO MP ATIVO UBERABA - COMARCA; UBERABA-PJ-13PJ 4.265,74 426,57 0,00 0,00 0,00 0,00 4.692,31 516,15 296,24 0,00 812,39 3.879,92 457,00 0,00 28/02/2014
99 469900 ALEXANDRE PEREIRA GUEDES ANALISTA DO MP ATIVO CATAGUASES - COMARCA; CATAGUASES-PJ-03PJ 6.265,58 375,93 0,00 0,00 0,00 0,00 6.641,51 730,57 799,36 0,00 1.529,93 5.111,58 457,00 0,00 28/02/2014
100 208700 ALEXANDRE RESENDE FRAGA ANALISTA DO MP ATIVO BELO HORIZONTE - COMARCA; BH-19PJ SAUDE 11.885,64 2.377,13 0,00 0,00 0,00 0,00 14.262,77 1.568,90 2.516,40 0,00 4.085,30 10.177,47 1.162,00 0,00 28/02/2014
101 216401 ALEXANDRE RIBEIRO DE LIMA MAIORINO ANALISTA DO MP ATIVO UBERABA - COMARCA; UBERABA-PJ-03PJ 9.358,72 1.871,74 0,00 0,00 0,00 0,00 11.230,46 1.235,35 1.873,09 0,00 3.108,44 8.122,02 692,00 0,00 28/02/2014
102 475100 ALEXANDRE TEOTONIO COSTA ANALISTA DO MP ATIVO ARAGUARI - COMARCA; ARAGUARI-PJ-01PJ 6.265,58 375,93 0,00 0,00 0,00 0,00 6.641,51 730,57 700,52 0,00 1.431,09 5.210,42 927,00 0,00 28/02/2014
103 339000 ALEXANDRE VITOR CARDOSO OFICIAL DO MP ATIVO BELO HORIZONTE - COMARCA; BH-18PJ DIREITOS HUMANOS-SECRETARIA 4.696,06 469,61 0,00 0,00 0,00 0,00 5.165,67 568,22 310,16 0,00 878,38 4.287,29 2.312,38 121,53 28/02/2014
104 513300 ALFSON MIRANDA BRAGA ANALISTA DO MP ATIVO BELO HORIZONTE - COMARCA; BH-12PJ JUIZO CRIMINAL-GAB 092PJ 5.511,94 0,00 0,00 0,00 0,00 0,00 5.511,94 606,31 522,90 0,00 1.129,21 4.382,73 457,00 0,00 28/02/2014
105 471000 ALICE TITONELI MOREIRA ANALISTA DO MP ATIVO MIRADOURO - COMARCA; MIRADOURO-PJ-UNPJ 6.265,58 375,93 0,00 0,00 0,00 0,00 6.641,51 730,57 749,94 0,00 1.480,51 5.161,00 692,00 0,00 28/02/2014
106 373000 ALINE BOTELHO RESENDE OFICIAL DO MP ATIVO PASSA QUATRO - COMARCA; PASSA QUATRO-PJ-SECRETARIA 4.131,19 413,12 0,00 0,00 0,00 0,00 4.544,31 499,87 307,04 0,00 806,91 3.737,40 457,00 0,00 28/02/2014
107 407700 ALINE CRISTINA RODRIGUES PEREIRA ANALISTA DO MP ATIVO BELO HORIZONTE - COMARCA; DIRETORIA DE PROJETOS DE EDIFICACOES 5.876,69 587,67 0,00 0,00 0,00 0,00 6.464,36 711,08 756,00 0,00 1.467,08 4.997,28 692,00 0,00 28/02/2014
108 193100 ALINE CRISTINA SENA OLIVEIRA OFICIAL DO MP ATIVO UBERLÂNDIA - COMARCA; UBERLANDIA-PJ-03PJ 8.233,02 5.636,55 0,00 0,00 0,00 0,00 13.869,57 1.086,76 2.639,70 0,00 3.726,46 10.143,11 4.002,29 324,98 28/02/2014
109 554200 ALINE CRISTINA SILVA SOUZA OFICIAL DO MP ATIVO TIROS - COMARCA; TIROS-PJ-UNPJ 2.859,08 0,00 0,00 0,00 0,00 0,00 2.859,08 314,50 56,76 0,00 371,26 2.487,82 457,00 0,00 28/02/2014
110 505500 ALINE DA CUNHA MARREIROS OLIVEIRA ANALISTA DO MP ATIVO CARANGOLA - COMARCA; CARANGOLA-PJ-03PJ 6.068,01 0,00 0,00 0,00 0,00 0,00 6.068,01 667,48 609,58 0,00 1.277,06 4.790,95 692,00 0,00 28/02/2014
111 433500 ALINE DE MELO QUEIROZ OFICIAL DO MP ATIVO BELO HORIZONTE - COMARCA; PROCON-MG-SECRETARIA DE FISCALIZACOES 4.848,98 1.399,26 0,00 0,00 0,00 0,00 6.248,24 565,39 736,63 0,00 1.302,02 4.946,22 4.002,29 324,98 28/02/2014
112 542700 ALINE DE SOUSA ALBINO ANALISTA DO MP ATIVO CARMO DO PARANAÍBA - COMARCA; CARMO DO PARANAIBA-PJ-02PJ 4.404,59 0,00 0,00 0,00 0,00 0,00 4.404,59 484,50 279,06 0,00 763,56 3.641,03 457,00 0,00 28/02/2014
113 330000 ALINE DIORIO MAYRINK OFICIAL DO MP ATIVO BELO HORIZONTE - COMARCA; BH-12PJ JUIZO CRIMINAL 4.848,98 484,90 0,00 0,00 0,00 0,00 5.333,88 586,73 479,32 0,00 1.066,05 4.267,83 2.245,59 163,95 28/02/2014
114 499000 ALINE FERREIRA LOPES NEIVA ANALISTA DO MP ATIVO TEÓFILO OTONI - COMARCA; COORD. DE DEF. DO PAT. PUBLICO-JEQUIT./MUCURI 6.068,01 0,00 0,00 0,00 0,00 0,00 6.068,01 667,48 659,00 0,00 1.326,48 4.741,53 457,00 0,00 28/02/2014
115 405300 ALINE LAIA CARDOZO ANALISTA DO MP ATIVO BELO HORIZONTE - COMARCA; EXTINTA - DIRETORIA DE CONTRATOS E CONVÊNIOS 7.014,37 701,44 0,00 0,00 0,00 0,00 7.715,81 848,74 1.062,29 0,00 1.911,03 5.804,78 457,00 0,00 28/02/2014
116 278200 ALINE MARCIA FARIA BARBOSA OFICIAL DO MP ATIVO BARBACENA - COMARCA; BARBACENA-PJ-SECRETARIA 4.696,06 939,21 0,00 0,00 0,00 0,00 5.635,27 619,88 404,82 0,00 1.024,70 4.610,57 4.472,29 324,98 28/02/2014
117 389000 ALINE NERI NOBRE ANALISTA DO MP ATIVO MONTES CLAROS - COMARCA; COORD REG PJ DEF EDUC DIR CRIANCA ADOL NORTE 7.973,40 1.594,68 0,00 0,00 0,00 0,00 9.568,08 1.052,49 1.515,64 0,00 2.568,13 6.999,95 457,00 0,00 28/02/2014
118 294600 ALINE PATRICIA SILVA VIEIRA OFICIAL DO MP ATIVO UBERLÂNDIA - COMARCA; UBERLANDIA-PJ-03PJ 6.068,01 5.203,55 0,00 0,00 0,00 0,00 11.271,56 867,73 2.158,56 0,00 3.026,29 8.245,27 4.663,32 1.151,56 28/02/2014
119 420000 ALINE RODRIGUES CAMOROPIN ANALISTA DO MP ATIVO SABARÁ - COMARCA; SABARA-PJ-02PJ 7.014,37 701,44 0,00 0,00 0,00 0,00 7.715,81 848,74 1.062,29 0,00 1.911,03 5.804,78 457,00 0,00 28/02/2014
120 408300 ALINE SILVA ARAUJO DE PAULA ANALISTA DO MP ATIVO SÃO SEBASTIÃO DO PARAÍSO - COMARCA; SAO SEBASTIAO DO PARAISO-PJ-02PJ 7.014,37 701,44 0,00 0,00 0,00 0,00 7.715,81 848,74 1.062,29 0,00 1.911,03 5.804,78 2.794,22 214,25 28/02/2014
121 425400 ALINE TRINDADE DE FREITAS CAMPOS OFICIAL DO MP ATIVO BELO HORIZONTE - COMARCA; BH-14PJ DEFESA CONSUMIDOR-SECRETARIA 4.848,98 484,90 0,00 0,00 0,00 0,00 5.333,88 608,06 526,79 0,00 1.134,85 4.199,03 457,00 193,96 28/02/2014
122 517200 ALISSOM PEREIRA DA SILVA ANALISTA DO MP ATIVO BORDA DA MATA - COMARCA; BORDA DA MATA-PJ-UNPJ 6.068,01 0,00 0,00 0,00 2.022,67 0,00 8.090,68 834,67 1.469,28 0,00 2.303,95 5.786,73 457,00 1.519,93 28/02/2014
123 442400 ALISSON LABRE ANALISTA DO MP ATIVO VARGINHA - COMARCA; VARGINHA-PJ-02PJ 6.793,15 407,59 0,00 0,00 0,00 0,00 7.200,74 792,08 936,23 0,00 1.728,31 5.472,43 4.002,29 324,98 28/02/2014
124 349000 ALLEC RODRIGUES VIEIRA ASSESSOR/OFICIAL ATIVO BELO HORIZONTE - COMARCA; COORD DE INCLUSAO E MOBILIZACAO SOCIAIS 0,00 877,78 8.777,78 0,00 0,00 0,00 9.655,56 1.062,11 1.537,05 0,00 2.599,16 7.056,40 4.002,29 324,98 28/02/2014
125 297300 ALLYSON SALIBA MONTEIRO LAIZO ANALISTA DO MP ATIVO CONSELHEIRO LAFAIETE - COMARCA; CONSELHEIRO LAFAIETE-PJ-03PJ 10.302,83 1.030,28 0,00 0,00 0,00 0,00 11.333,11 1.246,64 1.947,63 0,00 3.194,27 8.138,84 4.002,29 324,98 28/02/2014
126 303700 ALMIR LOPES LOURES ANALISTA DO MP ATIVO BELO HORIZONTE - COMARCA; CENTRAL DE APOIO TECN-SETOR DE MEIO AMBIENTE 10.302,83 1.030,28 0,00 0,00 0,00 0,00 11.333,11 1.246,64 1.848,79 0,00 3.095,43 8.237,68 457,00 0,00 28/02/2014
127 515900 ALTAIR NEVES JUNIOR OFICIAL DO MP ATIVO BELO HORIZONTE - COMARCA; BH-03PJ EMPRESARIAL-SECRETARIA 3.938,84 0,00 0,00 0,00 0,00 0,00 3.938,84 433,27 190,81 0,00 624,08 3.314,76 850,55 19,68 28/02/2014
128 233300 ALVARINDO BATISTA COORDENADOR/ANALISTA ATIVO BELO HORIZONTE - COMARCA; DIVISAO DE MULTIMIDIA 11.885,64 4.189,85 0,00 0,00 0,00 0,00 16.075,49 1.568,90 3.163,16 0,00 4.732,06 11.343,43 457,00 0,00 28/02/2014
129 274100 ALYSSON CARVALHO VIDAL DE LACERDA OFICIAL DO MP ATIVO MANHUAÇU - COMARCA; MANHUACU-PJ-01PJ 6.265,58 1.253,12 0,00 0,00 2.506,23 0,00 10.024,93 827,06 1.703,26 0,00 2.530,32 7.494,61 457,00 0,00 28/02/2014
130 558600 ALYSSON FRANCISCO ALVES GARCIA OFICIAL DO MP ATIVO VESPASIANO - COMARCA; VESPASIANO-PJ-SECRETARIA 2.859,08 0,00 0,00 0,00 0,00 0,00 2.859,08 314,50 56,76 0,00 371,26 2.487,82 0,00 0,00 28/02/2014
131 521700 AMANDA CRISTINA AGUIAR MACHADO OFICIAL DO MP ATIVO BARBACENA - COMARCA; BARBACENA-PJ-03PJ 2.952,15 0,00 0,00 0,00 0,00 0,00 2.952,15 324,74 49,50 0,00 374,24 2.577,91 457,00 0,00 28/02/2014
132 520800 AMANDA DE SOUZA MACHADO ANALISTA DO MP ATIVO BAEPENDI - COMARCA; BAEPENDI-PJ-UNPJ 5.511,94 0,00 0,00 0,00 0,00 0,00 5.511,94 606,31 424,06 0,00 1.030,37 4.481,57 692,00 0,00 28/02/2014
133 501800 AMANDA LIMA TEIXEIRA COSTA OFICIAL DO MP ATIVO CATAGUASES - COMARCA; CATAGUASES-PJ-04PJ 3.938,84 0,00 0,00 0,00 0,00 0,00 3.938,84 433,27 163,85 0,00 597,12 3.341,72 927,00 0,00 28/02/2014
134 543100 AMANDA VIEIRA FREITAS ANALISTA DO MP ATIVO PARAGUAÇU - COMARCA; PARAGUACU-PJ-UNPJ 4.404,59 0,00 0,00 0,00 0,00 0,00 4.404,59 484,50 279,06 0,00 763,56 3.641,03 457,00 0,00 28/02/2014
135 434400 AMARILIS ASSIS SIMAO CURCIO ANALISTA DO MP ATIVO BELO HORIZONTE - COMARCA; ASSESS TECNICO-JUR JUNTO AS PROC. DE JUST 6.793,15 407,59 0,00 0,00 0,00 0,00 7.200,74 792,08 936,23 0,00 1.728,31 5.472,43 927,00 0,00 28/02/2014
136 273700 AMBROLINA CARNEIRO DE VASCONCELOS OFICIAL DO MP ATIVO FRUTAL - COMARCA; FRUTAL-PJ-03PJ 6.265,58 3.132,79 0,00 0,00 0,00 0,00 9.398,37 1.033,82 1.424,68 0,00 2.458,50 6.939,87 4.002,29 324,98 28/02/2014
137 58000 AMELIA GUARIZE DE CASTRO OFICIAL DO MP ATIVO JUIZ DE FORA - COMARCA; JUIZ DE FORA-PJ-SECRETARIA 5.169,86 4.652,88 0,00 0,00 0,00 1.080,50 10.903,24 1.080,50 1.875,10 0,00 2.955,60 7.947,64 457,00 0,00 28/02/2014
138 324301 AMERICA SUELI FERREIRA DA SILVA ANALISTA DO MP ATIVO MONTE CARMELO - COMARCA; MONTE CARMELO-PJ-02PJ 6.265,58 375,93 0,00 0,00 2.213,84 0,00 8.855,35 730,57 1.408,16 0,00 2.138,73 6.716,62 457,00 0,00 28/02/2014
139 273300 AMUJACY DE BRITO ASSIZ OFICIAL DO MP ATIVO BELO HORIZONTE - COMARCA; BH-12PJ JUIZO CRIMINAL-SECRETARIA 5.511,94 1.102,39 0,00 0,00 2.204,78 0,00 8.819,11 727,58 1.250,76 0,00 1.978,34 6.840,77 692,00 0,00 28/02/2014
140 482200 ANA ALICE LOPES ACHTSCHIN ANALISTA DO MP ATIVO BELO HORIZONTE - COMARCA; PROC JUST RECURSOS ESP E EXTRAORD CRIMINAIS 6.265,58 375,93 0,00 0,00 0,00 0,00 6.641,51 770,50 888,61 0,00 1.659,11 4.982,40 457,00 432,81 28/02/2014
141 490400 ANA AMELIA PAULINO GARCIA OFICIAL DO MP ATIVO GRAO MOGOL - COMARCA; GRAO MOGOL-PJ-UNPJ 3.938,84 0,00 0,00 0,00 0,00 0,00 3.938,84 433,27 190,81 0,00 624,08 3.314,76 457,00 0,00 28/02/2014
142 279100 ANA CAROLINA ARAUJO PEREIRA ANALISTA DO MP ATIVO BELO HORIZONTE - COMARCA; DIRETORIA DE PROJETOS DE EDIFICACOES 10.302,83 2.060,57 0,00 0,00 4.121,13 0,00 16.484,53 1.359,97 3.333,10 0,00 4.693,07 11.791,46 457,00 0,00 28/02/2014
143 359400 ANA CAROLINA DE ABREU FARIA ASSESSOR ATIVO BELO HORIZONTE - COMARCA; DIVISAO DE CONTROLE IMOBILIARIO 0,00 0,00 3.938,84 0,00 0,00 0,00 3.938,84 396,89 296,80 0,00 693,69 3.245,15 2.820,30 177,25 28/02/2014
144 408500 ANA CAROLINA DE CASTRO CARVALHO ANALISTA DO MP ATIVO BARBACENA - COMARCA; BARBACENA-PJ-SECRETARIA 7.014,37 701,44 0,00 0,00 0,00 0,00 7.715,81 848,74 1.062,29 0,00 1.911,03 5.804,78 457,00 0,00 28/02/2014
145 420200 ANA CAROLINA FERNANDES SILVA ANALISTA DO MP ATIVO BELO HORIZONTE - COMARCA; PROC. JUSTICA DE HABEAS CORPUS 6.469,61 646,96 0,00 0,00 0,00 0,00 7.116,57 782,82 915,63 0,00 1.698,45 5.418,12 457,00 0,00 28/02/2014
146 522100 ANA CAROLINA FERNANDINO VIDAL PEREIRA SANTOS OFICIAL DO MP ATIVO BELO HORIZONTE - COMARCA; EXTINTA - SECRETARIA ADMINISTRATIVA 3.250,03 0,00 0,00 0,00 0,00 0,00 3.250,03 357,50 98,85 0,00 456,35 2.793,68 692,00 0,00 28/02/2014
147 502400 ANA CAROLINA GONCALVES FERNANDES ANALISTA DO MP ATIVO ABRE CAMPO - COMARCA; ABRE CAMPO-PJ-01PJ 6.068,01 0,00 0,00 0,00 0,00 0,00 6.068,01 667,48 659,00 0,00 1.326,48 4.741,53 2.979,72 231,25 28/02/2014
148 529900 ANA CAROLINA GONCALVES PECANHA CHEQUER ANALISTA DO MP ATIVO MANHUAÇU - COMARCA; MANHUACU-PJ-04PJ 4.848,98 0,00 0,00 0,00 1.616,33 0,00 6.465,31 533,39 805,13 0,00 1.338,52 5.126,79 457,00 0,00 28/02/2014
149 431900 ANA CAROLINA MOTTA GUATIMOSIM ANALISTA DO MP ATIVO BELO HORIZONTE - COMARCA; PROC. JUSTICA DE HABEAS CORPUS 6.793,15 407,59 0,00 0,00 0,00 0,00 7.200,74 792,08 936,23 0,00 1.728,31 5.472,43 457,00 0,00 28/02/2014
150 539400 ANA CAROLINA REIS MACEDO ANALISTA DO MP ATIVO UBERABA - COMARCA; COORD REG PJ DEF EDUC DIR CRIANCA ADOL TRIANG 4.848,98 0,00 0,00 0,00 0,00 0,00 4.848,98 561,09 422,27 0,00 983,36 3.865,62 457,00 251,82 28/02/2014
151 490600 ANA CAROLINA XAVIER GODOY ANALISTA DO MP ATIVO BELO HORIZONTE - COMARCA; BH-18PJ VIOLENCIA DOMESTICA 6.068,01 0,00 0,00 0,00 0,00 0,00 6.068,01 667,48 659,00 0,00 1.326,48 4.741,53 457,00 0,00 28/02/2014
152 600300 ANA CAROLINE PEREIRA DINIZ ANALISTA DO MP ATIVO BELO HORIZONTE - COMARCA; COMB CRIMES PRAT POR AG POL MUN-SECRETARIA 4.848,98 0,00 0,00 0,00 0,00 0,00 4.848,98 533,39 368,05 0,00 901,44 3.947,54 457,00 0,00 28/02/2014
153 324800 ANA CECILIA MENDES DA SILVA OFICIAL DO MP ATIVO OURO FINO - COMARCA; OURO FINO-PJ-01PJ 5.876,69 1.175,34 0,00 0,00 0,00 0,00 7.052,03 775,72 850,42 0,00 1.626,14 5.425,89 692,00 0,00 28/02/2014
154 441300 ANA CLAUDIA ALKIMIM MIRANDA BOMTEMPO ANALISTA DO MP ATIVO MONTES CLAROS - COMARCA; MONTES CLAROS-PJ-11PJ 6.793,15 407,59 0,00 0,00 0,00 0,00 7.200,74 792,08 837,39 0,00 1.629,47 5.571,27 927,00 0,00 28/02/2014
155 604900 ANA CLAUDIA OLIVEIRA DE MIRANDA OFICIAL DO MP ATIVO PONTE NOVA - COMARCA; PONTE NOVA-PJ-04PJ 2.859,08 0,00 0,00 0,00 0,00 0,00 2.859,08 314,50 56,76 0,00 371,26 2.487,82 457,00 0,00 28/02/2014
156 379300 ANA CRISTINA ALVES FLAVIO ANALISTA DO MP ATIVO SÃO GOTARDO - COMARCA; SAO GOTARDO-PJ-01PJ 7.973,40 797,34 0,00 0,00 0,00 0,00 8.770,74 964,78 1.271,07 0,00 2.235,85 6.534,89 457,00 0,00 28/02/2014
157 461200 ANA CRISTINA ALVES PASCHOAL ANALISTA DO MP ATIVO SANTA LUZIA - COMARCA; SANTA LUZIA-PJ-03PJ 6.265,58 375,93 0,00 0,00 0,00 0,00 6.641,51 730,57 799,36 0,00 1.529,93 5.111,58 692,00 0,00 28/02/2014
158 514100 ANA CRISTINA ARAUJO ASSUNCAO ANALISTA DO MP ATIVO BELO HORIZONTE - COMARCA; ASSESS JUR DO CONS SUPERIOR DO MINISTERIO PUB 6.068,01 0,00 0,00 0,00 0,00 0,00 6.068,01 667,48 659,00 0,00 1.326,48 4.741,53 457,00 0,00 28/02/2014
159 113400 ANA CRISTINA BRAGA ALBUQUERQUE ANALISTA DO MP ATIVO BELO HORIZONTE - COMARCA; ASSESS ESP ADM E FINANCEIRA DO PGJ ADJ ADM 23.074,69 9.229,88 0,00 0,00 0,00 0,00 32.304,57 2.924,86 5.681,68 5.714,89 14.321,43 17.983,14 4.002,29 324,98 28/02/2014
160 233800 ANA CRISTINA BRAGA SOARES RIOS OFICIAL DO MP ATIVO CONTAGEM - COMARCA; CONTAGEM-PJ-SECRETARIA 6.068,01 1.213,60 0,00 0,00 0,00 0,00 7.281,61 800,98 956,02 0,00 1.757,00 5.524,61 457,00 0,00 28/02/2014
161 186400 ANA CRISTINA DE AZEVEDO LOPES OFICIAL DO MP ATIVO UBÁ - COMARCA; UBA-PJ-01PJ 8.233,02 1.646,60 0,00 0,00 0,00 0,00 9.879,62 1.086,76 1.542,47 0,00 2.629,23 7.250,39 4.002,29 324,98 28/02/2014
162 465100 ANA CRISTINA DE OLIVEIRA GUIMARAES ANALISTA DO MP ATIVO BRASÓPOLIS - COMARCA; BRASOPOLIS-PJ-UNPJ 6.265,58 375,93 0,00 0,00 0,00 0,00 6.641,51 730,57 799,36 0,00 1.529,93 5.111,58 457,00 0,00 28/02/2014
163 500600 ANA CRISTINA LATADO SUDARIO ANALISTA DO MP ATIVO UBERLÂNDIA - COMARCA; UBERLANDIA-PJ-07PJ 5.511,94 0,00 0,00 0,00 0,00 0,00 5.511,94 606,31 522,90 0,00 1.129,21 4.382,73 457,00 0,00 28/02/2014
164 331400 ANA CRISTINA RIBEIRO ALVES OFICIAL DO MP ATIVO BAMBUÍ - COMARCA; BAMBUI-PJ-UNPJ 5.169,86 516,99 0,00 0,00 0,00 0,00 5.686,85 625,55 565,71 0,00 1.191,26 4.495,59 457,00 0,00 28/02/2014
165 249300 ANA ELOINA MARTINS DO PINHO OFICIAL DO MP ATIVO BETIM - COMARCA; BETIM-PJ-08PJ 6.578,93 1.973,68 0,00 0,00 0,00 0,00 8.552,61 940,79 1.217,68 0,00 2.158,47 6.394,14 4.002,29 324,98 28/02/2014
166 257400 ANA FLAVIA CAMBRAIA ANALISTA DO MP ATIVO BELO HORIZONTE - COMARCA; BH-19PJ SAUDE-SECRETARIA 150PJ 9.977,95 1.995,59 0,00 0,00 0,00 0,00 11.973,54 1.317,09 2.054,95 0,00 3.372,04 8.601,50 457,00 0,00 28/02/2014
167 248201 ANA FLAVIA DE MORAIS SOUZA ANALISTA DO MP ATIVO DIVINÓPOLIS - COMARCA; DIVINOPOLIS-PJ-01PJ 6.265,58 1.253,12 0,00 0,00 0,00 0,00 7.518,70 827,06 1.014,05 0,00 1.841,11 5.677,59 4.002,29 324,98 28/02/2014
168 238600 ANA FLAVIA FRANCO CAMPOS OFICIAL DO MP ATIVO BELO HORIZONTE - COMARCA; DIRETORIA DE PESSOAL ADMINISTRATIVO - DPAD 6.578,93 1.315,79 0,00 0,00 0,00 0,00 7.894,72 868,42 1.106,08 0,00 1.974,50 5.920,22 4.002,29 324,98 28/02/2014
169 402900 ANA FLAVIA PORTES DE CARVALHO ANALISTA DO MP ATIVO BELO HORIZONTE - COMARCA; DIRET DE PLANOS PROJETOS E PROGRAMAS INST 7.973,40 797,34 0,00 0,00 0,00 0,00 8.770,74 964,78 1.271,07 0,00 2.235,85 6.534,89 4.237,29 324,98 28/02/2014
170 382700 ANA KARENINA SALDANHA GONTIJO ANALISTA DO MP ATIVO BELO HORIZONTE - COMARCA; ASSESS TECNICO-JUR JUNTO AS PROC. DE JUST 6.469,61 646,96 0,00 0,00 0,00 0,00 7.116,57 782,82 915,63 0,00 1.698,45 5.418,12 692,00 0,00 28/02/2014
171 220000 ANA LUCIA AMORIM OFICIAL DO MP ATIVO MARTINHO CAMPOS - COMARCA; MARTINHO CAMPOS-PJ-SECRETARIA 6.793,15 3.396,58 0,00 0,00 0,00 0,00 10.189,73 1.120,87 1.667,79 0,00 2.788,66 7.401,07 457,00 0,00 28/02/2014
172 462200 ANA LUCIA ANDRADE TOMICH OTTONI ANALISTA DO MP ATIVO TEÓFILO OTONI - COMARCA; TEOFILO OTONI-PJ-06PJ 6.265,58 375,93 0,00 0,00 0,00 0,00 6.641,51 730,57 700,52 0,00 1.431,09 5.210,42 692,00 0,00 28/02/2014
173 504100 ANA LUCIA CATAO DE CARVALHO OFICIAL DO MP ATIVO BELO HORIZONTE - COMARCA; BH-09PJ AUDITORIA MILITAR 3.577,90 0,00 0,00 0,00 0,00 0,00 3.577,90 393,57 115,66 0,00 509,23 3.068,67 692,00 0,00 28/02/2014
174 274700 ANA LUCIA DE ALENCAR BRAGATO OFICIAL DO MP ATIVO UBERABA - COMARCA; UBERABA-PJ-04PJ 6.265,58 1.253,12 0,00 0,00 0,00 0,00 7.518,70 827,06 964,63 0,00 1.791,69 5.727,01 457,00 0,00 28/02/2014
175 258600 ANA LUCIA DE FREITAS AZEVEDO ANALISTA DO MP ATIVO BELO HORIZONTE - COMARCA; BH-19PJ SAUDE-SECRETARIA 150PJ 10.302,83 2.060,57 0,00 0,00 0,00 0,00 12.363,40 1.359,97 2.199,79 0,00 3.559,76 8.803,64 457,00 0,00 28/02/2014
176 509400 ANA LUCIA DORNELAS MALLOSTO ANALISTA DO MP ATIVO JUIZ DE FORA - COMARCA; JUIZ DE FORA-PJ-18PJ 5.006,87 0,00 0,00 0,00 0,00 0,00 5.006,87 550,76 278,36 0,00 829,12 4.177,75 457,00 0,00 28/02/2014
177 524600 ANA LUCIA DOS SANTOS FERNANDES COELHO ASSESSOR ATIVO BELO HORIZONTE - COMARCA; CAO-MEIO AMBIENTE-SECRETARIA 0,00 0,00 3.938,84 0,00 0,00 0,00 3.938,84 123,28 358,37 0,00 481,65 3.457,19 850,55 29,52 28/02/2014
178 302600 ANA LUCIA LOPES SANTOS OFICIAL DO MP ATIVO BELO HORIZONTE - COMARCA; PROCON-MG-SECRETARIA DE FISCALIZACOES 5.876,69 1.695,99 0,00 0,00 0,00 0,00 7.572,68 753,92 1.106,69 0,00 1.860,61 5.712,07 4.002,29 714,44 28/02/2014
179 493400 ANA LUISA NOGUEIRA MOREIRA ANALISTA DO MP ATIVO BELO HORIZONTE - COMARCA; TRIBUNAL DO JURI-07 PJ-02 TRIBUNAL 6.068,01 0,00 0,00 0,00 0,00 0,00 6.068,01 667,48 659,00 0,00 1.326,48 4.741,53 457,00 0,00 28/02/2014
180 389300 ANA LUISA REUTER LIMA ANALISTA DO MP ATIVO BELO HORIZONTE - COMARCA; DIRETORIA DE SISTEMAS DE INFORMACAO 6.578,93 657,89 0,00 0,00 0,00 0,00 7.236,82 796,05 945,06 0,00 1.741,11 5.495,71 457,00 0,00 28/02/2014
181 480600 ANA LUIZA FERNANDES FRAGA E GRECO OFICIAL DO MP ATIVO SANTO ANTÔNIO DO MONTE - COMARCA; SANTO ANTONIO DO MONTE-PJ-UNPJ 3.694,41 221,66 0,00 0,00 0,00 0,00 3.916,07 458,85 219,15 0,00 678,00 3.238,07 457,00 255,24 28/02/2014
182 517800 ANA LUIZA MAGALHAES CIRINO PIOTO DE MELO OFICIAL DO MP ATIVO BELO HORIZONTE - COMARCA; DIVISAO DE MANUTENCAO PREDIAL 2.952,15 0,00 0,00 0,00 0,00 0,00 2.952,15 324,74 62,98 0,00 387,72 2.564,43 457,00 0,00 28/02/2014
183 481400 ANA MARCIA CANDIDA FERREIRA OFICIAL DO MP ATIVO BRUMADINHO - COMARCA; BRUMADINHO-PJ-01PJ 3.355,81 201,35 0,00 0,00 0,00 0,00 3.557,16 416,78 168,41 0,00 585,19 2.971,97 457,00 269,13 28/02/2014
184 556400 ANA MARIA OLIVEIRA SOUZA OFICIAL DO MP ATIVO ITAPECERICA - COMARCA; ITAPECERICA-PJ-UNPJ 2.859,08 0,00 0,00 0,00 0,00 0,00 2.859,08 314,50 56,76 0,00 371,26 2.487,82 457,00 0,00 28/02/2014
185 409600 ANA OLIVIA FARIA ROSENBURG ANALISTA DO MP ATIVO BELO HORIZONTE - COMARCA; DIRETORIA DO COLEGIO E DA CAMARA DE PJ 7.014,37 1.402,87 0,00 0,00 0,00 0,00 8.417,24 925,90 1.233,97 0,00 2.159,87 6.257,37 692,00 0,00 28/02/2014
186 461500 ANA PAULA ALVES CARVALHO ANALISTA DO MP ATIVO UBERLÂNDIA - COMARCA; UBERLANDIA-PJ-08PJ 6.265,58 375,93 0,00 0,00 0,00 0,00 6.641,51 730,57 799,36 0,00 1.529,93 5.111,58 457,00 0,00 28/02/2014
187 523200 ANA PAULA ALVES DA SILVA OFICIAL DO MP ATIVO GOVERNADOR VALADARES - COMARCA; GOVERNADOR VALADARES-PJ-15PJ 3.577,90 1.108,32 0,00 0,00 1.562,07 0,00 6.248,29 393,57 783,90 0,00 1.177,47 5.070,82 457,00 0,00 28/02/2014
188 381200 ANA PAULA BARROS PEREIRA ANALISTA DO MP ATIVO BELO HORIZONTE - COMARCA; PROC JUST RECURSOS ESP E EXTRAORD CRIMINAIS 7.973,40 797,34 0,00 0,00 2.923,58 0,00 11.694,32 964,78 2.124,47 0,00 3.089,25 8.605,07 457,00 0,00 28/02/2014
189 227200 ANA PAULA DA SILVA CAMPOLINA ANALISTA DO MP ATIVO BELO HORIZONTE - COMARCA; SUPERINTENDENCIA DE FINANCAS 11.885,64 3.565,69 0,00 0,00 0,00 0,00 15.451,33 1.699,65 2.955,56 0,00 4.655,21 10.796,12 4.002,29 324,98 28/02/2014
190 84200 ANA PAULA DE SOUZA ROCHA OFICIAL DO MP ATIVO BELO HORIZONTE - COMARCA; ASSESS ESP ADM E FINANCEIRA DO PGJ ADJ ADM 21.687,17 8.674,87 0,00 0,00 0,00 0,00 30.362,04 2.924,86 5.582,84 3.772,36 12.280,06 18.081,98 4.002,29 324,98 28/02/2014
191 278500 ANA PAULA DIAS CAPANEMA COORDENADOR/OFICIAL ATIVO BELO HORIZONTE - COMARCA; EXTINTA - DIRETORIA DE MATERIAL E PATRIMONIO 0,00 2.060,57 10.302,83 0,00 0,00 0,00 12.363,40 827,06 2.346,34 0,00 3.173,40 9.190,00 4.002,29 324,98 28/02/2014
192 327300 ANA PAULA GARCIA MAXIMO OFICIAL DO MP ATIVO UNAÍ - COMARCA; UNAI-PJ-01PJ 5.876,69 1.763,01 0,00 0,00 0,00 0,00 7.639,70 840,37 895,41 0,00 1.735,78 5.903,92 692,00 0,00 28/02/2014
193 270000 ANA PAULA GOULART CRUZ DE MAGALHAES ANALISTA DO MP ATIVO BELO HORIZONTE - COMARCA; COMB CRIMES PRAT POR AG POL MUN-ASSESSORIA 7.721,95 1.544,39 0,00 0,00 0,00 0,00 9.266,34 1.019,30 1.441,79 0,00 2.461,09 6.805,25 457,00 0,00 28/02/2014
194 262100 ANA PAULA KOMATSUZAKI ABIJAUDI ANALISTA DO MP ATIVO BELO HORIZONTE - COMARCA; BH-17PJ PATRIMONIO PUBLICO-SECRETARIA 9.977,95 2.993,39 0,00 0,00 0,00 0,00 12.971,34 1.426,85 2.249,74 0,00 3.676,59 9.294,75 692,00 0,00 28/02/2014
195 278900 ANA PAULA MOREIRA GURGEL ANALISTA DO MP ATIVO BELO HORIZONTE - COMARCA; EXTINTA - DIRETORIA DE CONTRATOS E CONVÊNIOS 10.302,83 3.090,85 0,00 0,00 0,00 0,00 13.393,68 1.473,30 2.451,95 0,00 3.925,25 9.468,43 4.002,29 324,98 28/02/2014
196 425700 ANA PAULA ROCHA ASSESSOR/OFICIAL ATIVO BELO HORIZONTE - COMARCA; SUPERINTENDENCIA DE COMUNICACAO INTEGRADA 0,00 626,56 6.265,58 0,00 0,00 0,00 6.892,14 586,73 907,84 0,00 1.494,57 5.397,57 457,00 0,00 28/02/2014
197 395601 ANA PAULA SALGE OLIVEIRA ANALISTA DO MP ATIVO UBERABA - COMARCA; COORD REG PJ DEF EDUC DIR CRIANCA ADOL TRIANG 6.068,01 1.213,60 0,00 0,00 0,00 0,00 7.281,61 952,67 1.267,61 0,00 2.220,28 5.061,33 4.193,32 1.943,97 28/02/2014
198 473200 ANA PAULA SCOTTON BRASIL ANALISTA DO MP ATIVO JUIZ DE FORA - COMARCA; JUIZ DE FORA-PJ-09PJ 6.265,58 375,93 0,00 0,00 0,00 0,00 6.641,51 877,85 1.093,47 0,00 1.971,32 4.670,19 4.002,29 1.866,73 28/02/2014
199 558900 ANA PAULA TAVARES PONTELLO NEVES ANALISTA DO MP ATIVO BELO HORIZONTE - COMARCA; BH-19PJ SAUDE-SECRETARIA 129PJ 4.404,59 0,00 0,00 0,00 0,00 0,00 4.404,59 484,50 279,06 0,00 763,56 3.641,03 457,00 0,00 28/02/2014
200 470900 ANA PAULA VALADARES ANALISTA DO MP ATIVO PITANGUI - COMARCA; PITANGUI-PJ-01PJ 6.265,58 375,93 0,00 0,00 0,00 0,00 6.641,51 730,57 700,52 0,00 1.431,09 5.210,42 692,00 0,00 28/02/2014
201 447000 ANA PAULA VALENTIM DE ARAUJO ANALISTA DO MP ATIVO BELO HORIZONTE - COMARCA; COMB CRIMES PRAT POR AG POL MUN-SECRETARIA 6.793,15 407,59 0,00 0,00 0,00 0,00 7.200,74 792,08 936,23 0,00 1.728,31 5.472,43 1.232,15 71,06 28/02/2014
202 604200 ANA PAULA VIANA E SILVA OFICIAL DO MP ATIVO BELO HORIZONTE - COMARCA; BH-17PJ PATRIMONIO PUBLICO-SECRETARIA 3.147,52 0,00 0,00 0,00 0,00 0,00 3.147,52 346,23 85,16 0,00 431,39 2.716,13 457,00 0,00 28/02/2014
203 505400 ANA PAULA VIEIRA SOUTO OFICIAL DO MP ATIVO ALMENARA - COMARCA; COORD. PAT. PUBLICO-MUCURI/JEQUIT - ALMENARA 3.250,03 650,01 0,00 0,00 0,00 0,00 3.900,04 429,00 158,67 0,00 587,67 3.312,37 1.046,75 17,74 28/02/2014
204 280200 ANA RACHEL BRANDAO LADEIRA ROLAND COORDENADOR/ANALISTA ATIVO BELO HORIZONTE - COMARCA; ASSESSORIA JURIDICO-ADMINISTRATIVA 0,00 2.670,79 13.353,95 0,00 0,00 0,00 16.024,74 1.275,57 3.229,87 0,00 4.505,44 11.519,30 457,00 0,00 28/02/2014
205 601200 ANA REGINA RIBEIRO ANALISTA DO MP ATIVO BELO HORIZONTE - COMARCA; EXTINTA - DIVISAO DE SERVICOS GERAIS 4.404,59 0,00 0,00 0,00 0,00 0,00 4.404,59 484,50 279,06 0,00 763,56 3.641,03 457,00 0,00 28/02/2014
206 384700 ANA RODRIGUES PEREIRA MARRA ANALISTA DO MP ATIVO COROMANDEL - COMARCA; COROMANDEL-PJ-SECRETARIA 5.876,69 587,67 0,00 0,00 0,00 0,00 6.464,36 765,94 828,64 0,00 1.594,58 4.869,78 457,00 498,69 28/02/2014
207 232700 ANA SILVIA SEMBLANO NAKAMURA ASSESSOR/OFICIAL ATIVO BELO HORIZONTE - COMARCA; CENT DE APOIO TEC-SETOR DEF,IDOSO E INFANC 0,00 1.594,68 7.973,40 0,00 0,00 0,00 9.568,08 827,06 1.577,63 0,00 2.404,69 7.163,39 4.002,29 324,98 28/02/2014
208 326700 ANA TERCIA DE FATIMA COSTA OFICIAL DO MP ATIVO NOVA SERRANA - COMARCA; NOVA SERRANA-PJ-01PJ 5.691,44 569,14 0,00 0,00 0,00 688,66 6.949,24 688,66 846,09 0,00 1.534,75 5.414,49 457,00 0,00 28/02/2014
209 602100 ANACLETO FRANCISCO MARCIER PIMENTA OFICIAL DO MP ATIVO SÃO JOÃO DEL REI - COMARCA; SAO JOAO DEL REI-PJ-01PJ 2.859,08 0,00 0,00 0,00 0,00 0,00 2.859,08 314,50 56,76 0,00 371,26 2.487,82 457,00 0,00 28/02/2014
210 310400 ANADEJE DO CARMO DINIZ ARAUJO OFICIAL DO MP ATIVO BELO HORIZONTE - COMARCA; CENT DE ATENDIMENTO E ORIENTACAO DE PESSOAL 5.691,44 569,14 0,00 0,00 0,00 0,00 6.260,58 688,66 706,13 0,00 1.394,79 4.865,79 457,00 0,00 28/02/2014
211 337000 ANAILDES MARIA MENDES OFICIAL DO MP ATIVO JANAÚBA - COMARCA; JANAUBA-PJ-02PJ 4.696,06 1.577,93 0,00 0,00 0,00 0,00 6.273,99 568,22 742,94 0,00 1.311,16 4.962,83 457,00 0,00 28/02/2014
212 192900 ANATALIA CERQUEIRA LIMA PERES OFICIAL DO MP ATIVO UBERABA - COMARCA; COORD REG SAUDE MACROR SANIT TRIANGULO SUL 5.691,44 1.138,29 0,00 0,00 0,00 0,00 6.829,73 751,27 845,43 0,00 1.596,70 5.233,03 4.002,29 324,98 28/02/2014
213 377400 ANDEIRSON DA MATTA BARBOSA ANALISTA DO MP ATIVO POUSO ALEGRE - COMARCA; POUSO ALEGRE-PJ-01PJ 6.469,61 646,96 0,00 0,00 0,00 0,00 7.116,57 782,82 915,63 0,00 1.698,45 5.418,12 4.002,29 324,98 28/02/2014
214 317400 ANDERSON DA SILVA BICALHO OFICIAL DO MP ATIVO CONTAGEM - COMARCA; COORD REG DEF ORDEM ECONOMICA TRIB CONTAGEM 5.169,86 516,99 0,00 0,00 0,00 0,00 5.686,85 625,55 417,45 0,00 1.043,00 4.643,85 927,00 0,00 28/02/2014
215 506900 ANDERSON DE SOUZA DAMIANI ANALISTA DO MP ATIVO BELO HORIZONTE - COMARCA; DIRETORIA DE PAGAMENTO DE PESSOAL-DPAG 5.511,94 1.102,39 0,00 0,00 0,00 0,00 6.614,33 727,58 792,71 0,00 1.520,29 5.094,04 880,31 38,80 28/02/2014
216 410000 ANDERSON DE SOUZA NETO ASSESSOR ATIVO BELO HORIZONTE - COMARCA; DIRETORIA DE ADMINISTRACAO FINANCEIRA 0,00 0,00 3.938,84 0,00 0,00 0,00 3.938,84 469,11 280,55 0,00 749,66 3.189,18 850,55 29,52 28/02/2014
217 181900 ANDERSON FLAVIO DE OLIVEIRA OFICIAL DO MP ATIVO ITAGUARA - COMARCA; ITAGUARA-PJ-SECRETARIA 6.793,15 1.358,63 0,00 0,00 0,00 0,00 8.151,78 896,70 1.169,00 0,00 2.065,70 6.086,08 457,00 0,00 28/02/2014
218 119500 ANDERSON FUNGHI DE AZEVEDO ROCHA DIRETOR/OFICIAL ATIVO BELO HORIZONTE - COMARCA; SUPRIN DE PLANEJAMENTO E COORDENACAO 0,00 9.347,78 13.353,95 0,00 0,00 0,00 22.701,73 1.750,08 4.787,29 0,00 6.537,37 16.164,36 4.002,29 324,98 28/02/2014
219 333200 ANDERSON JOSE DE FREITAS OFICIAL DO MP ATIVO IPATINGA - COMARCA; IPATINGA-PJ-07PJ 4.696,06 1.577,93 0,00 0,00 0,00 0,00 6.273,99 568,22 644,10 0,00 1.212,32 5.061,67 457,00 0,00 28/02/2014
220 462100 ANDERSON LUIZ GUIMARAES CARDOSO ANALISTA DO MP ATIVO BARBACENA - COMARCA; BARBACENA-PJ-SECRETARIA 6.265,58 375,93 0,00 0,00 0,00 0,00 6.641,51 730,57 799,36 0,00 1.529,93 5.111,58 457,00 0,00 28/02/2014
221 429700 ANDERSON MELO DE SOUZA OFICIAL DO MP ATIVO BELO HORIZONTE - COMARCA; DIRET DE ESTAGIOS E CONVENIOS ACADEMICOS 3.694,41 221,66 0,00 0,00 0,00 0,00 3.916,07 430,77 187,77 0,00 618,54 3.297,53 457,00 0,00 28/02/2014
222 545600 ANDERSON MENDES PROCOPIO FERREIRA ANALISTA DO MP ATIVO BARBACENA - COMARCA; BARBACENA-PJ-SECRETARIA 4.404,59 0,00 0,00 0,00 0,00 0,00 4.404,59 484,50 279,06 0,00 763,56 3.641,03 457,00 0,00 28/02/2014
223 519900 ANDERSON MOREIRA DOEHLER ANALISTA DO MP ATIVO NOVO CRUZEIRO - COMARCA; NOVO CRUZEIRO-PJ-UNPJ 5.511,94 1.102,39 0,00 0,00 0,00 0,00 6.614,33 837,80 1.031,55 0,00 1.869,35 4.744,98 3.335,69 1.314,10 28/02/2014
224 103000 ANDERSON TADEU DE DEUS ASSESSOR ATIVO BELO HORIZONTE - COMARCA; EXTINTA - DIVISAO DE TRANSPORTES 0,00 1.969,42 3.938,84 0,00 0,00 0,00 5.908,26 482,93 791,49 0,00 1.274,42 4.633,84 457,00 0,00 28/02/2014
225 309200 ANDITYAS SOARES DE MOURA COSTA MATOS ANALISTA DO MP ATIVO BELO HORIZONTE - COMARCA; GABINETE DE PROCURADOR DE JUSTIÇA - SALA 909 8.233,02 1.646,60 0,00 0,00 0,00 0,00 9.879,62 1.086,76 1.591,89 0,00 2.678,65 7.200,97 457,00 0,00 28/02/2014
226 338701 ANDRE BARBUTO VITORINO ANALISTA DO MP ATIVO AIMORÉS - COMARCA; AIMORES-PJ-UNPJ 7.014,37 701,44 0,00 0,00 0,00 0,00 7.715,81 848,74 1.062,29 0,00 1.911,03 5.804,78 457,00 0,00 28/02/2014
227 519200 ANDRE BORJA LANA ANALISTA DO MP ATIVO BELO HORIZONTE - COMARCA; DIRETORIA DE IMPRENSA 5.511,94 0,00 0,00 0,00 1.837,31 0,00 7.349,25 721,13 1.217,70 0,00 1.938,83 5.410,42 457,00 1.043,81 28/02/2014
228 521900 ANDRE LUIS GOMES SILVA ANALISTA DO MP ATIVO FORMIGA - COMARCA; FORMIGA-PJ-01PJ 5.511,94 0,00 0,00 0,00 0,00 0,00 5.511,94 606,31 473,48 0,00 1.079,79 4.432,15 457,00 0,00 28/02/2014
229 304300 ANDRE LUIZ AVELAR ANALISTA DO MP ATIVO BELO HORIZONTE - COMARCA; DIRETORIA DE REDES E BANCOS DE DADOS 6.265,58 626,56 0,00 0,00 0,00 0,00 6.892,14 758,14 860,70 0,00 1.618,84 5.273,30 457,00 0,00 28/02/2014
230 397400 ANDRE PATARO MYRRHA DE PAULA E SILVA ANALISTA DO MP ATIVO BELO HORIZONTE - COMARCA; ASSESSORIA JURIDICO-ADMINISTRATIVA 7.973,40 797,34 0,00 0,00 0,00 0,00 8.770,74 964,78 1.320,49 0,00 2.285,27 6.485,47 692,00 0,00 28/02/2014
231 548500 ANDRE VINICIUS CARVALHO MEIRA ANALISTA DO MP ATIVO JUIZ DE FORA - COMARCA; JUIZ DE FORA-PJ-19PJ 4.404,59 0,00 0,00 0,00 0,00 0,00 4.404,59 484,50 279,06 0,00 763,56 3.641,03 457,00 0,00 28/02/2014
232 297200 ANDRE WILLE ROSARIO ANALISTA DO MP ATIVO BELO HORIZONTE - COMARCA; ASSESSORIA ESPECIAL DO PGJ 9.663,38 966,34 0,00 0,00 0,00 0,00 10.629,72 1.169,27 1.627,21 0,00 2.796,48 7.833,24 4.472,29 324,98 28/02/2014
233 423600 ANDREA COSTA GUALBERTO ANALISTA DO MP ATIVO GOVERNADOR VALADARES - COMARCA; COORD REG PJ DEF EDU DIR CRIANCA ADOL RIODOCE 6.469,61 3.234,80 0,00 0,00 0,00 0,00 9.704,41 1.168,49 1.677,45 0,00 2.845,94 6.858,47 4.237,29 1.345,15 28/02/2014
234 198600 ANDREA CRISTINA ANDRADE COSTA E SOUZA OFICIAL DO MP ATIVO MONTES CLAROS - COMARCA; MONTES CLAROS-PJ-SECRETARIA 8.501,02 1.700,20 0,00 0,00 0,00 0,00 10.201,22 1.122,13 1.571,76 0,00 2.693,89 7.507,33 4.002,29 324,98 28/02/2014
235 467300 ANDREA DE CASSIA PENNA ALVERNAZ ANALISTA DO MP ATIVO PONTE NOVA - COMARCA; PONTE NOVA-PJ-SECRETARIA 6.265,58 375,93 0,00 0,00 0,00 0,00 6.641,51 730,57 749,94 0,00 1.480,51 5.161,00 692,00 0,00 28/02/2014
236 308000 ANDREA DE CASSIA SANTOS OLIVEIRA ANALISTA DO MP ATIVO BELO HORIZONTE - COMARCA; ASSESS TECNICO-JUR JUNTO AS PROC. DE JUST 9.358,72 935,87 0,00 0,00 0,00 0,00 10.294,59 1.132,40 1.644,03 0,00 2.776,43 7.518,16 692,00 0,00 28/02/2014
237 349500 ANDREA DE OLIVEIRA OFICIAL DO MP ATIVO IGUATAMA - COMARCA; IGUATAMA-PJ-UNPJ 5.511,94 551,19 0,00 0,00 0,00 0,00 6.063,13 666,94 608,38 0,00 1.275,32 4.787,81 692,00 0,00 28/02/2014
238 254700 ANDREA EMISE REIS DE AZEVEDO COORDENADOR/OFICIAL ATIVO BELO HORIZONTE - COMARCA; COMB CRIMES PRAT POR AG POL MUN-SECRETARIA 0,00 1.812,72 9.063,59 0,00 0,00 0,00 10.876,31 827,06 1.937,39 0,00 2.764,45 8.111,86 457,00 0,00 28/02/2014
239 287900 ANDREA FERNANDES PENA OFICIAL DO MP ATIVO MONTES CLAROS - COMARCA; MONTES CLAROS-PJ-09PJ 6.068,01 1.213,60 0,00 0,00 0,00 0,00 7.281,61 800,98 857,18 0,00 1.658,16 5.623,45 4.002,29 324,98 28/02/2014
240 300800 ANDREA FERREIRA ANALISTA DO MP ATIVO LAVRAS - COMARCA; LAVRAS-PJ-04PJ 8.501,02 850,10 0,00 0,00 0,00 0,00 9.351,12 1.028,62 1.462,54 0,00 2.491,16 6.859,96 457,00 0,00 28/02/2014
241 316700 ANDREA FRANCISCA DIAS DE SOUZA ASSESSOR ATIVO BELO HORIZONTE - COMARCA; BH-14PJ DEFESA CONSUMIDOR-GAB 110PJ 0,00 0,00 2.359,08 0,00 0,00 0,00 2.359,08 182,67 63,43 0,00 246,10 2.112,98 2.816,08 58,98 28/02/2014
242 395100 ANDREA LANNA MENDES NOVAIS ANALISTA DO MP ATIVO BELO HORIZONTE - COMARCA; PROMOT ESTADUAL DE DEF PATRI CULT E TUR DE MG 7.973,40 797,34 0,00 0,00 0,00 0,00 8.770,74 964,78 1.271,07 0,00 2.235,85 6.534,89 927,00 0,00 28/02/2014
243 67300 ANDREA LEAO MAGALHAES ROQUE ASSESSOR ATIVO BELO HORIZONTE - COMARCA; COORD DE CONT. DA CONSTITUCIONALIDADE-SEC 0,00 3.986,70 7.973,40 0,00 0,00 0,00 11.960,10 482,93 2.356,91 0,00 2.839,84 9.120,26 457,00 0,00 28/02/2014
244 335700 ANDREA LOPES PEREIRA ANALISTA DO MP ATIVO GOVERNADOR VALADARES - COMARCA; COORD REG DO MA DA BACIA DO RIO DOCE 9.358,72 935,87 0,00 0,00 3.431,53 0,00 13.726,12 1.132,40 2.637,12 0,00 3.769,52 9.956,60 457,00 0,00 28/02/2014
245 389200 ANDREA TUPINI DOS SANTOS TRISTAO DA ROCHA OFICIAL DO MP ATIVO DIVINO - COMARCA; DIVINO-PJ-UNPJ 3.814,70 381,47 0,00 0,00 0,00 0,00 4.196,17 461,58 198,20 0,00 659,78 3.536,39 4.002,29 177,26 28/02/2014
246 419000 ANDREIA BARBOSA DE ALMEIDA ANALISTA DO MP ATIVO BELO HORIZONTE - COMARCA; PROC. JUSTICA DE HABEAS CORPUS 7.014,37 701,44 0,00 0,00 0,00 0,00 7.715,81 848,74 1.062,29 0,00 1.911,03 5.804,78 457,00 0,00 28/02/2014
247 281501 ANDREIA CARLA COSTA FILGUEIRAS ANALISTA DO MP ATIVO VISCONDE DO RIO BRANCO - COMARCA; VISCONDE DO RIO BRANCO-PJ-02PJ 7.014,37 701,44 0,00 0,00 0,00 0,00 7.715,81 848,74 963,45 0,00 1.812,19 5.903,62 457,00 0,00 28/02/2014
248 477100 ANDREIA DE ALMEIDA RIBEIRO MELO OFICIAL DO MP ATIVO CONTAGEM - COMARCA; CONTAGEM-PJ-07PJ 3.694,41 221,66 0,00 0,00 0,00 0,00 3.916,07 430,77 187,77 0,00 618,54 3.297,53 692,00 0,00 28/02/2014
249 424000 ANDREIA LUCIA COUTO ANALISTA DO MP ATIVO BELO HORIZONTE - COMARCA; BH-18PJ DIREITOS HUMANOS 7.014,37 701,44 0,00 0,00 0,00 0,00 7.715,81 904,06 1.153,62 0,00 2.057,68 5.658,13 692,00 502,90 28/02/2014
250 370100 ANDREIA MARIA SILVA PINTO OFICIAL DO MP ATIVO CORONEL FABRICIANO - COMARCA; CORONEL FABRICIANO-PJ-01PJ 5.169,86 516,99 0,00 0,00 1.895,62 0,00 7.582,47 625,55 1.087,00 0,00 1.712,55 5.869,92 457,00 0,00 28/02/2014
251 382100 ANDREIA NATALI PEREIRA OFICIAL DO MP ATIVO PRADOS - COMARCA; PRADOS-PJ-UNPJ 5.006,87 500,69 0,00 0,00 0,00 0,00 5.507,56 605,83 521,83 0,00 1.127,66 4.379,90 457,00 0,00 28/02/2014
252 198700 ANDREIA NUNES DURAES OFICIAL DO MP ATIVO MONTES CLAROS - COMARCA; MONTES CLAROS-PJ-06PJ 8.501,02 1.700,20 0,00 0,00 0,00 0,00 10.201,22 1.122,13 1.621,18 0,00 2.743,31 7.457,91 4.002,29 324,98 28/02/2014
253 275200 ANDREIA RIBEIRO FREITAS OFICIAL DO MP ATIVO VIÇOSA - COMARCA; VICOSA-PJ-03PJ 6.265,58 1.253,12 0,00 0,00 0,00 0,00 7.518,70 827,06 915,21 0,00 1.742,27 5.776,43 4.237,29 324,98 28/02/2014
254 352200 ANDREIA XAVIER PEREIRA OFICIAL DO MP ATIVO CLÁUDIO - COMARCA; CLAUDIO-PJ-UNPJ 5.511,94 551,19 0,00 0,00 0,00 0,00 6.063,13 666,94 657,80 0,00 1.324,74 4.738,39 457,00 0,00 28/02/2014
255 383700 ANDRESSA EDUARDO SOUZA ANALISTA DO MP ATIVO OURO BRANCO - COMARCA; OURO BRANCO-PJ-SECRETARIA 7.973,40 797,34 0,00 0,00 0,00 0,00 8.770,74 964,78 1.320,49 0,00 2.285,27 6.485,47 4.002,29 324,98 28/02/2014
256 426200 ANDRESSA MENDES CASAL ASSESSOR/OFICIAL ATIVO BELO HORIZONTE - COMARCA; BH-12PJ JUIZO CRIMINAL-SECRETARIA 0,00 626,56 6.265,58 0,00 2.297,38 0,00 9.189,52 511,68 1.629,18 0,00 2.140,86 7.048,66 457,00 250,62 28/02/2014
257 390100 ANDRESSA RIBEIRO PUCCI OFICIAL DO MP ATIVO UBERABA - COMARCA; UBERABA-PJ-14PJ 4.131,19 413,12 0,00 0,00 0,00 0,00 4.544,31 499,87 307,04 0,00 806,91 3.737,40 4.002,29 265,90 28/02/2014
258 462500 ANDREZA APARECIDA COSTA E SILVA ANALISTA DO MP ATIVO CONSELHEIRO LAFAIETE - COMARCA; CONSELHEIRO LAFAIETE-PJ-02PJ 6.265,58 375,93 0,00 0,00 0,00 0,00 6.641,51 730,57 799,36 0,00 1.529,93 5.111,58 457,00 0,00 28/02/2014
259 537800 ANDREZZA LUZIA DE OLIVEIRA ALVES ANALISTA DO MP ATIVO PATOS DE MINAS - COMARCA; COORD REG PJ DEF EDU DIR CRI ADO AL PAR NOROE 4.404,59 0,00 0,00 0,00 0,00 0,00 4.404,59 484,50 199,07 0,00 683,57 3.721,02 457,00 0,00 28/02/2014
260 491600 ANE PATRICIA RIBEIRO ANALISTA DO MP ATIVO SETE LAGOAS - COMARCA; SETE LAGOAS-PJ-10PJ 6.068,01 0,00 0,00 0,00 0,00 0,00 6.068,01 667,48 609,58 0,00 1.277,06 4.790,95 692,00 0,00 28/02/2014
261 465800 ANELISE GAMA ASSESSOR ATIVO BELO HORIZONTE - COMARCA; BH-18PJ VIOLENCIA DOMESTICA-SECRETARIA 0,00 0,00 3.938,84 0,00 0,00 0,00 3.938,84 482,93 277,44 0,00 760,37 3.178,47 457,00 0,00 28/02/2014
262 535200 ANELIZE FERNANDA ALVES VILARINHO OFICIAL DO MP ATIVO CAPINÓPOLIS - COMARCA; CAPINOPOLIS-PJ-UNPJ 2.859,08 0,00 0,00 0,00 0,00 0,00 2.859,08 341,46 79,38 0,00 420,84 2.438,24 583,81 245,10 28/02/2014
263 197200 ANGELA COELHO SALDANHA OFICIAL DO MP ATIVO PARÁ DE MINAS - COMARCA; PARA DE MINAS-PJ-03PJ 8.501,02 2.550,31 0,00 0,00 0,00 0,00 11.051,33 1.215,65 1.878,66 0,00 3.094,31 7.957,02 990,97 48,95 28/02/2014
264 307400 ANGELA CRISTINA GONCALVES MUNIZ ANALISTA DO MP ATIVO UBERLÂNDIA - COMARCA; UBERLANDIA-PJ-SEC FAMILIA 9.663,38 1.932,68 0,00 0,00 0,00 0,00 11.596,06 1.275,57 1.962,56 0,00 3.238,13 8.357,93 692,00 0,00 28/02/2014
265 191800 ANGELA MARIA DE OLIVEIRA OFICIAL DO MP ATIVO GUARANÉSIA - COMARCA; GUARANESIA-PJ-SECRETARIA 8.501,02 3.400,41 0,00 0,00 0,00 0,00 11.901,43 1.309,16 2.037,30 0,00 3.346,46 8.554,97 457,00 0,00 28/02/2014
266 69900 ANGELA MARIA DE PAULA CUNHA OFICIAL DO MP ATIVO JUIZ DE FORA - COMARCA; JUIZ DE FORA-PJ-11PJ 9.358,72 4.679,36 0,00 0,00 0,00 0,00 14.038,08 1.544,19 2.510,83 0,00 4.055,02 9.983,06 4.002,29 324,98 28/02/2014
267 497400 ANGELA MARIA HENRIQUES ANALISTA DO MP ATIVO BELO HORIZONTE - COMARCA; COORD REG BACIAS RIO VELHAS E PARAOPEBA 5.511,94 0,00 0,00 0,00 0,00 0,00 5.511,94 606,31 522,90 0,00 1.129,21 4.382,73 927,00 0,00 28/02/2014
268 260700 ANGELICA CRISTINA AZEVEDO MOREIRA MOUCO OFICIAL DO MP ATIVO UBÁ - COMARCA; UBA-PJ-02PJ 6.578,93 1.315,79 0,00 0,00 0,00 0,00 7.894,72 868,42 1.056,66 0,00 1.925,08 5.969,64 4.002,29 324,98 28/02/2014
269 334600 ANGELICA PANISSA DE FREITAS OFICIAL DO MP ATIVO GUAXUPÉ - COMARCA; GUAXUPE-PJ-02PJ 5.876,69 1.175,34 0,00 0,00 0,00 0,00 7.052,03 775,72 899,84 0,00 1.675,56 5.376,47 3.963,74 321,45 28/02/2014
270 521100 ANGELICA SALES MOREIRA OFICIAL DO MP ATIVO BELO HORIZONTE - COMARCA; BH-02PJ FAMILIA-SECRETARIA 3.250,03 0,00 0,00 0,00 0,00 0,00 3.250,03 357,50 98,85 0,00 456,35 2.793,68 457,00 0,00 28/02/2014
271 466500 ANGELLO MARQUES AGRELLI ANALISTA DO MP ATIVO MAR DE ESPANHA - COMARCA; MAR DE ESPANHA-PJ-UNPJ 6.265,58 375,93 0,00 0,00 0,00 0,00 6.641,51 730,57 799,36 0,00 1.529,93 5.111,58 585,00 0,00 28/02/2014
272 363300 ANGELO VERDOLIN HENRIQUES ANALISTA DO MP ATIVO SETE LAGOAS - COMARCA; SETE LAGOAS-PJ-04PJ 8.501,02 1.700,20 0,00 0,00 0,00 0,00 10.201,22 1.122,13 1.670,60 0,00 2.792,73 7.408,49 692,00 0,00 28/02/2014
273 250900 ANISIO APARECIDO SANTOS OFICIAL DO MP ATIVO CONTAGEM - COMARCA; CONTAGEM-PJ-19PJ 4.696,06 939,21 0,00 0,00 0,00 0,00 5.635,27 619,88 158,11 0,00 777,99 4.857,28 2.546,98 104,50 28/02/2014
274 253400 ANNA FLAVIA LEHMAN BATTAGLIA ASSESSOR ESPECIAL ATIVO BELO HORIZONTE - COMARCA; GABINETE DO PROCURADOR-GERAL DE JUSTICA 18.939,65 3.787,93 0,00 0,00 0,00 0,00 22.727,58 1.317,09 4.913,47 0,00 6.230,56 16.497,02 4.237,29 324,98 28/02/2014
275 447600 ANNGELUCE ALCANTARA DE CAMPOS OFICIAL DO MP ATIVO DIVINÓPOLIS - COMARCA; DIVINOPOLIS-PJ-10PJ 3.694,41 369,44 0,00 0,00 0,00 0,00 4.063,85 545,35 365,55 0,00 910,90 3.152,95 975,56 1.056,94 28/02/2014
276 119600 ANSELMO BORGES PARREIRAS OFICIAL DO MP ATIVO BONFIM - COMARCA; BONFIM-PJ-UNPJ 5.338,12 3.736,69 0,00 0,00 0,00 0,00 9.074,81 998,23 1.345,49 0,00 2.343,72 6.731,09 457,00 0,00 28/02/2014
277 194800 ANTONIA MARIA AFONSO DE SOUZA OFICIAL DO MP ATIVO ITAPAGIPE - COMARCA; ITAPAGIPE-PJ-SECRETARIA 8.233,02 4.116,51 0,00 0,00 0,00 0,00 12.349,53 1.358,45 2.146,98 0,00 3.505,43 8.844,10 457,00 0,00 28/02/2014
278 332400 ANTONIA MARIA MAMEDE OFICIAL DO MP ATIVO UBERLÂNDIA - COMARCA; COORD REG PP TRIANGULO MINEIRO UBERLANDIA 5.511,94 551,19 0,00 0,00 0,00 0,00 6.063,13 666,94 608,38 0,00 1.275,32 4.787,81 457,00 0,00 28/02/2014
279 401600 ANTONIO CARLOS GUEDES AROUCA ANALISTA DO MP ATIVO BELO HORIZONTE - COMARCA; EXTINTA - CAO-IDOSOS PESSOAS DEFIC-SEC ADM 7.014,37 701,44 0,00 0,00 0,00 0,00 7.715,81 848,74 1.062,29 0,00 1.911,03 5.804,78 457,00 0,00 28/02/2014
280 7100 ANTONIO DO NASCIMENTO OLIVEIRA ASSESSOR ATIVO BELO HORIZONTE - COMARCA; GAECO - SECRETARIA 0,00 2.123,17 2.359,08 0,00 1.494,08 0,00 5.976,33 482,93 504,76 0,00 987,69 4.988,64 457,00 0,00 28/02/2014
281 59400 ANTONIO GOBIRA DE ALCANTARA AGENTE DO MP ATIVO BELO HORIZONTE - COMARCA; EXTINTA - DIVISAO DE TRANSPORTES 5.169,86 4.135,89 0,00 0,00 0,00 0,00 9.305,75 1.409,72 2.310,48 0,00 3.720,20 5.585,55 457,00 3.509,88 28/02/2014
282 333900 ANTONIO GONCALVES DE SOUZA FILHO OFICIAL DO MP ATIVO BELO HORIZONTE - COMARCA; ARQUIVO DO MINISTERIO PUBLICO DO ESTADO DE MG 5.511,94 551,19 0,00 0,00 0,00 0,00 6.063,13 666,94 657,80 0,00 1.324,74 4.738,39 2.974,84 230,80 28/02/2014
283 176100 ANTONIO MARCELO CAMPOS CAMPANELLA OFICIAL DO MP ATIVO BELO HORIZONTE - COMARCA; SUPERINTENDENCIA DE RECURSOS HUMANOS 8.501,02 2.550,31 0,00 0,00 0,00 0,00 11.051,33 1.215,65 1.878,66 0,00 3.094,31 7.957,02 692,00 0,00 28/02/2014
284 119800 ANTONIO MARCIANO DE PAULA AGENTE DO MP ATIVO BELO HORIZONTE - COMARCA; DIVISAO DE MANUTENCAO PREDIAL 4.131,19 3.718,08 0,00 0,00 0,00 863,42 8.712,69 863,42 1.184,14 0,00 2.047,56 6.665,13 457,00 0,00 28/02/2014
285 321001 ANTONIO OLINTO VIEIRA MACHADO ANALISTA DO MP ATIVO BELO HORIZONTE - COMARCA; CENTRAL DE APOIO TECN-SETOR DE MEIO AMBIENTE 7.973,40 797,34 0,00 0,00 0,00 0,00 8.770,74 964,78 1.172,23 0,00 2.137,01 6.633,73 4.002,29 324,98 28/02/2014
286 356200 ANTONIO PAULA DA SILVA OFICIAL DO MP ATIVO JUIZ DE FORA - COMARCA; JUIZ DE FORA-PJ-20PJ 4.696,06 939,21 0,00 0,00 0,00 0,00 5.635,27 619,88 553,08 0,00 1.172,96 4.462,31 457,00 0,00 28/02/2014
287 119900 ANTONIO RODRIGUES DE PINHO OFICIAL DO MP ATIVO GUANHÃES - COMARCA; GUANHAES-PJ-01PJ 8.233,02 4.116,51 0,00 0,00 0,00 0,00 12.349,53 1.358,45 2.097,56 0,00 3.456,01 8.893,52 4.002,29 324,98 28/02/2014
288 373300 ANTONIO SERGIO ANANIAS OFICIAL DO MP ATIVO AIURUOCA - COMARCA; AIURUOCA-PJ-UNPJ 4.848,98 484,90 0,00 0,00 0,00 0,00 5.333,88 586,73 384,28 0,00 971,01 4.362,87 692,00 0,00 28/02/2014
289 608100 ANTONIO SIDINEY VIEIRA LEMOS ANALISTA DO MP ATIVO PIRAPORA - COMARCA; PIRAPORA-PJ-01PJ 4.848,98 0,00 0,00 0,00 0,00 0,00 4.848,98 562,72 425,89 0,00 988,61 3.860,37 457,00 266,63 28/02/2014
290 374700 ANTONIO SILVA NETO OFICIAL DO MP ATIVO BELO HORIZONTE - COMARCA; GAECO - SECRETARIA 5.006,87 500,69 0,00 0,00 0,00 0,00 5.507,56 605,83 521,83 0,00 1.127,66 4.379,90 457,00 0,00 28/02/2014
291 413200 ANY PEREIRA SILVA ANALISTA DO MP ATIVO TRÊS PONTAS - COMARCA; TRES PONTAS-PJ-01PJ 7.014,37 701,44 0,00 0,00 0,00 0,00 7.715,81 921,49 1.125,33 0,00 2.046,82 5.668,99 4.002,29 986,38 28/02/2014
292 151401 APARECIDA DE FATIMA MENDES DE ALMEIDA ASSESSOR ATIVO JUIZ DE FORA - COMARCA; JUIZ DE FORA-PJ-SECRETARIA 0,00 0,00 3.938,84 0,00 0,00 0,00 3.938,84 469,11 280,55 0,00 749,66 3.189,18 850,55 29,52 28/02/2014
293 329300 APARECIDA MARIA MELO DE ASSIS OFICIAL DO MP ATIVO BELO HORIZONTE - COMARCA; BH-18PJ DIREITOS HUMANOS-SECRETARIA 5.876,69 587,67 0,00 0,00 0,00 0,00 6.464,36 711,08 756,00 0,00 1.467,08 4.997,28 457,00 0,00 28/02/2014
294 475300 APARECIDA MARLENE FREIRE ROSA ANALISTA DO MP ATIVO BELO HORIZONTE - COMARCA; BH-02PJ FAMILIA 6.265,58 5.012,46 0,00 0,00 0,00 0,00 11.278,04 1.240,58 1.934,15 0,00 3.174,73 8.103,31 457,00 0,00 28/02/2014
295 240300 APARECIDA PEREIRA DO NASCIMENTO OFICIAL DO MP ATIVO ITURAMA - COMARCA; ITURAMA-PJ-01PJ 6.578,93 3.289,47 0,00 0,00 0,00 0,00 9.868,40 1.085,52 1.589,14 0,00 2.674,66 7.193,74 517,00 0,00 28/02/2014
296 354500 APARECIDA VIEIRA DE CARVALHO OFICIAL DO MP ATIVO BELO HORIZONTE - COMARCA; PROCON-MG-SEC DE EDUCACAO PARA O CONSUMO 4.265,74 426,57 0,00 0,00 0,00 0,00 4.692,31 516,15 296,24 0,00 812,39 3.879,92 1.604,02 86,03 28/02/2014
297 551000 ARACELES BICALHO FELIX ANALISTA DO MP ATIVO MANHUAÇU - COMARCA; MANHUACU-PJ-02PJ 4.848,98 0,00 0,00 0,00 0,00 0,00 4.848,98 533,39 368,05 0,00 901,44 3.947,54 457,00 0,00 28/02/2014
298 286200 ARACELI MEDRADO DOS SANTOS LIMA OFICIAL DO MP ATIVO PARACATU - COMARCA; PARACATU-PJ-03PJ 4.696,06 939,21 0,00 0,00 0,00 0,00 5.635,27 619,88 553,08 0,00 1.172,96 4.462,31 3.838,16 309,94 28/02/2014
299 189000 ARAHY MARQUES SILVA OFICIAL DO MP ATIVO BELO HORIZONTE - COMARCA; BH-15PJ M AMB 16PJ HAB URB-SECRETARIA 4.696,06 939,21 0,00 0,00 0,00 0,00 5.635,27 619,88 553,08 0,00 1.172,96 4.462,31 2.546,98 191,58 28/02/2014
300 112200 ARAQUEM AUGUSTO DE MATOS AGENTE DO MP ATIVO BELO HORIZONTE - COMARCA; BH-23PJ INFRACIONAL-SEC EXP 4.696,06 3.287,25 0,00 0,00 0,00 0,00 7.983,31 878,16 979,51 0,00 1.857,67 6.125,64 692,00 0,00 28/02/2014
301 280600 ARDUINO FRATTEZI ANALISTA DO MP ATIVO BELO HORIZONTE - COMARCA; CENTRAL DE APOIO TECNICO-SETOR CONTABIL 9.663,38 1.932,68 0,00 0,00 0,00 0,00 11.596,06 1.275,57 1.913,14 0,00 3.188,71 8.407,35 4.002,29 324,98 28/02/2014
302 520200 ARIANE DE FATIMA CARVALHO ALMEIDA OFICIAL DO MP ATIVO BELO HORIZONTE - COMARCA; BH-19PJ SAUDE-SECRETARIA 129PJ 3.577,90 0,00 0,00 0,00 0,00 0,00 3.577,90 465,70 197,71 0,00 663,41 2.914,49 653,72 774,88 28/02/2014
303 537600 ARIELA FREIRE MONTIJO ANALISTA DO MP ATIVO ARCOS - COMARCA; ARCOS-PJ-01PJ 4.404,59 0,00 0,00 0,00 0,00 0,00 4.404,59 484,50 238,63 0,00 723,13 3.681,46 457,00 0,00 28/02/2014
304 182000 ARILSON ALEXANDRE MARTINS MAGALHAES OFICIAL DO MP ATIVO JOÃO MONLEVADE - COMARCA; JOAO MONLEVADE-PJ-02PJ 8.233,02 2.469,91 0,00 0,00 0,00 0,00 10.702,93 1.177,32 1.694,55 0,00 2.871,87 7.831,06 4.125,30 324,98 28/02/2014
305 511000 ARISLANE CAROLINA DA SILVA ANALISTA DO MP ATIVO CAMPINA VERDE - COMARCA; CAMPINA VERDE-PJ-UNPJ 5.511,94 0,00 0,00 0,00 0,00 0,00 5.511,94 606,31 522,90 0,00 1.129,21 4.382,73 457,00 0,00 28/02/2014
306 170000 ARLEY BRITES DA SILVA ASSESSOR ATIVO BELO HORIZONTE - COMARCA; EXTINTA - DIVISÃO DE MATERIAL PERMANENTE 0,00 1.181,65 3.938,84 0,00 0,00 0,00 5.120,49 482,93 426,59 0,00 909,52 4.210,97 927,00 0,00 28/02/2014
307 120400 ARLINDO CASSIO DA CRUZ OFICIAL DO MP ATIVO SÃO GONÇALO DO SAPUCAÍ - COMARCA; SAO GONCALO DO SAPUCAI-PJ-01PJ 12.356,19 8.649,34 0,00 0,00 0,00 0,00 21.005,53 2.310,61 4.166,69 0,00 6.477,30 14.528,23 692,00 0,00 28/02/2014
308 243700 ARLINDO MARCIO LACERDA OFICIAL DO MP ATIVO CONTAGEM - COMARCA; CONTAGEM-PJ-03PJ 6.793,15 3.146,27 0,00 0,00 0,00 0,00 9.939,42 971,42 1.640,05 0,00 2.611,47 7.327,95 457,00 0,00 28/02/2014
309 392100 ARNALDO DE ANDRADE OFICIAL DO MP ATIVO DIVINÓPOLIS - COMARCA; DIVINOPOLIS-PJ-02PJ 5.006,87 1.609,01 0,00 0,00 0,00 0,00 6.615,88 605,83 826,61 0,00 1.432,44 5.183,44 457,00 0,00 28/02/2014
310 352801 ARTHUR JONAS MENDONCA E ARAUJO ANALISTA DO MP ATIVO UBERABA - COMARCA; UBERABA-PJ-12PJ 6.265,58 375,93 0,00 0,00 0,00 0,00 6.641,51 730,57 700,52 0,00 1.431,09 5.210,42 3.788,22 283,82 28/02/2014
311 302100 AUGUSTO ROUSSEAU DE CASTRO ANALISTA DO MP ATIVO CATAGUASES - COMARCA; CATAGUASES-PJ-02PJ 10.302,83 1.030,28 0,00 0,00 0,00 0,00 11.333,11 1.246,64 1.947,63 0,00 3.194,27 8.138,84 457,00 0,00 28/02/2014
312 540200 AUREA AVELAR OFICIAL DO MP ATIVO FERROS - COMARCA; FERROS-PJ-UNPJ 2.859,08 0,00 0,00 0,00 0,00 0,00 2.859,08 314,50 29,81 0,00 344,31 2.514,77 457,00 0,00 28/02/2014
313 183200 AURELIANO MAGELA DE REZENDE COORDENADOR/OFICIAL ATIVO BELO HORIZONTE - COMARCA; COORD DE GABINETE DO PGJ 0,00 2.060,57 10.302,83 0,00 0,00 0,00 12.363,40 1.052,49 2.284,35 0,00 3.336,84 9.026,56 4.002,29 324,98 28/02/2014
314 436800 BARBARA ROCHA LADEIA COLEN OFICIAL DO MP ATIVO BELO HORIZONTE - COMARCA; ASSESS TECNICO-JUR JUNTO AS PROC. DE JUST 4.404,59 264,28 0,00 0,00 0,00 0,00 4.668,87 513,58 331,98 0,00 845,56 3.823,31 457,00 0,00 28/02/2014
315 546500 BARBARA ZACARONI GOULART OFICIAL DO MP ATIVO BETIM - COMARCA; BETIM-PJ-08PJ 2.859,08 0,00 0,00 0,00 0,00 0,00 2.859,08 314,50 56,76 0,00 371,26 2.487,82 457,00 0,00 28/02/2014
316 316500 BEATRIZ ABILVIA DA SILVA ANALISTA DO MP ATIVO GOVERNADOR VALADARES - COMARCA; GOVERNADOR VALADARES-PJ-13PJ 9.358,72 935,87 0,00 0,00 0,00 0,00 10.294,59 1.132,40 1.693,45 0,00 2.825,85 7.468,74 4.002,29 324,98 28/02/2014
317 311800 BEATRIZ APARECIDA SOARES GANEM OFICIAL DO MP ATIVO ITAMBACURI - COMARCA; ITAMBACURI-PJ-02PJ 6.265,58 1.253,12 0,00 0,00 0,00 0,00 7.518,70 897,94 1.023,51 0,00 1.921,45 5.597,25 692,00 644,40 28/02/2014
318 266800 BEATRIZ AUGUSTA VILACA GOMES DA SILVA OFICIAL DO MP ATIVO BELO HORIZONTE - COMARCA; BH-05PJ-JUÍZO SUCESSÕES-SEC 5.169,86 1.033,97 0,00 0,00 0,00 0,00 6.203,83 682,42 692,24 0,00 1.374,66 4.829,17 457,00 0,00 28/02/2014
319 235200 BEATRIZ BOTELHO BATISTA OFICIAL DO MP ATIVO BELO HORIZONTE - COMARCA; BH-21PJ TUTELA FUNDACOES-SECRETARIA 6.469,61 1.293,92 0,00 0,00 0,00 0,00 7.763,53 853,99 1.073,97 0,00 1.927,96 5.835,57 4.002,29 324,98 28/02/2014
320 113500 BEATRIZ DE LOURDES SOUZA ASSESSOR ATIVO BELO HORIZONTE - COMARCA; BH-02PJ FAMILIA-PROM DEC PAT 0,00 3.132,79 6.265,58 0,00 0,00 0,00 9.398,37 482,93 1.197,28 0,00 1.680,21 7.718,16 457,00 0,00 28/02/2014
321 182300 BEATRIZ PAULA SOUSA RAMOS OFICIAL DO MP ATIVO MARIANA - COMARCA; MARIANA-PJ-01PJ 8.233,02 2.469,91 0,00 0,00 0,00 0,00 10.702,93 1.177,32 1.694,55 0,00 2.871,87 7.831,06 457,00 0,00 28/02/2014
322 507000 BELCHIOR FRANKLIN AMARAL LEITE ANALISTA DO MP ATIVO BELO HORIZONTE - COMARCA; CENTRAL DE APOIO TECNICO 6.068,01 0,00 0,00 0,00 0,00 0,00 6.068,01 667,48 560,16 0,00 1.227,64 4.840,37 692,00 0,00 28/02/2014
323 345100 BENITO ELIAS RODRIGUES ANALISTA DO MP ATIVO BARBACENA - COMARCA; BARBACENA-PJ-SECRETARIA 8.501,02 850,10 0,00 0,00 0,00 0,00 9.351,12 1.116,79 1.658,70 0,00 2.775,49 6.575,63 457,00 801,50 28/02/2014
324 207300 BENITO VIEIRA DOS SANTOS ANALISTA DO MP ATIVO BELO HORIZONTE - COMARCA; COMB CRIMES PRAT POR AG POL MUN-ASSESSORIA 13.353,95 4.006,19 0,00 0,00 0,00 1.909,62 19.269,76 1.909,62 2.734,38 0,00 4.644,00 14.625,76 4.002,29 324,98 28/02/2014
325 480200 BERNADETE NUNES DOS SANTOS ANALISTA DO MP ATIVO GUANHÃES - COMARCA; GUANHAES-PJ-02PJ 6.265,58 375,93 0,00 0,00 0,00 0,00 6.641,51 780,46 881,37 0,00 1.661,83 4.979,68 457,00 453,61 28/02/2014
326 378400 BETANIA FARNESI DE SOUZA E SILVA OFICIAL DO MP ATIVO SETE LAGOAS - COMARCA; SETE LAGOAS-PJ-03PJ 5.006,87 1.001,37 0,00 0,00 0,00 0,00 6.008,24 660,91 594,95 0,00 1.255,86 4.752,38 4.237,29 324,98 28/02/2014
327 546400 BETANIA GONCALVES GONTIJO OFICIAL DO MP ATIVO PATOS DE MINAS - COMARCA; PATOS DE MINAS-PJ-02PJ 2.859,08 0,00 0,00 0,00 0,00 0,00 2.859,08 314,50 56,76 0,00 371,26 2.487,82 457,00 0,00 28/02/2014
328 387400 BETANIA MENDONCA DE ASSIS ANALISTA DO MP ATIVO BELO HORIZONTE - COMARCA; BH-08PJ JUIZADO ESPECIAL-SECRETARIA 7.973,40 797,34 0,00 0,00 0,00 0,00 8.770,74 1.014,40 1.430,89 0,00 2.445,29 6.325,45 457,00 451,08 28/02/2014
329 450300 BIANCA OLIVEIRA DE ALBUQUERQUE ANALISTA DO MP ATIVO BELO HORIZONTE - COMARCA; BH-10PJ EXECUÇÃO PENAL-SECRETARIA 6.265,58 375,93 0,00 0,00 2.213,84 0,00 8.855,35 730,57 1.408,16 0,00 2.138,73 6.716,62 457,00 0,00 28/02/2014
330 535400 BIANCA SALOTO ROSSI ANALISTA DO MP ATIVO SANTOS DUMONT - COMARCA; SANTOS DUMONT-PJ-01PJ 4.404,59 0,00 0,00 0,00 1.468,20 0,00 5.872,79 484,50 655,63 0,00 1.140,13 4.732,66 457,00 0,00 28/02/2014
331 120800 BRAS MARQUES DE SOUZA ANALISTA DO MP ATIVO BELO HORIZONTE - COMARCA; EXTINTA - SUPERINTENDENCIA ADMINISTRATIVA-SAD 18.218,36 12.752,86 0,00 0,00 0,00 0,00 30.971,22 2.924,86 5.533,41 4.381,54 12.839,81 18.131,41 4.237,29 324,99 28/02/2014
332 460900 BRENO CRISTIANO DE SOUZA REZENDE ANALISTA DO MP ATIVO ITAÚNA - COMARCA; ITAUNA-PJ-02PJ 5.169,86 310,19 0,00 0,00 0,00 0,00 5.480,05 602,81 515,09 0,00 1.117,90 4.362,15 3.745,03 301,40 28/02/2014
333 239000 BRENO VENANCIO ROMANINI OFICIAL DO MP ATIVO BELO HORIZONTE - COMARCA; BH-20PJ ORD ECON TRIBUTARIA-SECRETARIA 5.691,44 1.138,29 0,00 0,00 0,00 0,00 6.829,73 751,27 845,43 0,00 1.596,70 5.233,03 457,00 0,00 28/02/2014
334 513600 BRUNA KARLA MARTINS CARVALHO ANALISTA DO MP ATIVO GOVERNADOR VALADARES - COMARCA; GOVERNADOR VALADARES-PJ-01PJ 5.511,94 0,00 0,00 0,00 0,00 0,00 5.511,94 606,31 522,90 0,00 1.129,21 4.382,73 457,00 0,00 28/02/2014
335 415100 BRUNA MARIA SOARES OLIVEIRA COSTA RAMOS ANALISTA DO MP ATIVO UBÁ - COMARCA; COORD REG BACIA DO RIO PARAIBA DO SUL 7.014,37 701,44 0,00 0,00 0,00 0,00 7.715,81 848,74 1.062,29 0,00 1.911,03 5.804,78 457,00 0,00 28/02/2014
336 470000 BRUNA MORAES MARQUES ANALISTA DO MP ATIVO TOMBOS - COMARCA; TOMBOS-PJ-UNPJ 6.265,58 375,93 0,00 0,00 0,00 0,00 6.641,51 793,19 741,01 0,00 1.534,20 5.107,31 3.553,22 853,12 28/02/2014
337 463800 BRUNO ALVES TEIXEIRA ANALISTA DO MP ATIVO UBERLÂNDIA - COMARCA; UBERLANDIA-PJ-04PJ 6.265,58 375,93 0,00 0,00 0,00 0,00 6.641,51 730,57 799,36 0,00 1.529,93 5.111,58 3.553,22 283,82 28/02/2014
338 538500 BRUNO AUGUSTO DA SILVA OFICIAL DO MP ATIVO SANTA LUZIA - COMARCA; SANTA LUZIA-PJ-03PJ 2.859,08 0,00 0,00 0,00 0,00 0,00 2.859,08 341,46 79,38 0,00 420,84 2.438,24 457,00 245,10 28/02/2014
339 318200 BRUNO BARROS DE SOUZA OFICIAL DO MP ATIVO UBÁ - COMARCA; UBA-PJ-04PJ 5.876,69 587,67 0,00 0,00 2.154,79 0,00 8.619,15 765,94 1.042,19 0,00 1.808,13 6.811,02 457,00 498,69 28/02/2014
340 459600 BRUNO CASTELAR LUGAO MENDES OFICIAL DO MP ATIVO GOVERNADOR VALADARES - COMARCA; GOVERNADOR VALADARES-PJ-SECRETARIA 4.000,95 240,06 0,00 0,00 0,00 0,00 4.241,01 466,51 246,30 0,00 712,81 3.528,20 1.152,72 52,18 28/02/2014
341 427400 BRUNO CESAR RIBEIRO DE PAIVA ASSESSOR/ANALISTA ATIVO BELO HORIZONTE - COMARCA; ASSESS JUR DO CONS SUPERIOR DO MINISTERIO PUB 0,00 478,40 7.973,40 0,00 0,00 0,00 8.451,80 792,08 1.280,27 0,00 2.072,35 6.379,45 457,00 0,00 28/02/2014
342 380900 BRUNO CIRILO ANTUNES OFICIAL DO MP ATIVO VARGINHA - COMARCA; VARGINHA-PJ-05PJ 3.814,70 1.489,79 0,00 0,00 0,00 0,00 5.304,49 461,58 505,65 0,00 967,23 4.337,26 457,00 0,00 28/02/2014
343 329000 BRUNO DE MELO REIS ANALISTA DO MP ATIVO PATROCÍNIO - COMARCA; PATROCINIO-PJ-02PJ 9.358,72 1.871,74 0,00 0,00 0,00 0,00 11.230,46 1.235,35 1.922,51 0,00 3.157,86 8.072,60 4.002,29 324,98 28/02/2014
344 601700 BRUNO DIAS JUNQUEIRA PEREIRA ANALISTA DO MP ATIVO BELO HORIZONTE - COMARCA; ASSESS TECNICO-JUR JUNTO AS PROC. DE JUST 4.848,98 0,00 0,00 0,00 0,00 0,00 4.848,98 533,39 368,05 0,00 901,44 3.947,54 457,00 0,00 28/02/2014
345 378300 BRUNO HERDY LOPES DE OLIVEIRA ANALISTA DO MP ATIVO MANTENA - COMARCA; MANTENA-PJ-SECRETARIA 7.973,40 797,34 0,00 0,00 0,00 0,00 8.770,74 964,78 1.320,49 0,00 2.285,27 6.485,47 457,00 0,00 28/02/2014
346 529700 BRUNO JOSE BUENO DIAS OFICIAL DO MP ATIVO SÃO SEBASTIÃO DO PARAÍSO - COMARCA; SAO SEBASTIAO DO PARAISO-PJ-02PJ 2.859,08 0,00 0,00 0,00 0,00 0,00 2.859,08 314,50 43,29 0,00 357,79 2.501,29 692,00 0,00 28/02/2014
347 350100 BRUNO LAUD SERRANO DOS REIS OFICIAL DO MP ATIVO UBÁ - COMARCA; UBA-PJ-03PJ 5.006,87 1.001,37 0,00 0,00 0,00 0,00 6.008,24 660,91 545,53 0,00 1.206,44 4.801,80 4.237,29 324,98 28/02/2014
348 373800 BRUNO MARTINO DE ALBUQUERQUE ANALISTA DO MP ATIVO PONTE NOVA - COMARCA; PONTE NOVA-PJ-SECRETARIA 7.973,40 797,34 0,00 0,00 0,00 0,00 8.770,74 964,78 1.221,65 0,00 2.186,43 6.584,31 4.237,29 324,98 28/02/2014
349 470400 BRUNO NOVAIS CABRAL ANALISTA DO MP ATIVO RESPLENDOR - COMARCA; RESPLENDOR-PJ-UNPJ 6.265,58 375,93 0,00 0,00 0,00 0,00 6.641,51 730,57 799,36 0,00 1.529,93 5.111,58 457,00 0,00 28/02/2014
350 369200 BRUNO ROBERTO DIAS DE OLIVEIRA OFICIAL DO MP ATIVO BELO HORIZONTE - COMARCA; BH-23PJ CIVEL-SETOR JURIDICO 5.169,86 516,99 0,00 0,00 0,00 0,00 5.686,85 625,55 565,71 0,00 1.191,26 4.495,59 2.598,56 196,31 28/02/2014
351 547700 BRUNO ROBERTO SOUZA GONCALVES ANALISTA DO MP ATIVO PARACATU - COMARCA; PARACATU-PJ-03PJ 4.848,98 0,00 0,00 0,00 0,00 0,00 4.848,98 579,11 462,38 0,00 1.041,49 3.807,49 457,00 415,70 28/02/2014
352 546100 BRUNO SA VIEIRA ANALISTA DO MP ATIVO ERVÁLIA - COMARCA; ERVALIA-PJ-UNPJ 4.404,59 0,00 0,00 0,00 0,00 0,00 4.404,59 484,50 279,06 0,00 763,56 3.641,03 457,00 0,00 28/02/2014
353 438200 BRUNO SALES PEREIRA ANALISTA DO MP ATIVO BELO HORIZONTE - COMARCA; CENTRAL DE APOIO TECNICO-SETOR CONTABIL 6.793,15 407,59 0,00 0,00 0,00 0,00 7.200,74 792,08 886,81 0,00 1.678,89 5.521,85 457,00 0,00 28/02/2014
354 537400 BRUNO SANT'ANA CESAR ANALISTA DO MP ATIVO CONTAGEM - COMARCA; CONTAGEM-PJ-09PJ 4.404,59 0,00 0,00 0,00 0,00 0,00 4.404,59 484,50 279,06 0,00 763,56 3.641,03 457,00 0,00 28/02/2014
355 405800 CAIO FERNANDO RODRIGUES DE OLIVEIRA ANALISTA DO MP ATIVO BELO HORIZONTE - COMARCA; ASSESS TECNICO-JUR JUNTO AS PROC. DE JUST 7.014,37 701,44 0,00 0,00 0,00 0,00 7.715,81 848,74 1.062,29 0,00 1.911,03 5.804,78 4.002,29 324,98 28/02/2014
356 530000 CAIO GUEDES DE OLIVEIRA ANALISTA DO MP ATIVO DIAMANTINA - COMARCA; DIAMANTINA-PJ-03PJ 4.848,98 0,00 0,00 0,00 0,00 0,00 4.848,98 533,39 327,61 0,00 861,00 3.987,98 692,00 0,00 28/02/2014
357 491400 CAIO MIRANDA JUNQUEIRA ANALISTA DO MP ATIVO BUENO BRANDAO - COMARCA; BUENO BRANDAO-PJ-UNPJ 5.511,94 0,00 0,00 0,00 0,00 0,00 5.511,94 606,31 473,48 0,00 1.079,79 4.432,15 2.658,65 180,28 28/02/2014
358 415800 CAMILA ALVES DA SILVA ANALISTA DO MP ATIVO CAETÉ - COMARCA; CAETE-PJ-01PJ 7.014,37 701,44 0,00 0,00 0,00 0,00 7.715,81 848,74 1.062,29 0,00 1.911,03 5.804,78 457,00 0,00 28/02/2014
359 555800 CAMILA CAROLINE ROCHA CHAVES OFICIAL DO MP ATIVO SALINAS - COMARCA; SALINAS-PJ-01PJ 2.859,08 0,00 0,00 0,00 0,00 0,00 2.859,08 314,50 56,76 0,00 371,26 2.487,82 457,00 0,00 28/02/2014
360 445200 CAMILA CONDE ROCHA ANALISTA DO MP ATIVO CONTAGEM - COMARCA; CONTAGEM-PJ-08PJ 6.793,15 407,59 0,00 0,00 0,00 0,00 7.200,74 792,08 936,23 0,00 1.728,31 5.472,43 457,00 0,00 28/02/2014
361 419900 CAMILA CUNNINGHAM PIMENTA DE PADUA ANALISTA DO MP ATIVO BELO HORIZONTE - COMARCA; ASSESSORIA PSICOSSOCIAL 7.014,37 701,44 0,00 0,00 0,00 0,00 7.715,81 848,74 1.062,29 0,00 1.911,03 5.804,78 457,00 0,00 28/02/2014
362 507700 CAMILA ELIZABETH RODRIGUES ANALISTA DO MP ATIVO BELO HORIZONTE - COMARCA; BH-02PJ FAMILIA 6.068,01 0,00 0,00 0,00 0,00 0,00 6.068,01 667,48 659,00 0,00 1.326,48 4.741,53 457,00 0,00 28/02/2014
363 372700 CAMILA FONSECA LIMONGE ANALISTA DO MP ATIVO BETIM - COMARCA; BETIM-PJ-01PJ 7.973,40 797,34 0,00 0,00 0,00 0,00 8.770,74 964,78 1.320,49 0,00 2.285,27 6.485,47 4.002,29 324,98 28/02/2014
364 409800 CAMILA GONCALVES COSTA RIBEIRO ANALISTA DO MP ATIVO INHAPIM - COMARCA; INHAPIM-PJ-02PJ 7.014,37 701,44 0,00 0,00 2.571,94 0,00 10.287,75 848,74 1.720,16 0,00 2.568,90 7.718,85 692,00 0,00 28/02/2014
365 335000 CAMILA GONTIJO DE PAIVA ANALISTA DO MP ATIVO BELO HORIZONTE - COMARCA; COORD DE CONTROLE DA CONSTITUCIONALIDADE 9.063,59 906,36 0,00 0,00 3.323,32 0,00 13.293,27 1.096,69 2.478,49 0,00 3.575,18 9.718,09 457,00 0,00 28/02/2014
366 547800 CAMILA MATTARELLI DE ABREU E SILVA ANALISTA DO MP ATIVO BELO HORIZONTE - COMARCA; DIR ANALISES TECNOLOGIA INTELIGENCIA 4.404,59 0,00 0,00 0,00 0,00 0,00 4.404,59 484,50 279,06 0,00 763,56 3.641,03 457,00 0,00 28/02/2014
367 430000 CANDIDA MARINA COSTA ANALISTA DO MP ATIVO BELO HORIZONTE - COMARCA; DIVISAO DE DOCUMENTACAO JURIDICA 6.793,15 407,59 0,00 0,00 0,00 0,00 7.200,74 792,08 936,23 0,00 1.728,31 5.472,43 457,00 0,00 28/02/2014
368 380400 CARINA DIAS FACANHA DE SOUZA ANALISTA DO MP ATIVO SANTA RITA DO SAPUCAÍ - COMARCA; SANTA RITA DO SAPUCAI-PJ-SECRETARIA 7.973,40 797,34 0,00 0,00 0,00 0,00 8.770,74 964,78 1.320,49 0,00 2.285,27 6.485,47 457,00 0,00 28/02/2014
369 255000 CARLA ADRIANA DE MENEZES ASSESSOR/OFICIAL ATIVO BELO HORIZONTE - COMARCA; CENT DE APOIO TEC-SETOR DEF,IDOSO E INFANC 0,00 1.253,12 6.265,58 0,00 0,00 0,00 7.518,70 827,06 1.014,05 0,00 1.841,11 5.677,59 4.002,29 324,98 28/02/2014
370 425100 CARLA ADRIANA DINIZ AMARAL OFICIAL DO MP ATIVO CONTAGEM - COMARCA; CONTAGEM-PJ-08PJ 4.848,98 484,90 0,00 0,00 0,00 0,00 5.333,88 586,73 429,90 0,00 1.016,63 4.317,25 457,00 0,00 28/02/2014
371 508100 CARLA ALESSANDRA FONSECA ANALISTA DO MP ATIVO BELO HORIZONTE - COMARCA; CAO-ORDEM ECONOMICA E TRIBUTARIA-SECRETARIA 6.068,01 0,00 0,00 0,00 0,00 0,00 6.068,01 667,48 659,00 0,00 1.326,48 4.741,53 457,00 0,00 28/02/2014
372 607100 CARLA ANGELICA DIAS MIRANDA OFICIAL DO MP ATIVO JABOTICATUBAS - COMARCA; JABOTICATUBAS-PJ-UNPJ 3.147,52 0,00 0,00 0,00 0,00 0,00 3.147,52 361,03 44,57 0,00 405,60 2.741,92 1.162,00 134,61 28/02/2014
373 351500 CARLA APARECIDA MENDES RAMIRIO OFICIAL DO MP ATIVO PASSOS - COMARCA; PASSOS-PJ-07PJ 5.169,86 516,99 0,00 0,00 1.895,62 0,00 7.582,47 625,55 1.037,58 0,00 1.663,13 5.919,34 692,00 0,00 28/02/2014
374 206200 CARLA BORGES DA COSTA COORDENADOR/ANALISTA ATIVO BELO HORIZONTE - COMARCA; DIRETORIA DE PROJETOS DE EDIFICACOES 13.353,95 7.402,15 0,00 0,00 0,00 0,00 20.756,10 2.056,51 4.316,24 0,00 6.372,75 14.383,35 457,00 0,00 28/02/2014
375 442800 CARLA GONCALVES COSTA SOALHEIRO ANALISTA DO MP ATIVO GOVERNADOR VALADARES - COMARCA; GOVERNADOR VALADARES-PJ-11PJ 6.793,15 407,59 0,00 0,00 2.400,25 0,00 9.600,99 792,08 1.546,88 0,00 2.338,96 7.262,03 692,00 0,00 28/02/2014
376 321500 CARLA GONCALVES MASSOTE OFICIAL DO MP ATIVO CAMPO BELO - COMARCA; CAMPO BELO-PJ-01PJ 5.876,69 587,67 0,00 0,00 0,00 0,00 6.464,36 711,08 756,00 0,00 1.467,08 4.997,28 457,00 0,00 28/02/2014
377 429200 CARLA HAUTEQUESTT BECHARA ANALISTA DO MP ATIVO BELO HORIZONTE - COMARCA; DIVISAO DE DOCUMENTACAO JURIDICA 6.793,15 407,59 0,00 0,00 0,00 0,00 7.200,74 792,08 936,23 0,00 1.728,31 5.472,43 457,00 0,00 28/02/2014
378 247500 CARLA MATILDE GUIMARAES DE OLIVEIRA OFICIAL DO MP ATIVO ITAJUBA - COMARCA; ITAJUBA-PJ-03PJ 6.265,58 1.253,12 0,00 0,00 0,00 0,00 7.518,70 827,06 964,63 0,00 1.791,69 5.727,01 457,00 0,00 28/02/2014
379 226100 CARLA MERLI DA CONCEICAO ANALISTA DO MP ATIVO BELO HORIZONTE - COMARCA; CENTRAL DE APOIO TECNICO-SETOR CONTABIL 11.885,64 2.377,13 0,00 0,00 0,00 0,00 14.262,77 1.568,90 2.615,24 0,00 4.184,14 10.078,63 4.002,29 324,98 28/02/2014
380 181401 CARLO MICHEL GAUDENSI COELHO ANALISTA DO MP ATIVO BELO HORIZONTE - COMARCA; BH-08PJ JUIZADO ESPECIAL-SECRETARIA 7.014,37 1.402,87 0,00 0,00 0,00 0,00 8.417,24 994,03 1.342,26 0,00 2.336,29 6.080,95 457,00 619,41 28/02/2014
381 375801 CARLOS ALBERTO ROCHA ANALISTA DO MP ATIVO ELOI MENDES - COMARCA; ELOI MENDES-PJ-SECRETARIA 5.338,12 0,00 0,00 0,00 0,00 0,00 5.338,12 587,19 480,36 0,00 1.067,55 4.270,57 457,00 0,00 28/02/2014
382 462800 CARLOS ANDREI SOARES FAGUNDES ANALISTA DO MP ATIVO MONTES CLAROS - COMARCA; MONTES CLAROS-PJ-09PJ 6.265,58 375,93 0,00 0,00 0,00 0,00 6.641,51 730,57 799,36 0,00 1.529,93 5.111,58 3.553,22 283,82 28/02/2014
383 370300 CARLOS AUGUSTO BUENO DIAS ASSESSOR ATIVO BELO HORIZONTE - COMARCA; DIRETORIA DE FISCALIZACAO DE OBRAS 0,00 0,00 7.973,40 0,00 0,00 0,00 7.973,40 482,93 701,60 0,00 1.184,53 6.788,87 4.002,29 324,98 28/02/2014
384 505100 CARLOS CEZAR CARVALHO ANALISTA DO MP ATIVO RIBEIRÃO DAS NEVES - COMARCA; RIBEIRAO DAS NEVES-PJ-09PJ 5.511,94 1.653,58 0,00 0,00 0,00 0,00 7.165,52 788,21 828,77 0,00 1.616,98 5.548,54 457,00 0,00 28/02/2014
385 195900 CARLOS DE SOUZA FERREIRA OFICIAL DO MP ATIVO COROMANDEL - COMARCA; COROMANDEL-PJ-UNPJ 7.478,49 5.234,95 0,00 0,00 0,00 0,00 12.713,44 1.398,48 2.236,04 0,00 3.634,52 9.078,92 457,00 0,00 28/02/2014
386 196800 CARLOS EDUARDO DE OLIVEIRA MARINHO OFICIAL DO MP ATIVO ALPINÓPOLIS - COMARCA; ALPINOPOLIS-PJ-UNPJ 8.501,02 3.400,41 0,00 0,00 0,00 0,00 11.901,43 1.309,16 2.037,30 0,00 3.346,46 8.554,97 4.237,29 324,98 28/02/2014
387 491800 CARLOS EDUARDO ROMAN OFICIAL DO MP ATIVO BARBACENA - COMARCA; BARBACENA-PJ-01PJ 3.938,84 393,88 0,00 0,00 0,00 0,00 4.332,72 517,45 339,04 0,00 856,49 3.476,23 457,00 371,40 28/02/2014
388 299300 CARLOS HENRIQUE BICALHO ANALISTA DO MP ATIVO BELO HORIZONTE - COMARCA; BH-17PJ PATRIMONIO PUBLICO-SECRETARIA 9.663,38 2.899,01 0,00 0,00 0,00 0,00 12.562,39 1.381,86 2.248,50 0,00 3.630,36 8.932,03 457,00 0,00 28/02/2014
389 205100 CARLOS HENRIQUE ESTEVES OFICIAL DO MP ATIVO ITAMBACURI - COMARCA; ITAMBACURI-PJ-01PJ 8.501,02 1.700,20 0,00 0,00 0,00 0,00 10.201,22 1.218,32 1.835,19 0,00 3.053,51 7.147,71 457,00 874,40 28/02/2014
390 351600 CARLOS HENRIQUE FELICIO DA FONSECA OFICIAL DO MP ATIVO LIMA DUARTE - COMARCA; LIMA DUARTE-PJ-UNPJ 5.511,94 1.102,39 0,00 0,00 0,00 0,00 6.614,33 727,58 792,71 0,00 1.520,29 5.094,04 3.526,04 281,33 28/02/2014
391 85400 CARLOS JOSE VIEIRA OFICIAL DO MP ATIVO BELO HORIZONTE - COMARCA; DIRETORIA DO CONSELHO SUPERIOR DO MP 18.218,36 12.752,85 0,00 0,00 0,00 0,00 30.971,21 2.924,86 5.681,68 4.381,53 12.988,07 17.983,14 4.002,29 324,99 28/02/2014
392 229100 CARLOS MERCES DE OLIVEIRA ANALISTA DO MP ATIVO BELO HORIZONTE - COMARCA; CENTRAL DE APOIO TECN-SETOR DE MEIO AMBIENTE 11.342,29 2.268,46 0,00 0,00 0,00 0,00 13.610,75 1.497,18 1.860,35 0,00 3.357,53 10.253,22 457,00 0,00 28/02/2014
393 538300 CARLOS RANGEL SILVA DE MELO ANALISTA DO MP ATIVO BELO HORIZONTE - COMARCA; DIVISAO DE CONTROLE IMOBILIARIO 4.404,59 880,92 0,00 0,00 0,00 0,00 5.285,51 581,41 467,48 0,00 1.048,89 4.236,62 457,00 0,00 28/02/2014
394 265100 CARLOS REIFF MIRANDA ANALISTA DO MP ATIVO BELO HORIZONTE - COMARCA; BH-19PJ SAUDE-SECRETARIA 150PJ 9.358,72 1.871,74 0,00 0,00 0,00 0,00 11.230,46 1.235,35 1.922,51 0,00 3.157,86 8.072,60 457,00 0,00 28/02/2014
395 305400 CARLOS ROCHA DE SOUZA OFICIAL DO MP ATIVO MONTALVÂNIA - COMARCA; MONTALVANIA-PJ-SECRETARIA 4.696,06 469,61 0,00 0,00 0,00 0,00 5.165,67 568,22 269,73 0,00 837,95 4.327,72 1.162,00 0,00 28/02/2014
396 365100 CARLOS WAGNER SANDER MORAIS COORDENADOR/OFICIAL ATIVO BELO HORIZONTE - COMARCA; DIRETORIA DE ADMINISTRACAO FINANCEIRA 0,00 1.030,28 10.302,83 0,00 0,00 0,00 11.333,11 666,94 2.107,05 0,00 2.773,99 8.559,12 4.002,29 324,98 28/02/2014
397 399900 CARMELITA EVANGELISTA DE SOUZA OFICIAL DO MP ATIVO JOÃO PINHEIRO - COMARCA; JOAO PINHEIRO-PJ-01PJ 3.814,70 381,47 0,00 0,00 0,00 0,00 4.196,17 461,58 237,32 0,00 698,90 3.497,27 1.107,88 48,82 28/02/2014
398 390400 CARMEM APARECIDA ANTUNES RESENDE OFICIAL DO MP ATIVO IGARAPÉ - COMARCA; IGARAPE-PJ-SECRETARIA 4.848,98 3.879,18 0,00 0,00 0,00 1.124,70 9.852,86 1.124,70 1.936,18 0,00 3.060,88 6.791,98 4.002,29 1.821,38 28/02/2014
399 202000 CARMEN LUCIA MARIZ DE MACEDO OFICIAL DO MP ATIVO BELO HORIZONTE - COMARCA; COORD COMB REPRES TRAFICO ILICITO ENTORPECEN 8.233,02 4.116,51 0,00 0,00 0,00 0,00 12.349,53 1.474,89 2.356,65 0,00 3.831,54 8.517,99 457,00 1.058,60 28/02/2014
400 228500 CAROLINA CHIARELLA DOS SANTOS RIBEIRO OFICIAL DO MP ATIVO BELO HORIZONTE - COMARCA; BH-13ª PJ JUÍXO DE TÓXICOS 4.848,98 969,80 0,00 0,00 0,00 0,00 5.818,78 640,07 499,15 0,00 1.139,22 4.679,56 927,00 0,00 28/02/2014
401 446500 CAROLINA COSTA VAL RODRIGUES ANALISTA DO MP ATIVO CONTAGEM - COMARCA; CONTAGEM-PJ-05PJ 6.793,15 679,32 0,00 0,00 0,00 0,00 7.472,47 821,97 1.002,74 0,00 1.824,71 5.647,76 4.002,29 324,98 28/02/2014
402 603501 CAROLINA DOMINGOS BRANDAO ANALISTA DO MP ATIVO CARATINGA - COMARCA; CARATINGA-PJ-03PJ 4.404,59 0,00 0,00 0,00 0,00 0,00 4.404,59 484,50 279,06 0,00 763,56 3.641,03 457,00 0,00 28/02/2014
403 404300 CAROLINA DOS SANTOS VIEIRA ANALISTA DO MP ATIVO BELO HORIZONTE - COMARCA; BH-08PJ JUIZADO ESPECIAL-SECRETARIA 7.973,40 797,34 0,00 0,00 0,00 0,00 8.770,74 964,78 1.221,65 0,00 2.186,43 6.584,31 927,00 0,00 28/02/2014
404 551200 CAROLINA LOPES ARANTES MASCARENHAS ANALISTA DO MP ATIVO BELO HORIZONTE - COMARCA; EXTINTA - COORD DEFESA DO DIREITO DE FAMILIA 4.848,98 0,00 0,00 0,00 0,00 0,00 4.848,98 533,39 368,05 0,00 901,44 3.947,54 457,00 0,00 28/02/2014
405 382200 CAROLINA MENDES CHAVES LIN ANALISTA DO MP ATIVO BELO HORIZONTE - COMARCA; SUPERINTENDENCIA DE RECURSOS HUMANOS 5.876,69 587,67 0,00 0,00 0,00 0,00 6.464,36 711,08 706,58 0,00 1.417,66 5.046,70 0,00 0,00 28/02/2014
406 461900 CAROLINA MURTA TEIXEIRA DIAS ANALISTA DO MP ATIVO BELO HORIZONTE - COMARCA; DIRET DE FORMACAO, APERFEIC. E POS-GRADUACAO 6.265,58 375,93 0,00 0,00 0,00 0,00 6.641,51 730,57 799,36 0,00 1.529,93 5.111,58 457,00 0,00 28/02/2014
407 509600 CAROLINA PINTO DE OLIVEIRA SOUZA ANALISTA DO MP ATIVO MURIAÉ - COMARCA; MURIAE-PJ-01PJ 6.068,01 0,00 0,00 0,00 0,00 0,00 6.068,01 667,48 609,58 0,00 1.277,06 4.790,95 692,00 0,00 28/02/2014
408 502600 CAROLINA RODRIGUES RUBEN ANALISTA DO MP ATIVO BELO HORIZONTE - COMARCA; EXTINTA-DEF DIREIT HUM-COMB A VIOL DOMEST-18 6.068,01 0,00 0,00 0,00 0,00 0,00 6.068,01 667,48 659,00 0,00 1.326,48 4.741,53 457,00 0,00 28/02/2014
409 529600 CAROLINA VAZ DE MELO MAMBRINI ANALISTA DO MP ATIVO MINAS NOVAS - COMARCA; MINAS NOVAS-PJ-UNPJ 4.848,98 0,00 0,00 0,00 1.616,33 0,00 6.465,31 533,39 805,13 0,00 1.338,52 5.126,79 457,00 0,00 28/02/2014
410 517600 CAROLINE ALVES DE OLIVEIRA MULLER ANALISTA DO MP ATIVO VISCONDE DO RIO BRANCO - COMARCA; VISCONDE DO RIO BRANCO-PJ-01PJ 6.068,01 0,00 0,00 0,00 0,00 0,00 6.068,01 826,51 905,53 0,00 1.732,04 4.335,97 692,00 1.631,15 28/02/2014
411 373200 CAROLINE ANTUNES RIBEIRO OFICIAL DO MP ATIVO JACUI - COMARCA; JACUI-PJ-UNPJ 5.006,87 500,69 0,00 0,00 0,00 0,00 5.507,56 605,83 378,63 0,00 984,46 4.523,10 3.996,54 247,84 28/02/2014
412 556800 CAROLINE DE SOUZA CARDOSO OFICIAL DO MP ATIVO BRASÍLIA DE MINAS - COMARCA; BRASILIA DE MINAS-PJ-02PJ 2.859,08 0,00 0,00 0,00 0,00 0,00 2.859,08 314,50 56,76 0,00 371,26 2.487,82 457,00 0,00 28/02/2014
413 499400 CAROLINE MARQUES DE LOURDES MARZULLO OFICIAL DO MP ATIVO JUIZ DE FORA - COMARCA; JUIZ DE FORA-PJ-20PJ 3.938,84 0,00 0,00 0,00 0,00 0,00 3.938,84 433,27 190,81 0,00 624,08 3.314,76 457,00 0,00 28/02/2014
414 604000 CASSIA APARECIDA DA SILVA OFICIAL DO MP ATIVO CANÁPOLIS - COMARCA; CANAPOLIS-PJ-UNPJ 2.859,08 0,00 0,00 0,00 0,00 0,00 2.859,08 314,50 56,76 0,00 371,26 2.487,82 457,00 0,00 28/02/2014
415 268800 CASSIA BEATRIZ TEIXEIRA OFICIAL DO MP ATIVO BELO HORIZONTE - COMARCA; COMB CRIMES PRAT POR AG POL MUN-SECRETARIA 6.469,61 1.293,92 0,00 0,00 0,00 0,00 7.763,53 853,99 1.073,97 0,00 1.927,96 5.835,57 457,00 0,00 28/02/2014
416 500000 CASSIA DE OLIVEIRA COSTA VIANA ANALISTA DO MP ATIVO SETE LAGOAS - COMARCA; SETE LAGOAS-PJ-01PJ 6.068,01 0,00 0,00 0,00 0,00 0,00 6.068,01 667,48 659,00 0,00 1.326,48 4.741,53 457,00 0,00 28/02/2014
417 368800 CASSIA LUISA BATISTA MENDONCA WEBER OFICIAL DO MP ATIVO BELO HORIZONTE - COMARCA; PROCON-MG-SEC DE EDUCACAO PARA O CONSUMO 4.265,74 426,57 0,00 0,00 0,00 0,00 4.692,31 516,15 336,68 0,00 852,83 3.839,48 927,00 0,00 28/02/2014
418 121000 CASSIO HENRIQUE AFONSO DA SILVA COORDENADOR/OFICIAL ATIVO BELO HORIZONTE - COMARCA; DIR ANALISES TECNOLOGIA INTELIGENCIA 10.302,83 7.624,10 0,00 0,00 0,00 0,00 17.926,93 1.699,97 3.537,42 0,00 5.237,39 12.689,54 4.472,29 324,98 28/02/2014
419 121100 CASSIO MOREIRA DE MIRANDA AGENTE DO MP ATIVO BELO HORIZONTE - COMARCA; PROCON-MG-SECRETARIA DE FISCALIZACOES 3.355,81 3.457,38 0,00 0,00 0,00 0,00 6.813,19 627,54 178,48 0,00 806,02 6.007,17 4.002,29 177,26 28/02/2014
420 512000 CATARINA NATALINO CALIXTO OFICIAL DO MP ATIVO BELO HORIZONTE - COMARCA; EXTINTA - DIVISÃO DE APOIO À LICITAÇÃO 3.577,90 0,00 0,00 0,00 0,00 0,00 3.577,90 403,69 154,91 0,00 558,60 3.019,30 489,61 93,67 28/02/2014
421 606200 CATARINE DE SIQUEIRA DE QUADROS ANALISTA DO MP ATIVO RIBEIRÃO DAS NEVES - COMARCA; RIBEIRAO DAS NEVES-PJ-04PJ 4.404,59 0,00 0,00 0,00 0,00 0,00 4.404,59 484,50 279,06 0,00 763,56 3.641,03 457,00 0,00 28/02/2014
422 71800 CATIA EFIGENIA CARNEIRO DE FREITAS OFICIAL DO MP ATIVO BELO HORIZONTE - COMARCA; ASSESSORIA JURIDICO-ADMINISTRATIVA 20.993,41 14.695,38 0,00 0,00 0,00 0,00 35.688,79 2.924,86 5.632,26 9.099,11 17.656,23 18.032,56 457,00 0,00 28/02/2014
423 538000 CECILIA FONTES DE MATOS ANALISTA DO MP ATIVO PALMA - COMARCA; PALMA-PJ-SECRETARIA 4.848,98 0,00 0,00 0,00 0,00 0,00 4.848,98 533,39 368,05 0,00 901,44 3.947,54 457,00 0,00 28/02/2014
424 261300 CECILIO ANTONIO CAMPOS DOS REIS ANALISTA DO MP ATIVO BELO HORIZONTE - COMARCA; CENTRAL DE APOIO TECNICO-SETOR CONTABIL 9.977,95 1.995,59 0,00 0,00 0,00 0,00 11.973,54 1.317,09 2.104,37 0,00 3.421,46 8.552,08 457,00 0,00 28/02/2014
425 386400 CEFAS AMORELI DE FIGUEIREDO OFICIAL DO MP ATIVO CABO VERDE - COMARCA; CABO VERDE-PJ-SECRETARIA 3.814,70 381,47 0,00 0,00 0,00 0,00 4.196,17 461,58 237,32 0,00 698,90 3.497,27 457,00 0,00 28/02/2014
426 149000 CELIA MAGALHAES CLAROS SOSSI OFICIAL DO MP ATIVO GOVERNADOR VALADARES - COMARCA; GOVERNADOR VALADARES-PJ-01PJ 9.358,72 3.743,49 0,00 0,00 0,00 0,00 13.102,21 1.441,24 2.380,62 0,00 3.821,86 9.280,35 4.002,29 324,98 28/02/2014
427 113100 CELIA MARIA ALVES PINTO OFICIAL DO MP ATIVO BELO HORIZONTE - COMARCA; PROCON-MG-SEC DE EDUCACAO PARA O CONSUMO 6.469,61 4.528,72 0,00 0,00 0,00 0,00 10.998,33 1.209,82 1.865,69 0,00 3.075,51 7.922,82 4.002,29 324,98 28/02/2014
428 421000 CELINA BENEDITA DE SOUZA ALMEIDA OFICIAL DO MP ATIVO CAMBUÍ - COMARCA; CAMBUI-PJ-01PJ 4.848,98 1.939,59 0,00 0,00 2.262,86 0,00 9.051,43 810,75 1.550,64 0,00 2.361,39 6.690,04 457,00 581,90 28/02/2014
429 252900 CELIO DE MELO CASTOR ANALISTA DO MP ATIVO BELO HORIZONTE - COMARCA; BH-20PJ ORD ECON TRIBUTARIA-SECRETARIA 9.977,95 1.995,59 0,00 0,00 0,00 0,00 11.973,54 1.317,09 2.054,95 0,00 3.372,04 8.601,50 457,00 0,00 28/02/2014
430 395700 CELIO FERREIRA LIMA OFICIAL DO MP ATIVO CONTAGEM - COMARCA; CONTAGEM-PJ-07PJ 4.131,19 413,12 0,00 0,00 1.514,77 0,00 6.059,08 499,87 653,21 0,00 1.153,08 4.906,00 692,00 0,00 28/02/2014
431 281300 CELMA REGINA PEREIRA SANTOS ANALISTA DO MP ATIVO BELO HORIZONTE - COMARCA; DIVISAO DE ACERVOS BIBLIOGRAFICOS 10.302,83 2.060,57 0,00 0,00 0,00 0,00 12.363,40 1.359,97 2.199,79 0,00 3.559,76 8.803,64 457,00 0,00 28/02/2014
432 535600 CELSO MEDEIROS DE PAIVA OFICIAL DO MP ATIVO RIO PRETO - COMARCA; RIO PRETO-PJ-SECRETARIA 2.859,08 0,00 0,00 0,00 0,00 0,00 2.859,08 314,50 43,29 0,00 357,79 2.501,29 457,00 0,00 28/02/2014
433 367000 CESAR NARVAES DE AVELAR COORDENADOR/OFICIAL ATIVO BELO HORIZONTE - COMARCA; DIVISAO DE MEMORIA INSTITUCIONAL 0,00 906,36 9.063,59 0,00 0,00 0,00 9.969,95 625,55 1.743,56 0,00 2.369,11 7.600,84 457,00 0,00 28/02/2014
434 226500 CESAR SILVEIRA BARROUIN OFICIAL DO MP ATIVO BELO HORIZONTE - COMARCA; DIRETORIA DE ADMINISTRACAO FINANCEIRA 6.793,15 2.037,95 0,00 0,00 2.943,70 0,00 11.774,80 971,42 2.144,78 0,00 3.116,20 8.658,60 457,00 0,00 28/02/2014
435 121400 CEZAR MORENO CONCEICAO TAVARES OFICIAL DO MP ATIVO BELO HORIZONTE - COMARCA; COORD DE INCLUSAO E MOBILIZACAO SOCIAIS 9.358,72 4.679,36 0,00 0,00 0,00 0,00 14.038,08 1.544,19 2.609,67 0,00 4.153,86 9.884,22 4.002,29 324,98 28/02/2014
436 243800 CHARLES MARTINS MUNIZ OFICIAL DO MP ATIVO BELO HORIZONTE - COMARCA; GAECO - SECRETARIA 5.372,72 1.138,29 0,00 0,00 0,00 0,00 6.511,01 751,27 757,78 0,00 1.509,05 5.001,96 457,00 0,00 28/02/2014
437 193500 CHARLIN CESAR KOURLY OFICIAL DO MP ATIVO UBERLÂNDIA - COMARCA; UBERLANDIA-PJ-10PJ 8.501,02 1.700,20 0,00 0,00 0,00 0,00 10.201,22 1.122,13 1.670,60 0,00 2.792,73 7.408,49 457,00 0,00 28/02/2014
438 385500 CHILLEN PEIXOTO DE MOURA OFICIAL DO MP ATIVO BELO HORIZONTE - COMARCA; BH-14PJ DEFESA CONSUMIDOR-GAB 112PJ 3.814,70 381,47 0,00 0,00 0,00 0,00 4.196,17 461,58 237,32 0,00 698,90 3.497,27 457,00 0,00 28/02/2014
439 534500 CHRISTIAN DOUGLAS BRITO RUAS OFICIAL DO MP ATIVO SÃO JOÃO DA PONTE - COMARCA; SAO JOAO DA PONTE-PJ-SECRETARIA 2.859,08 0,00 0,00 0,00 0,00 0,00 2.859,08 327,98 64,94 0,00 392,92 2.466,16 457,00 122,55 28/02/2014
440 370600 CHRISTIAN KARINE FELIX PRATES ASSESSOR ATIVO BELO HORIZONTE - COMARCA; COORD COMB REPRES TRAFICO ILICITO ENTORPECEN 0,00 0,00 6.265,58 0,00 0,00 0,00 6.265,58 482,93 889,75 0,00 1.372,68 4.892,90 692,00 0,00 28/02/2014
441 435800 CHRISTIANA BAHIA ANDRADE PINA ANALISTA DO MP ATIVO BELO HORIZONTE - COMARCA; CAO-ORDEM ECONOMICA E TRIBUTARIA-SECRETARIA 6.793,15 407,59 0,00 0,00 0,00 0,00 7.200,74 792,08 936,23 0,00 1.728,31 5.472,43 692,00 0,00 28/02/2014
442 516800 CHRISTIANE FERREIRA DO NASCIMENTO ANALISTA DO MP ATIVO ESTRELA DO SUL - COMARCA; ESTRELA DO SUL-PJ-UNPJ 5.006,87 0,00 0,00 0,00 0,00 0,00 5.006,87 750,15 771,79 0,00 1.521,94 3.484,93 457,00 1.812,60 28/02/2014
443 176000 CHRISTIANE JUNQUEIRA PULITI ANDRADE DE BARROS ASSESSOR ATIVO BELO HORIZONTE - COMARCA; GABINETE DO PROCURADOR-GERAL DE JUSTICA 0,00 7.211,98 10.302,83 0,00 0,00 0,00 17.514,81 1.926,63 3.411,18 0,00 5.337,81 12.177,00 4.002,29 324,98 28/02/2014
444 319200 CHRISTIANE MARIA DE ASSIS RUSSO OFICIAL DO MP ATIVO BELO HORIZONTE - COMARCA; CAO-ORDEM ECONOMICA E TRIBUTARIA-SECRETARIA 5.876,69 587,67 0,00 0,00 0,00 0,00 6.464,36 711,08 706,58 0,00 1.417,66 5.046,70 692,00 0,00 28/02/2014
445 510300 CHRISTIANE MARY DE CARVALHO FERREIRA ANALISTA DO MP ATIVO BELO HORIZONTE - COMARCA; DIRETORIA DE SISTEMAS DE INFORMACAO 5.511,94 0,00 0,00 0,00 0,00 0,00 5.511,94 606,31 473,48 0,00 1.079,79 4.432,15 692,00 0,00 28/02/2014
446 424900 CHRISTIANE PEREIRA TURNER DE ARAUJO OFICIAL DO MP ATIVO BELO HORIZONTE - COMARCA; CAO-PATRIMONIO PUBLICO 4.848,98 484,90 0,00 0,00 0,00 0,00 5.333,88 586,73 479,32 0,00 1.066,05 4.267,83 457,00 0,00 28/02/2014
447 513700 CHRISTIANE VIEIRA SOARES PEDERSOLI ANALISTA DO MP ATIVO BELO HORIZONTE - COMARCA; EXTINTA - SECRETARIA ADMINISTRATIVA 6.068,01 0,00 0,00 0,00 0,00 0,00 6.068,01 667,48 659,00 0,00 1.326,48 4.741,53 457,00 0,00 28/02/2014
448 412300 CHRYSTIAN MACHADO RIBEIRO ANALISTA DO MP ATIVO VARGINHA - COMARCA; VARGINHA-PJ-04PJ 7.014,37 701,44 0,00 0,00 0,00 0,00 7.715,81 921,49 1.224,17 0,00 2.145,66 5.570,15 4.002,29 986,38 28/02/2014
449 513800 CHRYSTIANE DO NASCIMENTO DE MAGALHAES OFICIAL DO MP ATIVO UBERLÂNDIA - COMARCA; UBERLANDIA-PJ-10PJ 3.938,84 0,00 0,00 0,00 0,00 0,00 3.938,84 433,27 190,81 0,00 624,08 3.314,76 692,00 0,00 28/02/2014
450 497900 CIBELE DE FREITAS SANCHES DIAS ANALISTA DO MP ATIVO SABARÁ - COMARCA; SABARA-PJ-03PJ 5.511,94 0,00 0,00 0,00 0,00 0,00 5.511,94 606,31 522,90 0,00 1.129,21 4.382,73 457,00 0,00 28/02/2014
451 500900 CIBELLE SILVA PRADO ALVARENGA ANALISTA DO MP ATIVO ITANHANDU - COMARCA; ITANHANDU-PJ-UNPJ 6.068,01 0,00 0,00 0,00 0,00 0,00 6.068,01 684,64 697,19 0,00 1.381,83 4.686,18 457,00 156,03 28/02/2014
452 296400 CINTIA APARECIDA MOREIRA NAVES E RODRIGUES ANALISTA DO MP ATIVO CAMPO BELO - COMARCA; CAMPO BELO-PJ-04PJ 9.663,38 966,34 0,00 0,00 0,00 0,00 10.629,72 1.169,27 1.775,47 0,00 2.944,74 7.684,98 457,00 0,00 28/02/2014
453 407900 CINTIA NETO COMELLI ANALISTA DO MP ATIVO BELO HORIZONTE - COMARCA; CENTRAL DE APOIO TECNICO-SETOR CONTABIL 7.014,37 701,44 0,00 0,00 0,00 0,00 7.715,81 848,74 1.062,29 0,00 1.911,03 5.804,78 457,00 0,00 28/02/2014
454 304700 CINTIA QUEIROZ OFICIAL DO MP ATIVO BELO HORIZONTE - COMARCA; BH-17PJ PATRIMONIO PUBLICO 6.265,58 626,56 0,00 0,00 0,00 0,00 6.892,14 758,14 860,70 0,00 1.618,84 5.273,30 457,00 0,00 28/02/2014
455 286100 CIRO CANGUSSU CORDEIRO OFICIAL DO MP ATIVO IPATINGA - COMARCA; IPATINGA-PJ-09PJ 4.696,06 939,21 0,00 0,00 0,00 0,00 5.635,27 619,88 503,66 0,00 1.123,54 4.511,73 457,00 0,00 28/02/2014
456 412500 CLARICE GOMES MAROTTA ANALISTA DO MP ATIVO BELO HORIZONTE - COMARCA; ASSESS TECNICO-JUR JUNTO AS PROC. DE JUST 7.014,37 1.402,87 0,00 0,00 0,00 0,00 8.417,24 925,90 1.233,97 0,00 2.159,87 6.257,37 457,00 0,00 28/02/2014
457 605300 CLARISSA AZEVEDO ROCHA OFICIAL DO MP ATIVO BELO HORIZONTE - COMARCA; EXTINTA - DIVISÃO DE COMPRAS 3.147,52 0,00 0,00 0,00 0,00 0,00 3.147,52 346,23 85,16 0,00 431,39 2.716,13 457,00 0,00 28/02/2014
458 308100 CLARISSA DUARTE MARTINS DIRETOR/ANALISTA ATIVO BELO HORIZONTE - COMARCA; SUPERINTENDENCIA DE RECURSOS HUMANOS 0,00 1.335,40 13.353,95 0,00 0,00 0,00 14.689,35 1.169,27 2.842,45 0,00 4.011,72 10.677,63 457,00 0,00 28/02/2014
459 497100 CLARISSA ROCHA GUIDI ANALISTA DO MP ATIVO BELO HORIZONTE - COMARCA; EXTINTA - JUIZO DE FAMILIA-02 PJ-02 VARA 6.068,01 0,00 0,00 0,00 0,00 0,00 6.068,01 667,48 659,00 0,00 1.326,48 4.741,53 457,00 0,00 28/02/2014
460 463700 CLAUDIA ADRIANA FERRAO DIAS ANALISTA DO MP ATIVO SETE LAGOAS - COMARCA; SETE LAGOAS-PJ-06PJ 6.265,58 375,93 0,00 0,00 0,00 0,00 6.641,51 730,57 651,10 0,00 1.381,67 5.259,84 457,00 0,00 28/02/2014
461 415400 CLAUDIA ALMEIDA DE VASCONCELLOS BARROS ASSESSOR/OFICIAL ATIVO BELO HORIZONTE - COMARCA; DIRET DE PESSOAL DO MINISTERIO PUBLICO - DPMP 0,00 797,34 7.973,40 0,00 0,00 0,00 8.770,74 964,78 1.320,49 0,00 2.285,27 6.485,47 4.002,29 324,98 28/02/2014
462 389600 CLAUDIA ALVES PERDOMO ASSESSOR ATIVO BELO HORIZONTE - COMARCA; PROCON-MG-GAB DO COORDENADOR DO PROCON-MG 0,00 0,00 7.973,40 0,00 0,00 0,00 7.973,40 482,93 1.359,40 0,00 1.842,33 6.131,07 1.695,75 113,55 28/02/2014
463 207000 CLAUDIA APARECIDA VILELA MACHADO ANALISTA DO MP ATIVO BELO HORIZONTE - COMARCA; CENTRAL DE APOIO TECNICO-SETOR CONTABIL 12.356,19 3.706,86 0,00 0,00 0,00 0,00 16.063,05 1.766,94 2.957,02 0,00 4.723,96 11.339,09 692,00 0,00 28/02/2014
464 365700 CLAUDIA BREGUEZ CUNHA ANALISTA DO MP ATIVO VARGINHA - COMARCA; VARGINHA-PJ-07PJ 8.233,02 823,30 0,00 0,00 0,00 0,00 9.056,32 996,20 1.390,38 0,00 2.386,58 6.669,74 457,00 0,00 28/02/2014
465 430500 CLAUDIA CECILIA SANTANA VENCESLAU COORDENADOR/OFICIAL ATIVO BELO HORIZONTE - COMARCA; DIRET DE DESENV DE RECURSOS HUMANOS-DDRH 0,00 618,17 10.302,83 0,00 0,00 0,00 10.921,00 565,39 2.021,64 0,00 2.587,03 8.333,97 4.002,29 324,98 28/02/2014
466 112400 CLAUDIA CRISTINA FIUZA DE AVELAR AGENTE DO MP ATIVO BELO HORIZONTE - COMARCA; SERVICO MEDICO-DEPTO PERIC MEDICA SAUDE OCUP 5.691,44 2.845,72 0,00 0,00 0,00 0,00 8.537,16 939,09 1.263,32 0,00 2.202,41 6.334,75 457,00 0,00 28/02/2014
467 149400 CLAUDIA DINIZ OFICIAL DO MP ATIVO BELO HORIZONTE - COMARCA; BH-09PJ AUDITORIA MILITAR-SECRETARIA 10.984,62 5.492,31 0,00 0,00 0,00 0,00 16.476,93 1.812,46 3.107,74 0,00 4.920,20 11.556,73 4.002,29 324,98 28/02/2014
468 480400 CLAUDIA GOULART DE SOUZA OFICIAL DO MP ATIVO PASSOS - COMARCA; PASSOS-PJ-06PJ 4.000,95 400,10 0,00 0,00 0,00 0,00 4.401,05 500,65 305,37 0,00 806,02 3.595,03 1.244,43 232,14 28/02/2014
469 519800 CLAUDIA HELENA CORREA DE ALMEIDA ANALISTA DO MP ATIVO BELO HORIZONTE - COMARCA; BH-12PJ JUIZO CRIMINAL-GAB 090PJ 5.511,94 0,00 0,00 0,00 1.837,31 0,00 7.349,25 606,31 1.028,16 0,00 1.634,47 5.714,78 457,00 0,00 28/02/2014
470 422100 CLAUDIA IACOMINI CABRAL ANALISTA DO MP ATIVO BELO HORIZONTE - COMARCA; CENT DE APOIO TEC-SETOR DEF,IDOSO E INFANC 7.014,37 2.805,75 0,00 0,00 0,00 0,00 9.820,12 1.080,21 1.577,33 0,00 2.657,54 7.162,58 4.002,29 324,98 28/02/2014
471 258200 CLAUDIA LAGE MICHALAROS ANALISTA DO MP ATIVO BELO HORIZONTE - COMARCA; CENTRAL DE APOIO TECN-SETOR DE MEIO AMBIENTE 9.977,95 4.988,98 0,00 0,00 0,00 0,00 14.966,93 1.646,36 2.787,59 0,00 4.433,95 10.532,98 4.002,29 324,98 28/02/2014
472 284600 CLAUDIA LENI DE ABREU OFICIAL DO MP ATIVO CONTAGEM - COMARCA; CONTAGEM-PJ-22PJ 4.696,06 1.408,82 0,00 0,00 0,00 0,00 6.104,88 671,54 668,02 0,00 1.339,56 4.765,32 457,00 0,00 28/02/2014
473 433600 CLAUDIA LUIZA SANTIAGO FELICIO ANALISTA DO MP ATIVO BELO HORIZONTE - COMARCA; CAO-SAUDE-TECNICO JURIDICO 6.793,15 407,59 0,00 0,00 0,00 0,00 7.200,74 792,08 837,39 0,00 1.629,47 5.571,27 927,00 0,00 28/02/2014
474 317000 CLAUDIA MACHADO ALVES OFICIAL DO MP ATIVO BELO HORIZONTE - COMARCA; ASSESS ESPECIAL DO PGJ ATUACAO JUNTO A PGJAI 4.848,98 484,90 0,00 0,00 0,00 0,00 5.333,88 586,73 479,32 0,00 1.066,05 4.267,83 457,00 0,00 28/02/2014
475 155300 CLAUDIA MACIEL MIRANDA OFICIAL DO MP ATIVO CONGONHAS - COMARCA; CONGONHAS-PJ-02PJ 9.358,72 3.743,49 0,00 0,00 0,00 0,00 13.102,21 1.441,24 2.281,78 0,00 3.723,02 9.379,19 4.237,29 324,98 28/02/2014
476 242200 CLAUDIA MICHELLE DIAS MUNIZ BALEEIRO OFICIAL DO MP ATIVO MONTE AZUL - COMARCA; MONTE AZUL-PJ-SECRETARIA 6.578,93 1.973,68 0,00 0,00 0,00 0,00 8.552,61 940,79 1.168,26 0,00 2.109,05 6.443,56 692,00 0,00 28/02/2014
477 418400 CLAUDIA REGINA MARTINS BONIFACIO OFICIAL DO MP ATIVO ITUIUTABA - COMARCA; ITUIUTABA-PJ-SECRETARIA 4.848,98 484,90 0,00 0,00 0,00 0,00 5.333,88 586,73 384,28 0,00 971,01 4.362,87 2.245,59 134,14 28/02/2014
478 498300 CLAUDIA SOUTO FARIAS BRAUN OFICIAL DO MP ATIVO TEÓFILO OTONI - COMARCA; TEOFILO OTONI-PJ-SECRETARIA 3.577,90 0,00 0,00 0,00 0,00 0,00 3.577,90 393,57 64,31 0,00 457,88 3.120,02 692,00 0,00 28/02/2014
479 206500 CLAUDIA VALERIA FONSECA ANDRADE ANALISTA DO MP ATIVO BELO HORIZONTE - COMARCA; BH-23PJ INF-FISC MED SOC FEC 12.356,19 4.942,48 0,00 0,00 0,00 0,00 17.298,67 1.902,85 3.358,28 0,00 5.261,13 12.037,54 457,00 0,00 28/02/2014
480 277500 CLAUDIO ANTONIO BORGES ALVARES ASSESSOR/OFICIAL ATIVO BELO HORIZONTE - COMARCA; COORD REG BACIAS RIO VELHAS E PARAOPEBA 0,00 1.253,12 6.265,58 0,00 0,00 0,00 7.518,70 800,98 1.021,22 0,00 1.822,20 5.696,50 457,00 0,00 28/02/2014
481 444800 CLAUDIO ARESIO DO CARMO ANALISTA DO MP ATIVO SETE LAGOAS - COMARCA; SETE LAGOAS-PJ-09PJ 6.793,15 1.358,63 0,00 0,00 0,00 0,00 8.151,78 973,55 1.290,59 0,00 2.264,14 5.887,64 4.237,29 1.023,68 28/02/2014
482 541600 CLAUDIO DE OLIVEIRA MELO OFICIAL DO MP ATIVO PARACATU - COMARCA; PARACATU-PJ-01PJ 2.859,08 0,00 0,00 0,00 0,00 0,00 2.859,08 314,50 29,81 0,00 344,31 2.514,77 927,00 0,00 28/02/2014
483 545100 CLAUDIO HENRIQUE MACEDO DE SOUZA FRANSOZO ANALISTA DO MP ATIVO OURO PRETO - COMARCA; OURO PRETO-PJ-01PJ 4.404,59 0,00 0,00 0,00 0,00 0,00 4.404,59 484,50 279,06 0,00 763,56 3.641,03 457,00 0,00 28/02/2014
484 353500 CLAUDIO HENRIQUE PEDRO DA ROCHA OFICIAL DO MP ATIVO BELO HORIZONTE - COMARCA; CAO-CRIMINAL-SECRETARIA 5.511,94 551,19 0,00 0,00 0,00 0,00 6.063,13 666,94 558,96 0,00 1.225,90 4.837,23 2.974,84 230,80 28/02/2014
485 265800 CLAUDIO KUPIDLOWSKY FERNANDES OFICIAL DO MP ATIVO BELO HORIZONTE - COMARCA; EXTINTA - SECRETARIA ADMINISTRATIVA 6.068,01 1.213,60 0,00 0,00 0,00 0,00 7.281,61 800,98 199,74 0,00 1.000,72 6.280,89 4.237,29 177,26 28/02/2014
486 193600 CLAUDIO LEITE FONTES OFICIAL DO MP ATIVO ITUIUTABA - COMARCA; ITUIUTABA-PJ-02PJ 5.169,86 1.550,96 0,00 0,00 0,00 0,00 6.720,82 739,29 619,67 0,00 1.358,96 5.361,86 4.002,29 324,98 28/02/2014
487 329400 CLAUDIO MARCIO BERNARDES OFICIAL DO MP ATIVO ITAÚNA - COMARCA; ITAUNA-PJ-04PJ 5.876,69 2.350,68 0,00 0,00 0,00 0,00 8.227,37 905,01 1.138,08 0,00 2.043,09 6.184,28 4.080,29 324,98 28/02/2014
488 270200 CLAUDIO RABELO ALVES OFICIAL DO MP ATIVO FORMIGA - COMARCA; FORMIGA-PJ-SECRETARIA 6.469,61 1.293,92 0,00 0,00 0,00 0,00 7.763,53 971,10 1.136,86 0,00 2.107,96 5.655,57 4.002,29 1.389,62 28/02/2014
489 264700 CLAUDIO ROBERTO KFURI DE ARAUJO ANALISTA DO MP ATIVO BELO HORIZONTE - COMARCA; CENTRAL DE APOIO TECNICO-SETOR DE INFORMATICA 9.977,95 1.995,59 0,00 0,00 0,00 0,00 11.973,54 1.317,09 2.005,53 0,00 3.322,62 8.650,92 457,00 0,00 28/02/2014
490 188600 CLAUDIO SALES OFICIAL DO MP ATIVO NEPOMUCENO - COMARCA; NEPOMUCENO-PJ-SECRETARIA 8.233,02 4.116,51 0,00 0,00 0,00 0,00 12.349,53 1.358,45 2.097,56 0,00 3.456,01 8.893,52 4.002,29 324,98 28/02/2014
491 543300 CLAUDIO SILVA DE CARVALHO ANALISTA DO MP ATIVO CAMPO BELO - COMARCA; CAMPO BELO-PJ-02PJ 4.404,59 0,00 0,00 0,00 0,00 0,00 4.404,59 484,50 199,07 0,00 683,57 3.721,02 457,00 0,00 28/02/2014
492 160700 CLAUDIO VICENTE HESS ASSESSOR ATIVO BELO HORIZONTE - COMARCA; EXTINTA - SUPERINTENDENCIA ADMINISTRATIVA-SAD 0,00 2.633,33 8.777,78 0,00 0,00 0,00 11.411,11 482,93 2.156,51 0,00 2.639,44 8.771,67 4.002,29 324,98 28/02/2014
493 312900 CLAUDIO VIEIRA FIRPE ASSESSOR/OFICIAL ATIVO BELO HORIZONTE - COMARCA; DIRETORIA DE RELACOES PUBLICAS E CERIMONIAL 0,00 797,34 7.973,40 0,00 0,00 0,00 8.770,74 688,66 1.396,42 0,00 2.085,08 6.685,66 457,00 0,00 28/02/2014
494 459200 CLEIA ZILLE PEREIRA ANALISTA DO MP ATIVO BELO HORIZONTE - COMARCA; ASSESS TECNICO-JUR JUNTO AS PROC. DE JUST 6.265,58 375,93 0,00 0,00 0,00 0,00 6.641,51 730,57 799,36 0,00 1.529,93 5.111,58 927,00 0,00 28/02/2014
495 461300 CLEIDE ALVES DA SILVA OFICIAL DO MP ATIVO BOA ESPERANÇA - COMARCA; BOA ESPERANCA-PJ-01PJ 4.000,95 240,06 0,00 0,00 0,00 0,00 4.241,01 466,51 246,30 0,00 712,81 3.528,20 457,00 0,00 28/02/2014
496 481800 CLEIDE CARDOSO DA SILVA ANALISTA DO MP ATIVO GOVERNADOR VALADARES - COMARCA; GOVERNADOR VALADARES-PJ-15PJ 6.068,01 364,08 0,00 0,00 0,00 0,00 6.432,09 747,58 738,37 0,00 1.485,95 4.946,14 927,00 364,08 28/02/2014
497 347600 CLEIDIMAR DE OLIVEIRA SILVA OFICIAL DO MP ATIVO PATOS DE MINAS - COMARCA; PATOS DE MINAS-PJ-05PJ 5.338,12 1.067,62 0,00 0,00 0,00 0,00 6.405,74 1.021,02 1.112,56 0,00 2.133,58 4.272,16 4.002,29 3.396,80 28/02/2014
498 396500 CLEIDISON BATISTA DE ANDRADE OFICIAL DO MP ATIVO RESPLENDOR - COMARCA; RESPLENDOR-PJ-UNPJ 3.814,70 381,47 0,00 0,00 0,00 0,00 4.196,17 461,58 144,29 0,00 605,87 3.590,30 457,00 0,00 28/02/2014
499 535100 CLEISON ALVES DA SILVA ANALISTA DO MP ATIVO BOA ESPERANÇA - COMARCA; BOA ESPERANCA-PJ-01PJ 4.848,98 0,00 0,00 0,00 0,00 0,00 4.848,98 533,39 327,61 0,00 861,00 3.987,98 457,00 0,00 28/02/2014
500 298100 CLEONICE AUGUSTA BARROS DE OLIVEIRA ANALISTA DO MP ATIVO JUIZ DE FORA - COMARCA; JUIZ DE FORA-PJ-08PJ 10.302,83 1.030,28 0,00 0,00 0,00 0,00 11.333,11 1.246,64 1.947,63 0,00 3.194,27 8.138,84 457,00 0,00 28/02/2014
501 60200 CLERES DE ALMEIDA AGENTE DO MP ATIVO BELO HORIZONTE - COMARCA; EXTINTA - DIVISAO DE TRANSPORTES 4.404,59 3.523,68 0,00 0,00 0,00 0,00 7.928,27 1.051,50 1.414,59 0,00 2.466,09 5.462,18 457,00 1.630,80 28/02/2014
502 114300 CLERES PEREIRA DA SILVA JUNIOR ASSESSOR ATIVO BELO HORIZONTE - COMARCA; GAECO - SECRETARIA 0,00 1.575,53 3.938,84 0,00 0,00 0,00 5.514,37 482,93 534,91 0,00 1.017,84 4.496,53 457,00 0,00 28/02/2014
503 264100 CLETO HENRIQUE ANDRADE SILVA ANALISTA DO MP ATIVO BELO HORIZONTE - COMARCA; DIRETORIA DE SISTEMAS DE INFORMACAO 9.977,95 1.995,59 0,00 0,00 0,00 0,00 11.973,54 1.362,25 2.056,59 0,00 3.418,84 8.554,70 692,00 410,52 28/02/2014
504 334400 CLEUBA DE OLIVEIRA BARCELOS GONCALVES OFICIAL DO MP ATIVO DIVINÓPOLIS - COMARCA; COORD REG SAUDE MACRORREGIAO SANITARIA OESTE 5.876,69 587,67 0,00 0,00 0,00 0,00 6.464,36 711,08 657,16 0,00 1.368,24 5.096,12 4.002,29 324,98 28/02/2014
505 347500 CLEUSA CORDEIRO DA MATA PIMENTA OFICIAL DO MP ATIVO CAMPO BELO - COMARCA; CAMPO BELO-PJ-04PJ 5.691,44 3.984,01 0,00 0,00 0,00 0,00 9.675,45 1.064,30 1.443,08 0,00 2.507,38 7.168,07 457,00 0,00 28/02/2014
506 510200 CLEZIO SALES SILVA OFICIAL DO MP ATIVO BRASÓPOLIS - COMARCA; BRASOPOLIS-PJ-UNPJ 3.250,03 0,00 0,00 0,00 0,00 0,00 3.250,03 357,50 98,85 0,00 456,35 2.793,68 457,00 0,00 28/02/2014
507 323000 CLOTILDE DE PADUA VIEIRA OFICIAL DO MP ATIVO BELO HORIZONTE - COMARCA; BH-15PJ M AMB 16PJ HAB URB-SECRETARIA 4.131,19 413,12 0,00 0,00 0,00 0,00 4.544,31 499,87 307,04 0,00 806,91 3.737,40 457,00 0,00 28/02/2014
508 285200 CLOVIS ANDRE LUDTKE OFICIAL DO MP ATIVO BELO HORIZONTE - COMARCA; DIVISAO DE MANUTENCAO PREDIAL 6.265,58 1.253,12 0,00 0,00 0,00 0,00 7.518,70 827,06 1.014,05 0,00 1.841,11 5.677,59 4.002,29 324,98 28/02/2014
509 381100 CONCEICAO APARECIDA TEIXEIRA ARANTES ANALISTA DO MP ATIVO BELO HORIZONTE - COMARCA; BH-23PJ INFRACIONAL-ASS JURIDICA 6.469,61 646,96 0,00 0,00 0,00 0,00 7.116,57 782,82 866,21 0,00 1.649,03 5.467,54 457,00 0,00 28/02/2014
510 249900 CONSTANTINO CEZAR GOMES MOTA OFICIAL DO MP ATIVO MONTES CLAROS - COMARCA; COORD REG BACIA RIOS VERDE GRANDE E PARDO 4.696,06 939,21 0,00 0,00 0,00 0,00 5.635,27 619,88 503,66 0,00 1.123,54 4.511,73 2.546,98 191,58 28/02/2014
511 481000 CRISHMA ANALIA LOMBELLO ANALISTA DO MP ATIVO JUIZ DE FORA - COMARCA; JUIZ DE FORA-PJ-13PJ 6.265,58 375,93 0,00 0,00 0,00 0,00 6.641,51 778,18 828,53 0,00 1.606,71 5.034,80 457,00 432,80 28/02/2014
512 187500 CRISLEY PATRICK TOSTES OFICIAL DO MP ATIVO JUIZ DE FORA - COMARCA; JUIZ DE FORA-PJ-21PJ 8.501,02 1.700,20 0,00 0,00 0,00 0,00 10.201,22 1.122,13 1.670,60 0,00 2.792,73 7.408,49 3.032,44 236,08 28/02/2014
513 523900 CRISTHYANE BAZOLI COSTA GUEDES OFICIAL DO MP ATIVO BELO HORIZONTE - COMARCA; BH-23PJ CIVEL-SEC EXP CIVEIS 2.952,15 0,00 0,00 0,00 0,00 0,00 2.952,15 341,44 79,36 0,00 420,80 2.531,35 457,00 151,86 28/02/2014
514 187000 CRISTIAN DAYVSON EVANGELISTA OFICIAL DO MP ATIVO JUIZ DE FORA - COMARCA; JUIZ DE FORA-PJ-09PJ 8.233,02 1.646,60 0,00 0,00 0,00 0,00 9.879,62 1.086,76 1.542,47 0,00 2.629,23 7.250,39 4.002,29 324,98 28/02/2014
515 319800 CRISTIANA GONCALVES DOS SANTOS GUSMAO OFICIAL DO MP ATIVO BELO HORIZONTE - COMARCA; BH-14PJ DEFESA CONSUMIDOR-SECRETARIA 5.691,44 569,14 0,00 0,00 0,00 0,00 6.260,58 688,66 706,13 0,00 1.394,79 4.865,79 3.172,29 248,90 28/02/2014
516 520600 CRISTIANA JANAINA BARBOZA JUVENCIO DOS SANTOS ANALISTA DO MP ATIVO BELO HORIZONTE - COMARCA; EXTINTA - JUIZO DE FAMILIA-02 PJ-02 VARA 5.511,94 0,00 0,00 0,00 0,00 0,00 5.511,94 606,31 522,90 0,00 1.129,21 4.382,73 1.559,39 101,05 28/02/2014
517 195600 CRISTIANA SOARES HALABI OFICIAL DO MP ATIVO UBERABA - COMARCA; UBERABA-PJ-11PJ 7.973,40 1.594,68 0,00 0,00 0,00 0,00 9.568,08 1.052,49 1.515,64 0,00 2.568,13 6.999,95 457,00 0,00 28/02/2014
518 218900 CRISTIANE ALVES BELLES OFICIAL DO MP ATIVO JUIZ DE FORA - COMARCA; JUIZ DE FORA-PJ-10PJ 4.696,06 939,21 0,00 0,00 0,00 0,00 5.635,27 619,88 404,82 0,00 1.024,70 4.610,57 2.546,98 191,58 28/02/2014
519 263600 CRISTIANE CARVALHO COUTINHO OFICIAL DO MP ATIVO BELO HORIZONTE - COMARCA; BH-23PJ INFRACIONAL-SEC EXP 6.265,58 1.253,12 0,00 0,00 2.506,23 0,00 10.024,93 827,06 1.653,84 0,00 2.480,90 7.544,03 692,00 0,00 28/02/2014
520 541000 CRISTIANE COELHO ALVES OFICIAL DO MP ATIVO ITABIRA - COMARCA; ITABIRA-PJ-01PJ 2.859,08 0,00 0,00 0,00 0,00 0,00 2.859,08 314,50 43,29 0,00 357,79 2.501,29 457,00 0,00 28/02/2014
521 441700 CRISTIANE CORRADO DE ANDRADE ANALISTA DO MP ATIVO BELO HORIZONTE - COMARCA; DIRETORIA DE SISTEMAS DE INFORMACAO 6.793,15 407,59 0,00 0,00 0,00 0,00 7.200,74 792,08 936,23 0,00 1.728,31 5.472,43 457,00 0,00 28/02/2014
522 375100 CRISTIANE DAS DORES ERCIO DE LIMA OFICIAL DO MP ATIVO GOVERNADOR VALADARES - COMARCA; GOVERNADOR VALADARES-PJ-15PJ 4.131,19 413,12 0,00 0,00 0,00 0,00 4.544,31 499,87 307,04 0,00 806,91 3.737,40 457,00 0,00 28/02/2014
523 178800 CRISTIANE DE LIMA HOSKEN OFICIAL DO MP ATIVO BELO HORIZONTE - COMARCA; BH-14PJ DEFESA CONSUMIDOR-GAB 113PJ 8.501,02 1.700,20 0,00 0,00 0,00 0,00 10.201,22 1.122,13 1.522,34 0,00 2.644,47 7.556,75 4.002,29 324,98 28/02/2014
524 494000 CRISTIANE DE MELO MARQUEZ OLIVEIRA ANALISTA DO MP ATIVO UBERLÂNDIA - COMARCA; UBERLANDIA-PJ-06PJ 6.068,01 0,00 0,00 0,00 0,00 0,00 6.068,01 667,48 659,00 0,00 1.326,48 4.741,53 457,00 0,00 28/02/2014
525 266100 CRISTIANE DE OLIVEIRA CASTRO OFICIAL DO MP ATIVO BELO HORIZONTE - COMARCA; PROCON-MG-SECRETARIA DE FISCALIZACOES 6.578,93 2.424,11 0,00 0,00 0,00 0,00 9.003,04 868,42 1.262,61 0,00 2.131,03 6.872,01 4.237,29 324,98 28/02/2014
526 329500 CRISTIANE DOS REIS SILVA OFICIAL DO MP ATIVO ARAXÁ - COMARCA; ARAXA-PJ-04PJ 4.696,06 469,61 0,00 0,00 0,00 0,00 5.165,67 568,22 350,60 0,00 918,82 4.246,85 692,00 0,00 28/02/2014
527 301600 CRISTIANE GODINHO PIRES ANALISTA DO MP ATIVO BETIM - COMARCA; BETIM-PJ-07PJ 9.358,72 935,87 0,00 0,00 3.431,53 0,00 13.726,12 1.132,40 2.637,12 0,00 3.769,52 9.956,60 457,00 0,00 28/02/2014
528 406100 CRISTIANE GONCALVES CHAVES ANALISTA DO MP ATIVO BELO HORIZONTE - COMARCA; ASSESS TECNICO-JUR JUNTO AS PROC. DE JUST 7.973,40 1.594,68 0,00 0,00 0,00 0,00 9.568,08 1.052,49 1.515,64 0,00 2.568,13 6.999,95 4.002,29 324,98 28/02/2014
529 487600 CRISTIANE LOPES DE OLIVEIRA OFICIAL DO MP ATIVO IBIRACI - COMARCA; IBIRACI-PJ-SECRETARIA 3.577,90 0,00 0,00 0,00 0,00 0,00 3.577,90 393,57 115,66 0,00 509,23 3.068,67 457,00 0,00 28/02/2014
530 502500 CRISTIANE MACIEL DE OLIVEIRA GOMES ANALISTA DO MP ATIVO JUIZ DE FORA - COMARCA; JUIZ DE FORA-PJ-04PJ 6.068,01 0,00 0,00 0,00 0,00 0,00 6.068,01 667,48 659,00 0,00 1.326,48 4.741,53 457,00 0,00 28/02/2014
531 285500 CRISTIANE MAGALHAES LOURENCO ANALISTA DO MP ATIVO BELO HORIZONTE - COMARCA; CENTRAL DE APOIO TECNICO-SETOR CONTABIL 9.663,38 1.932,68 0,00 0,00 0,00 0,00 11.596,06 1.275,57 1.913,14 0,00 3.188,71 8.407,35 4.002,29 324,98 28/02/2014
532 536500 CRISTIANE MICHELE DE SOUZA ANALISTA DO MP ATIVO SANTA BÁRBARA - COMARCA; SANTA BARBARA-PJ-UNPJ 4.848,98 0,00 0,00 0,00 0,00 0,00 4.848,98 533,39 327,61 0,00 861,00 3.987,98 692,00 0,00 28/02/2014
533 346600 CRISTIANE NOGUEIRA ANDRADE ANALISTA DO MP ATIVO BELO HORIZONTE - COMARCA; CENTRAL DE APOIO TECNICO-SETOR CONTABIL 8.501,02 850,10 0,00 0,00 0,00 0,00 9.351,12 1.028,62 1.462,54 0,00 2.491,16 6.859,96 927,00 0,00 28/02/2014
534 234000 CRISTIANE OLIVEIRA TOSTES OFICIAL DO MP ATIVO JUIZ DE FORA - COMARCA; JUIZ DE FORA-PJ-19PJ 7.973,40 1.594,68 0,00 0,00 0,00 0,00 9.568,08 1.052,49 1.515,64 0,00 2.568,13 6.999,95 4.002,29 324,98 28/02/2014
535 445800 CRISTIANE ORZIL COSTA OFICIAL DO MP ATIVO SANTA LUZIA - COMARCA; SANTA LUZIA-PJ-05PJ 3.694,41 221,66 0,00 0,00 0,00 0,00 3.916,07 430,77 187,77 0,00 618,54 3.297,53 457,00 0,00 28/02/2014
536 612300 CRISTIANE RIBEIRO DOS REIS ARCANJO OFICIAL DO MP ATIVO BELO HORIZONTE - COMARCA; BH-17PJ PATRIMONIO PUBLICO-SECRETARIA 2.477,87 0,00 0,00 0,00 0,00 0,00 2.477,87 272,57 31,32 0,00 303,89 2.173,98 415,45 0,00 28/02/2014
537 215000 CRISTIANE RODRIGUES DE CARVALHO ASSESSOR ATIVO BELO HORIZONTE - COMARCA; BH-14PJ DEFESA CONSUMIDOR-GAB 005PJ 0,00 787,77 3.938,84 0,00 0,00 0,00 4.726,61 482,93 466,54 0,00 949,47 3.777,14 457,00 0,00 28/02/2014
538 257700 CRISTIANE RODRIGUES PAES NUNES ANALISTA DO MP ATIVO BELO HORIZONTE - COMARCA; BH-22PJ PES COM DEF E IDOSOS-ORIENTACAO PSIC 10.302,83 2.060,57 0,00 0,00 0,00 0,00 12.363,40 1.359,97 2.150,37 0,00 3.510,34 8.853,06 4.002,29 324,98 28/02/2014
539 510800 CRISTIANE SANTOS FERNANDES ORNELES ANALISTA DO MP ATIVO BELO HORIZONTE - COMARCA; COORD ESTADUAL DAS PJS DE HAB. E URBANISMO 6.068,01 0,00 0,00 0,00 0,00 0,00 6.068,01 667,48 609,58 0,00 1.277,06 4.790,95 457,00 0,00 28/02/2014
540 535700 CRISTIANE SANTOS MIRANDA OFICIAL DO MP ATIVO BETIM - COMARCA; BETIM-PJ-02PJ 3.147,52 0,00 0,00 0,00 0,00 0,00 3.147,52 346,23 62,54 0,00 408,77 2.738,75 457,00 0,00 28/02/2014
541 536200 CRISTIANO DE OLIVEIRA ANALISTA DO MP ATIVO CONCEIÇÃO DO MATO DENTRO - COMARCA; CONCEICAO DO MATO DENTRO-PJ-UNPJ 4.848,98 0,00 0,00 0,00 0,00 0,00 4.848,98 533,39 368,05 0,00 901,44 3.947,54 457,00 0,00 28/02/2014
542 477400 CRISTIANO SOARES ELEUTERIO ANALISTA DO MP ATIVO BELO HORIZONTE - COMARCA; BH-17PJ PATRIMONIO PUBLICO 6.265,58 375,93 0,00 0,00 0,00 0,00 6.641,51 730,57 799,36 0,00 1.529,93 5.111,58 457,00 0,00 28/02/2014
543 449400 CRISTIANO TEIXEIRA RODRIGUES LANA ANALISTA DO MP ATIVO BELO HORIZONTE - COMARCA; ASSESS TECNICO-JUR JUNTO AS PROC. DE JUST 6.265,58 375,93 0,00 0,00 0,00 0,00 6.641,51 730,57 799,36 0,00 1.529,93 5.111,58 457,00 0,00 28/02/2014
544 239400 CRISTINA DE FATIMA CRUZ E SILVA OFICIAL DO MP ATIVO MONTE SANTO DE MINAS - COMARCA; MONTE SANTO DE MINAS-PJ-SECRETARIA 6.793,15 1.358,63 0,00 0,00 0,00 0,00 8.151,78 973,55 1.340,01 0,00 2.313,56 5.838,22 457,00 698,70 28/02/2014
545 544000 CRISTINA DE OLIVEIRA TERRA ANALISTA DO MP ATIVO MATOZINHOS - COMARCA; MATOZINHOS-PJ-02PJ 4.404,59 0,00 0,00 0,00 0,00 0,00 4.404,59 484,50 279,06 0,00 763,56 3.641,03 457,00 0,00 28/02/2014
546 356800 CRISTINA DE PINHO BARROSO OFICIAL DO MP ATIVO SABINÓPOLIS - COMARCA; SABINOPOLIS-PJ-UNPJ 4.265,74 853,15 0,00 0,00 0,00 0,00 5.118,89 563,08 341,23 0,00 904,31 4.214,58 457,00 0,00 28/02/2014
547 449100 CRISTINA KISTEMANN CHIODI ASSESSOR ATIVO BELO HORIZONTE - COMARCA; CAO-MEIO AMBIENTE-SECRETARIA 0,00 0,00 7.973,40 0,00 0,00 0,00 7.973,40 482,93 1.359,40 0,00 1.842,33 6.131,07 457,00 0,00 28/02/2014
548 348201 CRISTINA MARIA DA SILVA ANALISTA DO MP ATIVO JOÃO PINHEIRO - COMARCA; JOAO PINHEIRO-PJ-01PJ 6.068,01 364,08 0,00 0,00 0,00 0,00 6.432,09 707,53 748,10 0,00 1.455,63 4.976,46 457,00 0,00 28/02/2014
549 434900 CRISTINA MELO DE MADUREIRA ANALISTA DO MP ATIVO BELO HORIZONTE - COMARCA; CAO-CRIMINAL-SECRETARIA 6.793,15 407,59 0,00 0,00 0,00 0,00 7.200,74 792,08 936,23 0,00 1.728,31 5.472,43 692,00 0,00 28/02/2014
550 117100 CRISTINA PEDROSA GARABINI COORDENADOR/ANALISTA ATIVO BELO HORIZONTE - COMARCA; DIRET DE INFORMACAO E CONHECIMENTO-DINC/CEAF 17.524,60 11.234,98 0,00 0,00 0,00 0,00 28.759,58 2.891,56 5.591,99 2.169,90 10.653,45 18.106,13 457,00 0,00 28/02/2014
551 307700 CRISTINA TEIXEIRA MARQUES OFICIAL DO MP ATIVO BELO HORIZONTE - COMARCA; CENTRAL DE APOIO TECNICO-SECRETARIA 5.006,87 500,69 0,00 0,00 0,00 0,00 5.507,56 605,83 521,83 0,00 1.127,66 4.379,90 457,00 0,00 28/02/2014
552 265300 CRISTOVAO SANCHES DE MEDEIROS ANALISTA DO MP ATIVO BELO HORIZONTE - COMARCA; BH-02PJ FAMILIA-SECRETARIA 9.358,72 1.871,74 0,00 0,00 0,00 0,00 11.230,46 1.235,35 1.823,66 0,00 3.059,01 8.171,45 457,00 0,00 28/02/2014
553 349800 CROZEIR LUIZ DA SILVA OFICIAL DO MP ATIVO UNAÍ - COMARCA; UNAI-PJ-SECRETARIA 4.848,98 484,90 0,00 0,00 0,00 0,00 5.333,88 586,73 429,90 0,00 1.016,63 4.317,25 4.228,85 324,98 28/02/2014
554 490500 CYNTHIA CRISTINA DE SOUZA OLIVEIRA VALENTE ANALISTA DO MP ATIVO BELO HORIZONTE - COMARCA; BH-09PJ AUDITORIA MILITAR 5.511,94 0,00 0,00 0,00 0,00 0,00 5.511,94 606,31 522,90 0,00 1.129,21 4.382,73 692,00 0,00 28/02/2014
555 389800 CYNTHIA GARIGLIO DOS SANTOS OFICIAL DO MP ATIVO PERDIZES - COMARCA; PERDIZES-PJ-SECRETARIA 3.814,70 381,47 0,00 0,00 0,00 0,00 4.196,17 461,58 171,25 0,00 632,83 3.563,34 692,00 0,00 28/02/2014
556 335101 CYNTHIA GONTIJO D ASSUNCAO ANALISTA DO MP ATIVO BELO HORIZONTE - COMARCA; PROC. JUSTICA DIR. DIFUSOS E COLETIVOS-SEC 6.265,58 375,93 0,00 0,00 2.213,84 0,00 8.855,35 730,57 1.408,16 0,00 2.138,73 6.716,62 457,00 0,00 28/02/2014
557 154000 CYNTHIA LOPES DOS SANTOS LAGES ASSESSOR ATIVO BELO HORIZONTE - COMARCA; PROCURADOR-GERAL DE JUSTICA- GABINETE 0,00 4.121,13 10.302,83 0,00 0,00 0,00 14.423,96 1.586,64 2.654,69 0,00 4.241,33 10.182,63 4.002,29 324,98 28/02/2014
558 269700 CYNTIA ROCHA CAVALCANTI OFICIAL DO MP ATIVO UBERLÂNDIA - COMARCA; UBERLANDIA-PJ-06PJ 6.578,93 1.315,79 0,00 0,00 0,00 0,00 7.894,72 1.017,29 1.437,33 0,00 2.454,62 5.440,10 457,00 1.353,40 28/02/2014
559 278000 DAIRTON LOPES MARTINS FILHO COORDENADOR/ANALISTA ATIVO BELO HORIZONTE - COMARCA; DIRETORIA DE SISTEMAS DE INFORMACAO 0,00 2.060,57 10.302,83 0,00 0,00 0,00 12.363,40 1.019,30 2.293,48 0,00 3.312,78 9.050,62 4.002,29 324,98 28/02/2014
560 392700 DALIANA CHAVES SILVA OFICIAL DO MP ATIVO ITAÚNA - COMARCA; ITAUNA-PJ-SECRETARIA 4.848,98 484,90 0,00 0,00 0,00 0,00 5.333,88 586,73 479,32 0,00 1.066,05 4.267,83 3.657,33 293,36 28/02/2014
561 476700 DALTON DAUD ANALISTA DO MP ATIVO ARAGUARI - COMARCA; ARAGUARI-PJ-05PJ 6.068,01 0,00 0,00 0,00 0,00 0,00 6.068,01 724,69 687,45 0,00 1.412,14 4.655,87 552,52 528,86 28/02/2014
562 548700 DALVA DE SOUZA ROCHA ALMEIDA OFICIAL DO MP ATIVO IPATINGA - COMARCA; IPATINGA-PJ-02PJ 3.147,52 0,00 0,00 0,00 0,00 0,00 3.147,52 346,23 49,06 0,00 395,29 2.752,23 457,00 0,00 28/02/2014
563 121900 DALVA MARIA DE LIMA ANALISTA DO MP ATIVO BELO HORIZONTE - COMARCA; EXTINTA-TUTELA DAS FUNDACOES-21 PJ- GABINETE 17.524,60 15.772,14 0,00 0,00 0,00 2.924,86 36.221,60 2.924,86 6.486,01 6.707,06 16.117,93 20.103,67 457,00 0,00 28/02/2014
564 426900 DANIEL ALVES DA SILVA OFICIAL DO MP ATIVO BELO HORIZONTE - COMARCA; EXTINTA - PROTOCOLO DA PGJ 3.694,41 221,66 0,00 0,00 0,00 0,00 3.916,07 430,77 133,85 0,00 564,62 3.351,45 1.062,78 18,54 28/02/2014
565 122000 DANIEL ANTONIO VIEIRA OFICIAL DO MP ATIVO ENTRE-RIOS DE MINAS - COMARCA; ENTRE RIOS DE MINAS-PJ-SECRETARIA 7.721,95 3.860,98 0,00 0,00 0,00 0,00 11.582,93 1.274,12 1.761,67 0,00 3.035,79 8.547,14 457,00 0,00 28/02/2014
566 272401 DANIEL AUGUSTO DOS REIS ANALISTA DO MP ATIVO BELO HORIZONTE - COMARCA; BH-22PJ PES COM DEF E IDOSOS-ASS JURIDICA 7.973,40 797,34 0,00 0,00 0,00 0,00 8.770,74 964,78 1.320,49 0,00 2.285,27 6.485,47 457,00 0,00 28/02/2014
567 536300 DANIEL BATISTA MARIANO OFICIAL DO MP ATIVO LAGOA SANTA - COMARCA; LAGOA SANTA-PJ-02PJ 2.859,08 0,00 0,00 0,00 953,03 0,00 3.812,11 314,50 189,61 0,00 504,11 3.308,00 465,96 0,00 28/02/2014
568 411000 DANIEL FERREIRA DA SILVA ANALISTA DO MP ATIVO GOVERNADOR VALADARES - COMARCA; GOVERNADOR VALADARES-PJ-15PJ 7.014,37 1.402,87 0,00 0,00 0,00 0,00 8.417,24 925,90 1.135,13 0,00 2.061,03 6.356,21 2.187,48 137,09 28/02/2014
569 540300 DANIEL FRANCO RIBEIRO OFICIAL DO MP ATIVO SÃO JOÃO DEL REI - COMARCA; SAO JOAO DEL REI-PJ-SECRETARIA 2.859,08 0,00 0,00 0,00 0,00 0,00 2.859,08 314,50 56,76 0,00 371,26 2.487,82 457,00 0,00 28/02/2014
570 309000 DANIEL GOMES DOS SANTOS ANALISTA DO MP ATIVO POÇOS DE CALDAS - COMARCA; POCOS DE CALDAS-PJ-03PJ 8.777,78 877,78 0,00 0,00 3.218,52 0,00 12.874,08 1.255,51 2.765,84 0,00 4.021,35 8.852,73 692,00 1.758,20 28/02/2014
571 554500 DANIEL GOMES PEREIRA OFICIAL DO MP ATIVO NANUQUE - COMARCA; NANUQUE-PJ-02PJ 2.859,08 0,00 0,00 0,00 0,00 0,00 2.859,08 314,50 56,76 0,00 371,26 2.487,82 457,00 0,00 28/02/2014
572 453000 DANIEL GONCALVES PEREIRA ANALISTA DO MP ATIVO UNAÍ - COMARCA; UNAI-PJ-SECRETARIA 6.265,58 375,93 0,00 0,00 0,00 0,00 6.641,51 730,57 799,36 0,00 1.529,93 5.111,58 4.002,29 324,98 28/02/2014
573 495500 DANIEL GUIMARAES CABRAL OFICIAL DO MP ATIVO LAGOA DA PRATA - COMARCA; LAGOA DA PRATA-PJ-02PJ 3.250,03 0,00 0,00 0,00 1.083,34 0,00 4.333,37 357,50 291,61 0,00 649,11 3.684,26 457,00 0,00 28/02/2014
574 442900 DANIEL GUIMARAES GONCALVES ANALISTA DO MP ATIVO UBERLÂNDIA - COMARCA; UBERLANDIA-PJ-03PJ 6.793,15 407,59 0,00 0,00 0,00 0,00 7.200,74 792,08 936,23 0,00 1.728,31 5.472,43 457,00 0,00 28/02/2014
575 491200 DANIEL HENRIQUE SOUTO COSTA ANALISTA DO MP ATIVO CORAÇÃO DE JESUS - COMARCA; CORACAO DE JESUS-PJ-UNPJ 6.068,01 0,00 0,00 0,00 0,00 0,00 6.068,01 667,48 659,00 0,00 1.326,48 4.741,53 457,00 0,00 28/02/2014
576 607400 DANIEL LIBANIO DE MENEZES DIAS OFICIAL DO MP ATIVO BELO HORIZONTE - COMARCA; BH-18PJ VIOLENCIA DOMESTICA-SECRETARIA 2.859,08 0,00 0,00 0,00 0,00 0,00 2.859,08 314,50 56,76 0,00 371,26 2.487,82 457,00 0,00 28/02/2014
577 464600 DANIEL PIACENTINI STIVANIN ANALISTA DO MP ATIVO ANDRADAS - COMARCA; ANDRADAS-PJ-02PJ 5.691,44 341,49 0,00 0,00 0,00 0,00 6.032,93 663,62 650,41 0,00 1.314,03 4.718,90 457,00 0,00 28/02/2014
578 417000 DANIEL QUEIROZ FERREIRA ANALISTA DO MP ATIVO SÃO SEBASTIÃO DO PARAÍSO - COMARCA; SAO SEBASTIAO DO PARAISO-PJ-05PJ 7.014,37 701,44 0,00 0,00 0,00 0,00 7.715,81 848,74 1.062,29 0,00 1.911,03 5.804,78 4.002,29 324,98 28/02/2014
579 396700 DANIEL SILVA CARNEVALLI DIRETOR/ANALISTA ATIVO BELO HORIZONTE - COMARCA; SUPERINTENDENCIA DE TECNOLOGIA DA INFORMACAO 0,00 1.335,40 13.353,95 0,00 0,00 0,00 14.689,35 964,78 2.948,11 0,00 3.912,89 10.776,46 457,00 0,00 28/02/2014
580 489300 DANIEL TABOZA ROCHA ANALISTA DO MP ATIVO IPATINGA - COMARCA; IPATINGA-PJ-08PJ 6.068,01 0,00 0,00 0,00 0,00 0,00 6.068,01 667,48 659,00 0,00 1.326,48 4.741,53 457,00 0,00 28/02/2014
581 414100 DANIEL TARDELI VALADAO ANALISTA DO MP ATIVO TRÊS CORACOES - COMARCA; TRES CORACOES-PJ-02PJ 7.014,37 701,44 0,00 0,00 0,00 0,00 7.715,81 848,74 1.062,29 0,00 1.911,03 5.804,78 457,00 0,00 28/02/2014
582 446600 DANIEL VIEIRA BUENO OFICIAL DO MP ATIVO RIO PIRACICABA - COMARCA; RIO PIRACICABA-PJ-UNPJ 4.000,95 240,06 0,00 0,00 0,00 0,00 4.241,01 466,51 246,30 0,00 712,81 3.528,20 457,00 0,00 28/02/2014
583 253200 DANIELA BATISTA LIMA BARBOSA ASSESSOR ATIVO BELO HORIZONTE - COMARCA; CENTRAL DE APOIO TECN-SETOR DE MEIO AMBIENTE 0,00 393,88 3.938,84 0,00 0,00 0,00 4.332,72 482,93 366,07 0,00 849,00 3.483,72 457,00 0,00 28/02/2014
584 505800 DANIELA BORGES DE MATTOS RESENDE ANALISTA DO MP ATIVO JUIZ DE FORA - COMARCA; JUIZ DE FORA-PJ-20PJ 6.068,01 0,00 0,00 0,00 0,00 0,00 6.068,01 667,48 659,00 0,00 1.326,48 4.741,53 692,00 0,00 28/02/2014
585 478000 DANIELA CARVALHO SOARES ANALISTA DO MP ATIVO SÃO JOÃO DEL REI - COMARCA; SAO JOAO DEL REI-PJ-06PJ 6.265,58 375,93 0,00 0,00 2.213,84 0,00 8.855,35 730,57 1.408,16 0,00 2.138,73 6.716,62 457,00 0,00 28/02/2014
586 275900 DANIELA CHAGAS SODRE ANALISTA DO MP ATIVO BELO HORIZONTE - COMARCA; CENTRAL DE APOIO TECNICO-SETOR CONTABIL 9.663,38 1.932,68 0,00 0,00 0,00 0,00 11.596,06 1.275,57 1.962,56 0,00 3.238,13 8.357,93 692,00 0,00 28/02/2014
587 234301 DANIELA CRUZ SOARES ANALISTA DO MP ATIVO BELO HORIZONTE - COMARCA; CAO-ORDEM ECONOMICA E TRIBUTARIA-SECRETARIA 9.977,95 1.995,59 0,00 0,00 0,00 0,00 11.973,54 1.317,09 2.104,37 0,00 3.421,46 8.552,08 4.002,29 324,98 28/02/2014
588 301000 DANIELA DE ALMEIDA E OLIVEIRA ANALISTA DO MP ATIVO BELO HORIZONTE - COMARCA; DIRETORIA DE REDES E BANCOS DE DADOS 9.663,38 966,34 0,00 0,00 0,00 0,00 10.629,72 1.169,27 1.775,47 0,00 2.944,74 7.684,98 457,00 0,00 28/02/2014
589 296000 DANIELA DE AZEVEDO SILVA ANALISTA DO MP ATIVO ITAJUBA - COMARCA; ITAJUBA-PJ-03PJ 8.501,02 1.700,20 0,00 0,00 0,00 0,00 10.201,22 1.122,13 1.670,60 0,00 2.792,73 7.408,49 4.002,29 324,98 28/02/2014
590 453500 DANIELA DE CASTRO SOUSA BARBOSA ANALISTA DO MP ATIVO BELO HORIZONTE - COMARCA; BH-08PJ JUIZADO ESPECIAL-SECRETARIA 6.265,58 375,93 0,00 0,00 0,00 0,00 6.641,51 893,39 1.161,63 0,00 2.055,02 4.586,49 457,00 1.480,18 28/02/2014
591 506000 DANIELA DE OLIVEIRA CAVALIERI ANALISTA DO MP ATIVO BELO HORIZONTE - COMARCA; BH-14PJ DEFESA CONSUMIDOR-GAB 005PJ 5.006,87 0,00 0,00 0,00 0,00 0,00 5.006,87 550,76 399,66 0,00 950,42 4.056,45 457,00 0,00 28/02/2014
592 546200 DANIELA DE VILHENA LEMES GONCALVES OFICIAL DO MP ATIVO TRÊS CORACOES - COMARCA; TRES CORACOES-PJ-05PJ 2.859,08 0,00 0,00 0,00 0,00 0,00 2.859,08 314,50 29,81 0,00 344,31 2.514,77 457,00 0,00 28/02/2014
593 393700 DANIELA GOMES CARDOSO OFICIAL DO MP ATIVO SABARÁ - COMARCA; SABARA-PJ-02PJ 3.147,52 314,75 0,00 0,00 0,00 0,00 3.462,27 380,85 73,27 0,00 454,12 3.008,15 692,00 0,00 28/02/2014
594 356400 DANIELA LEAL FERRAZ ANALISTA DO MP ATIVO MONTES CLAROS - COMARCA; COORD REG PJ DEF EDUC DIR CRIANCA ADOL NORTE 8.233,02 823,30 0,00 0,00 0,00 0,00 9.056,32 996,20 1.390,38 0,00 2.386,58 6.669,74 4.002,29 324,98 28/02/2014
595 501000 DANIELA LOURENCO SANTOS DA SILVA GUIMARAES ANALISTA DO MP ATIVO BELO HORIZONTE - COMARCA; BH-12PJ JUIZO CRIMINAL 6.068,01 0,00 0,00 0,00 0,00 0,00 6.068,01 667,48 659,00 0,00 1.326,48 4.741,53 457,00 0,00 28/02/2014
596 195801 DANIELA MARIA DE OLIVEIRA QUEIROZ ANALISTA DO MP ATIVO ARAGUARI - COMARCA; ARAGUARI-PJ-06PJ 6.470,92 1.402,87 0,00 0,00 0,00 0,00 7.873,79 925,90 1.084,52 0,00 2.010,42 5.863,37 457,00 0,00 28/02/2014
597 511400 DANIELA MARIA LARA DE OLIVEIRA ANALISTA DO MP ATIVO BOA ESPERANÇA - COMARCA; BOA ESPERANCA-PJ-02PJ 5.511,94 0,00 0,00 0,00 1.837,31 0,00 7.349,25 606,31 978,74 0,00 1.585,05 5.764,20 2.661,78 202,10 28/02/2014
598 252101 DANIELA PAULA ALVES PENA ANALISTA DO MP ATIVO CONTAGEM - COMARCA; CONTAGEM-PJ-APO TECNICO 7.973,40 1.594,68 0,00 0,00 0,00 0,00 9.568,08 1.052,49 1.515,64 0,00 2.568,13 6.999,95 457,00 0,00 28/02/2014
599 604700 DANIELA PEIXOTO NOGUEIRA OFICIAL DO MP ATIVO BELO HORIZONTE - COMARCA; DIRET DE FORMACAO, APERFEIC. E POS-GRADUACAO 3.147,52 0,00 0,00 0,00 0,00 0,00 3.147,52 346,23 85,16 0,00 431,39 2.716,13 457,00 0,00 28/02/2014
600 429600 DANIELA PIMENTA NUNES MACHADO ANALISTA DO MP ATIVO BELO HORIZONTE - COMARCA; BH-05PJ JUÍZO DE SUCESSÕES 6.793,15 407,59 0,00 0,00 0,00 0,00 7.200,74 792,08 936,23 0,00 1.728,31 5.472,43 457,00 0,00 28/02/2014
601 424300 DANIELA PORTO PINTO OFICIAL DO MP ATIVO BELO HORIZONTE - COMARCA; EXTINTA-DEFESA DA SAUDE-19 PJ-GABINETE 3.577,90 357,79 0,00 0,00 0,00 0,00 3.935,69 432,93 190,38 0,00 623,31 3.312,38 457,00 0,00 28/02/2014
602 462000 DANIELA SOUSA GOMES DO AMARAL ANALISTA DO MP ATIVO BETIM - COMARCA; BETIM-PJ-03PJ 6.265,58 375,93 0,00 0,00 0,00 0,00 6.641,51 730,57 799,36 0,00 1.529,93 5.111,58 692,00 0,00 28/02/2014
603 427000 DANIELA TEIXEIRA DINIZ ANDRADE ANALISTA DO MP ATIVO BELO HORIZONTE - COMARCA; DIRETORIA DE PROJETOS DE EDIFICACOES 6.265,58 375,93 0,00 0,00 0,00 0,00 6.641,51 730,57 749,94 0,00 1.480,51 5.161,00 692,00 0,00 28/02/2014
604 337200 DANIELA TOLEDO SENIUK ANALISTA DO MP ATIVO BELO HORIZONTE - COMARCA; CGMP-SECRETARIA DA CORREGEDORIA-GERAL DO MP 7.478,49 747,85 0,00 0,00 0,00 0,00 8.226,34 904,90 1.137,83 0,00 2.042,73 6.183,61 4.237,29 324,98 28/02/2014
605 605600 DANIELE ALZIRA SILVA CABRAL MOREIRA OFICIAL DO MP ATIVO BELO HORIZONTE - COMARCA; BH-10PJ EXECUÇÃO PENAL 3.147,52 0,00 0,00 0,00 0,00 0,00 3.147,52 346,23 85,16 0,00 431,39 2.716,13 457,00 0,00 28/02/2014
606 195500 DANIELE CHAVES FONSECA OFICIAL DO MP ATIVO BELO HORIZONTE - COMARCA; ASSESSORIA ESPECIAL DO PGJ 8.777,78 1.755,56 0,00 0,00 0,00 0,00 10.533,34 1.158,67 1.751,88 0,00 2.910,55 7.622,79 4.002,29 324,98 28/02/2014
607 323400 DANIELE MEGALE SANTINI OFICIAL DO MP ATIVO BELO HORIZONTE - COMARCA; ASSESS TECNICO-JUR JUNTO AS PROC. DE JUST 5.691,44 569,14 0,00 0,00 0,00 0,00 6.260,58 688,66 656,71 0,00 1.345,37 4.915,21 4.237,29 324,98 28/02/2014
608 357900 DANIELE REJANE PINTO VERSIEUX OFICIAL DO MP ATIVO PEDRO LEOPOLDO - COMARCA; PEDRO LEOPOLDO-PJ-03PJ 5.169,86 516,99 0,00 0,00 0,00 0,00 5.686,85 625,55 565,71 0,00 1.191,26 4.495,59 2.598,56 196,31 28/02/2014
609 389500 DANIELE VASCONCELOS AMORIM OFICIAL DO MP ATIVO SÃO SEBASTIÃO DO PARAÍSO - COMARCA; SAO SEBASTIAO DO PARAISO-PJ-04PJ 5.006,87 500,69 0,00 0,00 0,00 0,00 5.507,56 605,83 521,83 0,00 1.127,66 4.379,90 457,00 0,00 28/02/2014
610 265000 DANIELLE CASTANHEIRA SCALABRINI OFICIAL DO MP ATIVO BELO HORIZONTE - COMARCA; JUNTA RECURSAL DO PROCON ESTADUAL 5.691,44 1.138,29 0,00 0,00 0,00 0,00 6.829,73 751,27 697,17 0,00 1.448,44 5.381,29 4.002,29 324,98 28/02/2014
611 490100 DANIELLE DE AVILA SILVA LOPES ANALISTA DO MP ATIVO BELO HORIZONTE - COMARCA; PROC. JUSTICA DIR. DIFUSOS E COLETIVOS-SEC 6.068,01 1.213,60 0,00 0,00 0,00 0,00 7.281,61 800,98 956,02 0,00 1.757,00 5.524,61 457,00 0,00 28/02/2014
612 549600 DANIELLE GOMES LOPES RODRIGUES OFICIAL DO MP ATIVO ITABIRA - COMARCA; ITABIRA-PJ-03PJ 3.147,52 0,00 0,00 0,00 0,00 0,00 3.147,52 346,23 85,16 0,00 431,39 2.716,13 692,00 0,00 28/02/2014
613 380800 DANILLO RIBEIRO ANTUNES ANALISTA DO MP ATIVO MONTES CLAROS - COMARCA; MONTES CLAROS-PJ-SECRETARIA 7.973,40 797,34 0,00 0,00 0,00 0,00 8.770,74 964,78 1.221,65 0,00 2.186,43 6.584,31 4.002,29 324,98 28/02/2014
614 453700 DANILO BOTELHO DE CARVALHO ASSESSOR/ANALISTA ATIVO BELO HORIZONTE - COMARCA; DIRETORIA DE ADMINISTRACAO FINANCEIRA 0,00 478,40 7.973,40 0,00 0,00 0,00 8.451,80 730,57 1.297,19 0,00 2.027,76 6.424,04 4.002,29 324,98 28/02/2014
615 391200 DANILO D'AVILA MENDES ANALISTA DO MP ATIVO SÃO ROMÃO - COMARCA; SAO ROMAO-PJ-UNPJ 7.973,40 797,34 0,00 0,00 0,00 0,00 8.770,74 964,78 1.320,49 0,00 2.285,27 6.485,47 4.002,29 324,98 28/02/2014
616 494900 DANILO GAVIAO AVELINO DE MELLO ANALISTA DO MP ATIVO POUSO ALEGRE - COMARCA; POUSO ALEGRE-PJ-08PJ 6.068,01 0,00 0,00 0,00 0,00 0,00 6.068,01 667,48 659,00 0,00 1.326,48 4.741,53 4.002,29 324,98 28/02/2014
617 604300 DANILO NASCIMENTO SALGADO ANALISTA DO MP ATIVO JANAÚBA - COMARCA; JANAUBA-PJ-01PJ 4.404,59 0,00 0,00 0,00 0,00 0,00 4.404,59 484,50 279,06 0,00 763,56 3.641,03 457,00 0,00 28/02/2014
618 600700 DANILO OLIVEIRA CARILLI OFICIAL DO MP ATIVO ARAGUARI - COMARCA; ARAGUARI-PJ-SECRETARIA 2.859,08 0,00 0,00 0,00 0,00 0,00 2.859,08 314,50 56,76 0,00 371,26 2.487,82 457,00 0,00 28/02/2014
619 550800 DANTE MENDES BIANCHETTI FILHO ANALISTA DO MP ATIVO BARBACENA - COMARCA; BARBACENA-PJ-09PJ 4.404,59 0,00 0,00 0,00 0,00 0,00 4.404,59 484,50 279,06 0,00 763,56 3.641,03 457,00 0,00 28/02/2014
620 298300 DANUZA MONICA DE SOUZA DINIZ ANALISTA DO MP ATIVO DIVINÓPOLIS - COMARCA; DIVINOPOLIS-PJ-02PJ 7.721,95 772,20 0,00 0,00 0,00 0,00 8.494,15 934,36 1.203,37 0,00 2.137,73 6.356,42 457,00 0,00 28/02/2014
621 398700 DARCY LUIZ MILEO GREGATTI OFICIAL DO MP ATIVO LAMBARI - COMARCA; LAMBARI-PJ-SECRETARIA 4.131,19 413,12 0,00 0,00 1.514,77 0,00 6.059,08 499,87 702,63 0,00 1.202,50 4.856,58 457,00 0,00 28/02/2014
622 406200 DARIANA AUGUSTA DE TOLEDO PATROCINIO ASSESSOR/OFICIAL ATIVO BELO HORIZONTE - COMARCA; EXTINTA - DIRETORIA DE CONTRATOS E CONVÊNIOS 0,00 797,34 7.973,40 0,00 0,00 0,00 8.770,74 605,83 1.841,99 0,00 2.447,82 6.322,92 4.002,29 1.862,40 28/02/2014
623 305000 DARLI LEITE DE OLIVEIRA OFICIAL DO MP ATIVO ARAÇUAÍ - COMARCA; ARACUAI-PJ-01PJ 4.696,06 469,61 0,00 0,00 0,00 0,00 5.165,67 616,93 398,83 0,00 1.015,76 4.149,91 2.312,38 564,33 28/02/2014
624 122200 DAVID RIBEIRO DOS SANTOS ANALISTA DO MP ATIVO BORDA DA MATA - COMARCA; BORDA DA MATA-PJ-UNPJ 14.432,31 10.102,61 0,00 0,00 0,00 0,00 24.534,92 2.930,17 5.693,48 0,00 8.623,65 15.911,27 4.002,29 2.427,98 28/02/2014
625 389400 DAWSON CANEDO MARQUES OFICIAL DO MP ATIVO GOVERNADOR VALADARES - COMARCA; GOVERNADOR VALADARES-PJ-03PJ 5.006,87 500,69 0,00 0,00 0,00 0,00 5.507,56 605,83 472,41 0,00 1.078,24 4.429,32 692,00 0,00 28/02/2014
626 537200 DAYANE TEIXEIRA DE OLIVEIRA ANALISTA DO MP ATIVO BONFINÓPOLIS DE MINAS - COMARCA; BONFINOPOLIS DE MINAS-PJ-UNPJ 4.404,59 0,00 0,00 0,00 0,00 0,00 4.404,59 484,50 279,06 0,00 763,56 3.641,03 457,00 0,00 28/02/2014
627 256100 DAYSE ROSALY PEREIRA BATISTA OFICIAL DO MP ATIVO BELO HORIZONTE - COMARCA; PROCON-MG-SECRETARIA DE FISCALIZACOES 5.006,87 2.109,69 0,00 0,00 0,00 0,00 7.116,56 707,88 905,42 0,00 1.613,30 5.503,26 4.002,29 752,05 28/02/2014
628 311901 DEBORA APARECIDA DA SILVA ASSESSOR ATIVO BELO HORIZONTE - COMARCA; BH-23PJ CIVEL-SETOR ATEND PUB 0,00 0,00 2.359,08 0,00 0,00 0,00 2.359,08 309,77 40,42 0,00 350,19 2.008,89 457,00 0,00 28/02/2014
629 194301 DEBORA APARECIDA DOS SANTOS ANALISTA DO MP ATIVO UBERLÂNDIA - COMARCA; UBERLANDIA-PJ-SEC FAMILIA 10.302,83 2.060,57 0,00 0,00 0,00 0,00 12.363,40 1.359,97 2.150,37 0,00 3.510,34 8.853,06 4.002,29 324,98 28/02/2014
630 518800 DEBORA CARVALHO FIORATTO OFICIAL DO MP ATIVO BELO HORIZONTE - COMARCA; BH-12PJ JUIZO CRIMINAL 3.938,84 0,00 0,00 0,00 0,00 0,00 3.938,84 520,62 328,51 0,00 849,13 3.089,71 457,00 914,37 28/02/2014
631 444900 DEBORA CLAUDIA PEREIRA ALVES ANALISTA DO MP ATIVO BELO HORIZONTE - COMARCA; BH-08PJ JUIZADO ESPECIAL-SECRETARIA 6.793,15 407,59 0,00 0,00 0,00 0,00 7.200,74 792,08 886,81 0,00 1.678,89 5.521,85 692,00 0,00 28/02/2014
632 555700 DEBORA CRISTINA BUITRAGO PEREIRA ANALISTA DO MP ATIVO BELO HORIZONTE - COMARCA; EXTINTA - DIRETORIA DE CONTRATOS E CONVÊNIOS 4.404,59 0,00 0,00 0,00 0,00 0,00 4.404,59 484,50 279,06 0,00 763,56 3.641,03 457,00 0,00 28/02/2014
633 513100 DEBORA CRISTINA PEREIRA DE OLIVEIRA ANALISTA DO MP ATIVO BELO HORIZONTE - COMARCA; BH-23PJ CIVEL-SETOR JURIDICO 5.511,94 0,00 0,00 0,00 0,00 0,00 5.511,94 606,31 522,90 0,00 1.129,21 4.382,73 692,00 0,00 28/02/2014
634 612100 DEBORA DUARTE SILVA DE SOUZA OFICIAL DO MP ATIVO RIBEIRÃO DAS NEVES - COMARCA; RIBEIRAO DAS NEVES-PJ-06PJ 2.668,47 0,00 0,00 0,00 0,00 0,00 2.668,47 293,53 44,04 0,00 337,57 2.330,90 457,00 0,00 28/02/2014
635 539700 DEBORA SALES CARVALHO ANALISTA DO MP ATIVO PATOS DE MINAS - COMARCA; COORD REG PJ DEF EDU DIR CRI ADO AL PAR NOROE 4.404,59 0,00 0,00 0,00 0,00 0,00 4.404,59 484,50 279,06 0,00 763,56 3.641,03 457,00 0,00 28/02/2014
636 424100 DEBORA SANTOS E ALVES ANALISTA DO MP ATIVO JANUÁRIA - COMARCA; JANUARIA-PJ-01PJ 7.014,37 701,44 0,00 0,00 0,00 0,00 7.715,81 848,74 1.062,29 0,00 1.911,03 5.804,78 4.002,29 324,98 28/02/2014
637 426301 DEBORA SCUCATO MACHADO SOARES OFICIAL DO MP ATIVO NOVA LIMA - COMARCA; NOVA LIMA-PJ-01PJ 3.147,52 0,00 0,00 0,00 0,00 0,00 3.147,52 346,23 85,16 0,00 431,39 2.716,13 2.580,51 94,43 28/02/2014
638 550200 DEBORA TRINDADE LEITE ANALISTA DO MP ATIVO MANHUAÇU - COMARCA; MANHUACU-PJ-05PJ 4.404,59 0,00 0,00 0,00 0,00 0,00 4.404,59 484,50 199,07 0,00 683,57 3.721,02 457,00 0,00 28/02/2014
639 438000 DEBORAH COSTA LAGE ANALISTA DO MP ATIVO BELO HORIZONTE - COMARCA; ASSESS TECNICO-JUR JUNTO AS PROC. DE JUST 6.793,15 407,59 0,00 0,00 0,00 0,00 7.200,74 792,08 936,23 0,00 1.728,31 5.472,43 4.002,29 324,98 28/02/2014
640 475700 DEBORAH LOBAO LACERDA OFICIAL DO MP ATIVO BELO HORIZONTE - COMARCA; BH-23PJ INFRACIONAL 3.694,41 221,66 0,00 0,00 0,00 0,00 3.916,07 430,77 187,77 0,00 618,54 3.297,53 457,00 0,00 28/02/2014
641 551900 DEISY ROCHA DA SILVA ANALISTA DO MP ATIVO AREADO - COMARCA; AREADO-PJ-UNPJ 4.404,59 0,00 0,00 0,00 0,00 0,00 4.404,59 484,50 279,06 0,00 763,56 3.641,03 457,00 0,00 28/02/2014
642 501900 DELI RAQUEL RODRIGUES ANALISTA DO MP ATIVO ITUIUTABA - COMARCA; ITUIUTABA-PJ-04PJ 6.068,01 0,00 0,00 0,00 0,00 0,00 6.068,01 667,48 659,00 0,00 1.326,48 4.741,53 457,00 0,00 28/02/2014
643 378600 DELIANE LOPES VIEIRA BREIJAO NEVES ANALISTA DO MP ATIVO JUIZ DE FORA - COMARCA; JUIZ DE FORA-PJ-12PJ 7.973,40 797,34 0,00 0,00 0,00 0,00 8.770,74 964,78 1.320,49 0,00 2.285,27 6.485,47 457,00 0,00 28/02/2014
644 522500 DELMINDA MARIA LEAO E SILVA OFICIAL DO MP ATIVO ITAGUARA - COMARCA; ITAGUARA-PJ-UNPJ 2.952,15 2.066,52 0,00 0,00 0,00 0,00 5.018,67 552,05 321,16 0,00 873,21 4.145,46 457,00 0,00 28/02/2014
645 487700 DENIA FERREIRA MAIA SILVA OFICIAL DO MP ATIVO TRÊS CORACOES - COMARCA; TRES CORACOES-PJ-01PJ 3.577,90 0,00 0,00 0,00 0,00 0,00 3.577,90 393,57 115,66 0,00 509,23 3.068,67 692,00 0,00 28/02/2014
646 424800 DENIS APARECIDO CAMPOS DELFINO ANALISTA DO MP ATIVO LUZ - COMARCA; LUZ-PJ-UNPJ 7.014,37 701,44 0,00 0,00 0,00 0,00 7.715,81 921,90 998,09 0,00 1.919,99 5.795,82 4.237,29 1.071,21 28/02/2014
647 381400 DENISE ANGELICA MELLO DE PAULA OFICIAL DO MP ATIVO BELO HORIZONTE - COMARCA; BH-18PJ DIREITOS HUMANOS-SECRETARIA 5.006,87 500,69 0,00 0,00 0,00 0,00 5.507,56 605,83 521,83 0,00 1.127,66 4.379,90 457,00 0,00 28/02/2014
648 196300 DENISE DE ALMEIDA VILELA FURTADO OFICIAL DO MP ATIVO BELO HORIZONTE - COMARCA; CENTRAL DE APOIO TECNICO-SECRETARIA 6.793,15 1.358,63 0,00 0,00 0,00 0,00 8.151,78 896,70 1.119,58 0,00 2.016,28 6.135,50 4.002,29 324,98 28/02/2014
649 336900 DENISE DE SOUSA MORAES SILVA OFICIAL DO MP ATIVO MATEUS LEME - COMARCA; MATEUS LEME-PJ-02PJ 4.696,06 469,61 0,00 0,00 0,00 0,00 5.165,67 568,22 438,15 0,00 1.006,37 4.159,30 457,00 0,00 28/02/2014
650 271100 DENISE ELOY PEIXOTO OFICIAL DO MP ATIVO BELO HORIZONTE - COMARCA; DIRET DE DESENV DE RECURSOS HUMANOS-DDRH 6.578,93 1.315,79 0,00 0,00 0,00 0,00 7.894,72 868,42 1.106,08 0,00 1.974,50 5.920,22 4.002,29 324,98 28/02/2014
651 385400 DENISE FREITAS DE ASSIS OFICIAL DO MP ATIVO CARATINGA - COMARCA; CARATINGA-PJ-01PJ 4.848,98 1.593,22 0,00 0,00 0,00 0,00 6.442,20 586,73 685,26 0,00 1.271,99 5.170,21 457,00 0,00 28/02/2014
652 437100 DENISE NOGUEIRA MAGRI MENDES ANALISTA DO MP ATIVO BELO HORIZONTE - COMARCA; CAO-ORDEM ECONOMICA E TRIBUTARIA-SECRETARIA 6.793,15 1.358,63 0,00 0,00 0,00 0,00 8.151,78 896,70 1.020,74 0,00 1.917,44 6.234,34 457,00 0,00 28/02/2014
653 524700 DENISE RAMOS GUIMARAES OFICIAL DO MP ATIVO SANTA LUZIA - COMARCA; SANTA LUZIA-PJ-SECRETARIA 3.250,03 0,00 0,00 0,00 0,00 0,00 3.250,03 357,50 98,85 0,00 456,35 2.793,68 457,00 0,00 28/02/2014
654 239100 DENISE RIBEIRO DOS SANTOS CAETANO OFICIAL DO MP ATIVO ITANHANDU - COMARCA; ITANHANDU-PJ-SECRETARIA 6.793,15 1.358,63 0,00 0,00 0,00 0,00 8.151,78 896,70 1.070,16 0,00 1.966,86 6.184,92 4.002,29 324,98 28/02/2014
655 325500 DENISE ROSA TORRES ASSESSOR/OFICIAL ATIVO BELO HORIZONTE - COMARCA; DIRETORIA DE PESSOAL ADMINISTRATIVO - DPAD 0,00 877,78 8.777,78 0,00 0,00 0,00 9.655,56 711,08 1.633,58 0,00 2.344,66 7.310,90 4.002,29 324,98 28/02/2014
656 437200 DENISE VIVIANE DOS SANTOS ANALISTA DO MP ATIVO BELO HORIZONTE - COMARCA; ASSESS TECNICA DA CORREGEDORIA-GERAL DO MP 6.793,15 407,59 0,00 0,00 0,00 0,00 7.200,74 792,08 936,23 0,00 1.728,31 5.472,43 457,00 0,00 28/02/2014
657 267900 DENISIA DE ALMEIDA SALES OFICIAL DO MP ATIVO BELO HORIZONTE - COMARCA; CAO-CRIMINAL-SECRETARIA 4.696,06 939,21 0,00 0,00 0,00 0,00 5.635,27 619,88 454,24 0,00 1.074,12 4.561,15 457,00 0,00 28/02/2014
658 480300 DESIREE ARANTES FERREIRA GOUVEA OFICIAL DO MP ATIVO PRATÁPOLIS - COMARCA; PRATAPOLIS-PJ-UNPJ 3.355,81 201,35 0,00 0,00 0,00 0,00 3.557,16 417,60 168,91 0,00 586,51 2.970,65 457,00 276,59 28/02/2014
659 355300 DEYSE CRISTINA MORAIS OFICIAL DO MP ATIVO PASSOS - COMARCA; PASSOS-PJ-02PJ 5.338,12 533,81 0,00 0,00 0,00 0,00 5.871,93 645,91 611,01 0,00 1.256,92 4.615,01 457,00 0,00 28/02/2014
660 523700 DIANA CAMPOS RESENDE OFICIAL DO MP ATIVO SÃO JOÃO DEL REI - COMARCA; SAO JOAO DEL REI-PJ-04PJ 3.577,90 1.431,16 0,00 0,00 0,00 0,00 5.009,06 551,00 319,23 0,00 870,23 4.138,83 457,00 0,00 28/02/2014
661 241900 DIANA CARDOSO MARTINS OFICIAL DO MP ATIVO BELO HORIZONTE - COMARCA; BH-23PJ CIVEL-SEC EXP CIVEIS 5.169,86 1.033,97 0,00 0,00 0,00 0,00 6.203,83 682,42 692,24 0,00 1.374,66 4.829,17 457,00 0,00 28/02/2014
662 410100 DIANA GORDILHO SILVEIRA SENA ANALISTA DO MP ATIVO BELO HORIZONTE - COMARCA; ASSESS TECNICO-JUR JUNTO AS PROC. DE JUST 7.014,37 701,44 0,00 0,00 0,00 0,00 7.715,81 848,74 1.062,29 0,00 1.911,03 5.804,78 4.002,29 324,98 28/02/2014
663 553000 DIANA MARIA MARQUES ANALISTA DO MP ATIVO BETIM - COMARCA; BETIM-PJ-06PJ 4.404,59 0,00 0,00 0,00 0,00 0,00 4.404,59 484,50 238,63 0,00 723,13 3.681,46 457,00 0,00 28/02/2014
664 520000 DIARLE TOSTE DOS SANTOS ANALISTA DO MP ATIVO RIO POMBA - COMARCA; RIO POMBA-PJ-UNPJ 6.068,01 0,00 0,00 0,00 0,00 0,00 6.068,01 789,81 714,88 0,00 1.504,69 4.563,32 692,00 1.112,15 28/02/2014
665 539800 DIEGO CAMARGOS RODRIGUES OFICIAL DO MP ATIVO CONTAGEM - COMARCA; CONTAGEM-PJ-09PJ 2.859,08 0,00 0,00 0,00 0,00 0,00 2.859,08 314,50 56,76 0,00 371,26 2.487,82 457,00 0,00 28/02/2014
666 607300 DIEGO CERVEIRA DE SOUZA ANALISTA DO MP ATIVO PATOS DE MINAS - COMARCA; COORD REG BACIAS PARACATU,URUCUIA E ABAETE 4.404,59 0,00 0,00 0,00 0,00 0,00 4.404,59 484,50 279,06 0,00 763,56 3.641,03 457,00 0,00 28/02/2014
667 388100 DIEGO CESAR DO NASCIMENTO PERONI OFICIAL DO MP ATIVO CASSIA - COMARCA; CASSIA-PJ-02PJ 3.814,70 381,47 0,00 0,00 0,00 0,00 4.196,17 461,58 237,32 0,00 698,90 3.497,27 457,00 0,00 28/02/2014
668 446900 DIEGO DE FREITAS OFICIAL DO MP ATIVO UBERABA - COMARCA; UBERABA-PJ-06PJ 3.694,41 221,66 0,00 0,00 0,00 0,00 3.916,07 430,77 187,77 0,00 618,54 3.297,53 457,00 0,00 28/02/2014
669 607500 DIEGO DE SOUZA COSTA ANALISTA DO MP ATIVO POUSO ALEGRE - COMARCA; POUSO ALEGRE-PJ-09PJ 4.404,59 0,00 0,00 0,00 0,00 0,00 4.404,59 484,50 279,06 0,00 763,56 3.641,03 457,00 0,00 28/02/2014
670 379801 DIEGO OSORIO DA SILVA CORDEIRO ANALISTA DO MP ATIVO CONSELHEIRO LAFAIETE - COMARCA; CONSELHEIRO LAFAIETE-PJ-08PJ 4.848,98 0,00 0,00 0,00 1.616,33 0,00 6.465,31 533,39 805,13 0,00 1.338,52 5.126,79 457,00 0,00 28/02/2014
671 288800 DILENE NEPOMUCENO ALVES OFICIAL DO MP ATIVO BELO HORIZONTE - COMARCA; DIRETORIA DE PESSOAL ADMINISTRATIVO - DPAD 6.068,01 1.213,60 0,00 0,00 0,00 0,00 7.281,61 800,98 956,02 0,00 1.757,00 5.524,61 457,00 0,00 28/02/2014
672 270101 DILSON DO AMARAL ANALISTA DO MP ATIVO RIO CASCA - COMARCA; RIO CASCA-PJ-UNPJ 4.848,98 0,00 0,00 0,00 0,00 0,00 4.848,98 533,39 368,05 0,00 901,44 3.947,54 457,00 0,00 28/02/2014
673 466000 DIMITRI GUDE MARCIAL ANALISTA DO MP ATIVO NANUQUE - COMARCA; NANUQUE-PJ-02PJ 5.691,44 0,00 0,00 0,00 0,00 0,00 5.691,44 934,72 993,05 0,00 1.927,77 3.763,67 692,00 2.806,06 28/02/2014
674 516300 DINORA APARECIDA MACEDO BRANDAO ANALISTA DO MP ATIVO BELO HORIZONTE - COMARCA; PROC. JUSTICA DIR. DIFUSOS E COLETIVOS-SEC 5.006,87 0,00 0,00 0,00 0,00 0,00 5.006,87 550,76 399,66 0,00 950,42 4.056,45 3.461,12 225,31 28/02/2014
675 511700 DIOGENES HENRIQUES PEREIRA LOURENCO ANALISTA DO MP ATIVO CONTAGEM - COMARCA; CONTAGEM-PJ-22PJ 6.068,01 0,00 0,00 0,00 0,00 0,00 6.068,01 667,48 659,00 0,00 1.326,48 4.741,53 457,00 0,00 28/02/2014
676 604100 DIOGO CESAR DE OLIVEIRA HONORIO ASSESSOR ATIVO PIUMHI - COMARCA; PIUMHI-PJ-02PJ 0,00 0,00 2.359,08 0,00 0,00 0,00 2.359,08 309,77 53,89 0,00 363,66 1.995,42 457,00 0,00 28/02/2014
677 387800 DIOGO FELIX DA SILVA OFICIAL DO MP ATIVO MANTENA - COMARCA; MANTENA-PJ-SECRETARIA 3.814,70 381,47 0,00 0,00 0,00 0,00 4.196,17 461,58 237,32 0,00 698,90 3.497,27 4.002,29 265,90 28/02/2014
678 259600 DIOGO MESQUITA MAIA ANALISTA DO MP ATIVO BELO HORIZONTE - COMARCA; DIRET DE APOIO AS PROCURADORIAS DE JUSTICA 9.358,72 6.551,11 0,00 0,00 0,00 0,00 15.909,83 1.750,08 2.919,52 0,00 4.669,60 11.240,23 692,00 0,00 28/02/2014
679 364100 DIOGO OLIVEIRA CANUTO OFICIAL DO MP ATIVO BELO HORIZONTE - COMARCA; EXTINTA-04ª PJ JUÍZO REG PÚBLICOS-SECRETARIA 5.511,94 551,19 0,00 0,00 0,00 0,00 6.063,13 666,94 657,80 0,00 1.324,74 4.738,39 2.974,84 230,80 28/02/2014
680 386700 DIRCIMAR FERNANDES CARNEIRO OFICIAL DO MP ATIVO VISCONDE DO RIO BRANCO - COMARCA; VISCONDE DO RIO BRANCO-PJ-03PJ 5.006,87 2.503,44 0,00 0,00 2.503,44 0,00 10.013,75 896,95 1.858,02 0,00 2.754,97 7.258,78 485,99 643,80 28/02/2014
681 113800 DIRSON APARECIDO GUIMARAES ASSESSOR ATIVO BELO HORIZONTE - COMARCA; DIVISAO DE MANUTENCAO PREDIAL 0,00 3.151,07 3.938,84 0,00 0,00 0,00 7.089,91 482,93 492,62 0,00 975,55 6.114,36 457,00 0,00 28/02/2014
682 216700 DOMICIO VALDETE PEREIRA OFICIAL DO MP ATIVO TEÓFILO OTONI - COMARCA; COORD REG PJ DEF EDU DIR CRIAN ADOL JEQUI MUC 8.233,02 1.646,60 0,00 0,00 0,00 0,00 9.879,62 1.179,91 1.650,88 0,00 2.830,79 7.048,83 4.002,29 1.171,78 28/02/2014
683 85700 DONIZETTE PEREIRA DOS SANTOS OFICIAL DO MP ATIVO BELO HORIZONTE - COMARCA; EXTINTA - PROTOCOLO DA PGJ 16.215,23 11.350,66 0,00 0,00 0,00 0,00 27.565,89 2.924,86 5.582,84 976,21 9.483,91 18.081,98 457,00 0,00 28/02/2014
684 192701 DONIZETTI APARECIDO AMORIM ANALISTA DO MP ATIVO PRATÁPOLIS - COMARCA; PRATAPOLIS-PJ-UNPJ 5.169,86 1.033,97 0,00 0,00 0,00 0,00 6.203,83 682,42 642,82 0,00 1.325,24 4.878,59 457,00 0,00 28/02/2014
685 276700 DORALICE ROSA DE OLIVEIRA FREITAS OFICIAL DO MP ATIVO CARMO DA MATA - COMARCA; CARMO DA MATA-PJ-SECRETARIA 4.696,06 3.756,85 0,00 0,00 0,00 929,82 9.382,73 929,82 1.498,40 0,00 2.428,22 6.954,51 457,00 0,00 28/02/2014
686 558700 DORCILIA FATIMA DE OLIVEIRA OFICIAL DO MP ATIVO DIVINÓPOLIS - COMARCA; DIVINOPOLIS-PJ-02PJ 3.147,52 0,00 0,00 0,00 0,00 0,00 3.147,52 346,23 49,06 0,00 395,29 2.752,23 692,00 0,00 28/02/2014
687 555300 DOUGLAS CUNHA DE SOUZA ANALISTA DO MP ATIVO VARZEA DA PALMA - COMARCA; VARZEA DA PALMA-PJ-01PJ 4.848,98 0,00 0,00 0,00 0,00 0,00 4.848,98 569,97 442,03 0,00 1.012,00 3.836,98 457,00 332,56 28/02/2014
688 265900 DOUGLAS GOMES MOREIRA ANALISTA DO MP ATIVO BELO HORIZONTE - COMARCA; CENTRAL DE APOIO TECNICO-SETOR DE ENGENHARIA 10.302,83 2.060,57 0,00 0,00 4.121,13 0,00 16.484,53 1.359,97 3.333,10 0,00 4.693,07 11.791,46 457,00 0,00 28/02/2014
689 241000 DOUGLAS MEIRELLES DE CASTRO OFICIAL DO MP ATIVO CONCEIÇÃO DO RIO VERDE - COMARCA; CONCEICAO DO RIO VERDE-PJ-UNPJ 6.578,93 1.973,68 0,00 0,00 0,00 0,00 8.552,61 940,79 1.168,26 0,00 2.109,05 6.443,56 4.237,29 324,98 28/02/2014
690 534900 DOUGLAS SILVA E SOUZA ANALISTA DO MP ATIVO CAMPOS GERAIS - COMARCA; CAMPOS GERAIS-PJ-SECRETARIA 4.848,98 0,00 0,00 0,00 0,00 0,00 4.848,98 700,89 610,79 0,00 1.311,68 3.537,30 457,00 1.522,74 28/02/2014
691 146800 DUCINALVA AMARAL LOPES REIS OFICIAL DO MP ATIVO PARAISÓPOLIS - COMARCA; PARAISOPOLIS-PJ-UNPJ 10.302,83 5.151,42 0,00 0,00 0,00 0,00 15.454,25 1.699,97 2.758,60 0,00 4.458,57 10.995,68 692,00 0,00 28/02/2014
692 122500 DUILIO CARLOS FERREIRA UTSCH OFICIAL DO MP ATIVO CONCEIÇÃO DO MATO DENTRO - COMARCA; CONCEICAO DO MATO DENTRO-PJ-UNPJ 8.233,02 5.763,12 0,00 0,00 0,00 0,00 13.996,14 1.539,58 2.599,40 0,00 4.138,98 9.857,16 457,00 0,00 28/02/2014
693 201800 DULCINEIA ANDRE DE SOUZA OFICIAL DO MP ATIVO JEQUITINHONHA - COMARCA; JEQUITINHONHA-PJ-SECRETARIA 8.233,02 1.646,60 0,00 0,00 0,00 0,00 9.879,62 1.086,76 1.394,21 0,00 2.480,97 7.398,65 457,00 0,00 28/02/2014
694 395800 DUVIDIER MEDIRCIO JUNIOR ANALISTA DO MP ATIVO BELO HORIZONTE - COMARCA; CENTRAL DE APOIO TECNICO-SETOR DE ENGENHARIA 6.469,61 646,96 0,00 0,00 0,00 0,00 7.116,57 782,82 915,63 0,00 1.698,45 5.418,12 4.002,29 324,98 28/02/2014
695 604800 ECIA RAMILIS ISSA DE ABREU ANALISTA DO MP ATIVO MONTALVÂNIA - COMARCA; MONTALVANIA-PJ-UNPJ 4.404,59 0,00 0,00 0,00 0,00 0,00 4.404,59 484,50 279,06 0,00 763,56 3.641,03 457,00 0,00 28/02/2014
696 273000 EDELFINA APARECIDA GUIMARAES OFICIAL DO MP ATIVO BELO HORIZONTE - COMARCA; PROMOT ESTADUAL DE DEF PATRI CULT E TUR DE MG 5.691,44 2.276,57 0,00 0,00 0,00 0,00 7.968,01 876,48 1.025,18 0,00 1.901,66 6.066,35 4.002,29 324,98 28/02/2014
697 523300 EDER DOS SANTOS PATRICIO ANALISTA DO MP ATIVO NOVA SERRANA - COMARCA; NOVA SERRANA-PJ-03PJ 5.006,87 0,00 0,00 0,00 0,00 0,00 5.006,87 550,76 399,66 0,00 950,42 4.056,45 457,00 0,00 28/02/2014
698 356700 EDER JOSE PACHECO OFICIAL DO MP ATIVO CAMPO BELO - COMARCA; CAMPO BELO-PJ-SECRETARIA 5.169,86 516,99 0,00 0,00 0,00 0,00 5.686,85 625,55 516,29 0,00 1.141,84 4.545,01 2.705,44 196,31 28/02/2014
699 507900 EDERSON SILVA LOPES OFICIAL DO MP ATIVO BELO HORIZONTE - COMARCA; SERVICO MEDICO-DEPTO PERIC MEDICA SAUDE OCUP 3.250,03 0,00 0,00 0,00 0,00 0,00 3.250,03 357,50 55,90 0,00 413,40 2.836,63 692,00 0,00 28/02/2014
700 296200 EDGARD GOULART MATOSINHO DE LAET JUNIOR ANALISTA DO MP ATIVO GOVERNADOR VALADARES - COMARCA; GOVERNADOR VALADARES-PJ-12PJ 9.358,72 935,87 0,00 0,00 0,00 0,00 10.294,59 1.132,40 1.545,19 0,00 2.677,59 7.617,00 4.237,29 324,98 28/02/2014
701 295000 EDILA MARIA DA SILVEIRA OFICIAL DO MP ATIVO FORMIGA - COMARCA; FORMIGA-PJ-SECRETARIA 5.006,87 500,69 0,00 0,00 0,00 0,00 5.507,56 605,83 521,83 0,00 1.127,66 4.379,90 457,00 0,00 28/02/2014
702 332300 EDILA MARILAC MIRANDA PRADO OFICIAL DO MP ATIVO DIAMANTINA - COMARCA; COORD REG BACIAS RIOS JEQUITINHONHA E MUCURI 5.169,86 2.067,94 0,00 0,00 0,00 0,00 7.237,80 796,16 846,46 0,00 1.642,62 5.595,18 4.002,29 324,98 28/02/2014
703 376600 EDILANE CONSOLACAO ROSA NAZARETH ANALISTA DO MP ATIVO BETIM - COMARCA; BETIM-PJ-10PJ 7.973,40 797,34 0,00 0,00 0,00 0,00 8.770,74 964,78 1.320,49 0,00 2.285,27 6.485,47 457,00 0,00 28/02/2014
704 301500 EDILENE APARECIDA DE CARVALHO ANALISTA DO MP ATIVO BELO HORIZONTE - COMARCA; DIRETORIA DE ADMINISTRACAO FINANCEIRA 9.358,72 935,87 0,00 0,00 0,00 0,00 10.294,59 1.132,40 1.644,03 0,00 2.776,43 7.518,16 4.002,29 324,98 28/02/2014
705 309800 EDILZA DOS REIS OFICIAL DO MP ATIVO UBERLÂNDIA - COMARCA; UBERLANDIA-PJ-03PJ 6.265,58 626,56 0,00 0,00 0,00 0,00 6.892,14 758,14 811,28 0,00 1.569,42 5.322,72 3.803,85 306,79 28/02/2014
706 200500 EDINEIA MARIA DE OLIVEIRA ANTUNES OFICIAL DO MP ATIVO MONTES CLAROS - COMARCA; MONTES CLAROS-PJ-10PJ 8.233,02 2.469,91 0,00 0,00 0,00 0,00 10.702,93 1.177,32 1.793,39 0,00 2.970,71 7.732,22 4.237,29 324,98 28/02/2014
707 427700 EDISANGELA SOARES LOPES OFICIAL DO MP ATIVO PIRAPORA - COMARCA; PIRAPORA-PJ-03PJ 4.000,95 240,06 0,00 0,00 0,00 0,00 4.241,01 466,51 246,30 0,00 712,81 3.528,20 457,00 0,00 28/02/2014
708 555400 EDISON MONTEIRO SAMPAIO NETO ANALISTA DO MP ATIVO BELO HORIZONTE - COMARCA; BH-12PJ JUIZO CRIMINAL 4.404,59 0,00 0,00 0,00 0,00 0,00 4.404,59 484,50 279,06 0,00 763,56 3.641,03 457,00 0,00 28/02/2014
709 517700 EDMILSON TADEU FERNANDES OFICIAL DO MP ATIVO POUSO ALEGRE - COMARCA; POUSO ALEGRE-PJ-SECRETARIA 3.938,84 0,00 0,00 0,00 0,00 0,00 3.938,84 539,15 345,37 0,00 884,52 3.054,32 2.820,30 1.200,98 28/02/2014
710 358400 EDNA APARECIDA SILVA FERREIRA OFICIAL DO MP ATIVO CORONEL FABRICIANO - COMARCA; CORONEL FABRICIANO-PJ-SECRETARIA 5.006,87 500,69 0,00 0,00 0,00 0,00 5.507,56 605,83 521,83 0,00 1.127,66 4.379,90 2.654,27 179,87 28/02/2014
711 331800 EDNA MARCIA CAMILO DA SILVA OFICIAL DO MP ATIVO SETE LAGOAS - COMARCA; SETE LAGOAS-PJ-07PJ 5.876,69 587,67 0,00 0,00 0,00 0,00 6.464,36 711,08 756,00 0,00 1.467,08 4.997,28 4.002,29 324,98 28/02/2014
712 422800 EDNILSON DE SOUZA FERREIRA ASSESSOR ATIVO BELO HORIZONTE - COMARCA; DIRET DE INFORMACAO E EXPEDICAO DE PROCESSOS 0,00 0,00 2.359,08 0,00 0,00 0,00 2.359,08 396,27 20,45 0,00 416,72 1.942,36 457,00 0,00 28/02/2014
713 327900 EDRIEL SANTANA PEREIRA OFICIAL DO MP ATIVO TUPACIGUARA - COMARCA; TUPACIGUARA-PJ-UNPJ 5.876,69 587,67 0,00 0,00 0,00 0,00 6.464,36 711,08 756,00 0,00 1.467,08 4.997,28 457,00 0,00 28/02/2014
714 482400 EDSON GARCIA OFICIAL DO MP ATIVO MACHADO - COMARCA; MACHADO-PJ-02PJ 3.250,03 195,00 0,00 0,00 1.148,34 0,00 4.593,37 400,40 303,46 0,00 703,86 3.889,51 457,00 195,00 28/02/2014
715 225601 EDSON LABRE FILHO ANALISTA DO MP ATIVO VARGINHA - COMARCA; VARGINHA-PJ-01PJ 9.358,72 1.871,74 0,00 0,00 0,00 0,00 11.230,46 1.235,35 1.873,09 0,00 3.108,44 8.122,02 4.002,29 324,98 28/02/2014
716 602700 EDSON NOGUEIRA BUENO OFICIAL DO MP ATIVO PITANGUI - COMARCA; PITANGUI-PJ-01PJ 2.859,08 0,00 0,00 0,00 0,00 0,00 2.859,08 314,50 56,76 0,00 371,26 2.487,82 457,00 0,00 28/02/2014
717 414400 EDUARDO ABRANTES CAMPOS ANALISTA DO MP ATIVO OLIVEIRA - COMARCA; OLIVEIRA-PJ-02PJ 7.014,37 701,44 0,00 0,00 0,00 0,00 7.715,81 848,74 1.062,29 0,00 1.911,03 5.804,78 457,00 0,00 28/02/2014
718 476800 EDUARDO ALVES DE MOURA ANALISTA DO MP ATIVO UBERLÂNDIA - COMARCA; UBERLANDIA-PJ-19PJ 6.265,58 375,93 0,00 0,00 0,00 0,00 6.641,51 777,48 779,11 0,00 1.556,59 5.084,92 490,51 429,55 28/02/2014
719 390800 EDUARDO AMORIM PETTERSEN OFICIAL DO MP ATIVO CARANGOLA - COMARCA; CARANGOLA-PJ-03PJ 4.848,98 484,90 0,00 0,00 0,00 0,00 5.333,88 586,73 479,32 0,00 1.066,05 4.267,83 457,00 0,00 28/02/2014
720 461600 EDUARDO ANTONIO DE ASSIS FARIA ASSESSOR ATIVO BELO HORIZONTE - COMARCA; ASSESS EXECUTIVA DO CONSELHO SUPERIOR DO MP 0,00 0,00 3.938,84 0,00 0,00 0,00 3.938,84 469,11 240,12 0,00 709,23 3.229,61 850,55 29,52 28/02/2014
721 248800 EDUARDO DE CASTRO AMORIM ANALISTA DO MP ATIVO BELO HORIZONTE - COMARCA; BH-01PJ FAZENDA PUBLICA EXEC FISCAIS 10.984,62 2.196,92 0,00 0,00 0,00 0,00 13.181,54 1.449,97 2.400,03 0,00 3.850,00 9.331,54 4.002,29 324,98 28/02/2014
722 209100 EDUARDO DE SOUZA MAIA ANALISTA DO MP ATIVO BELO HORIZONTE - COMARCA; CAO-TS-TERCEIRO SETOR-ASSESSORIA JURIDICA 11.885,64 2.377,13 0,00 0,00 0,00 0,00 14.262,77 1.633,29 2.613,61 0,00 4.246,90 10.015,87 457,00 585,32 28/02/2014
723 350500 EDUARDO GONCALVES RIBEIRO OFICIAL DO MP ATIVO VESPASIANO - COMARCA; VESPASIANO-PJ-04PJ 4.265,74 426,57 0,00 0,00 0,00 0,00 4.692,31 516,15 336,68 0,00 852,83 3.839,48 4.002,29 265,90 28/02/2014
724 115800 EDUARDO HENRIQUE DE CAMPOS MAIA OFICIAL DO MP ATIVO BELO HORIZONTE - COMARCA; EXTINTA - DIVISAO DE SERVICOS GERAIS 9.358,72 3.743,49 0,00 0,00 0,00 0,00 13.102,21 1.441,24 2.281,78 0,00 3.723,02 9.379,19 457,00 0,00 28/02/2014
725 392600 EDUARDO HENRIQUE DOS SANTOS COSTA ELIAZAR OFICIAL DO MP ATIVO MATOZINHOS - COMARCA; MATOZINHOS-PJ-02PJ 4.131,19 413,12 0,00 0,00 0,00 0,00 4.544,31 499,87 226,17 0,00 726,04 3.818,27 4.237,29 265,90 28/02/2014
726 122900 EDUARDO JOSE COSTA SILVA OFICIAL DO MP ATIVO SETE LAGOAS - COMARCA; SETE LAGOAS-PJ-04PJ 12.356,19 8.649,34 0,00 0,00 0,00 0,00 21.005,53 2.310,61 4.265,53 0,00 6.576,14 14.429,39 4.002,29 324,98 28/02/2014
727 418700 EDUARDO LEMOS SIMOES OFICIAL DO MP ATIVO LAVRAS - COMARCA; COORD REG DO MA DA BACIA DO RIO GRANDE 4.548,03 454,80 0,00 0,00 0,00 0,00 5.002,83 664,63 581,59 0,00 1.246,22 3.756,61 457,00 1.039,32 28/02/2014
728 407500 EDUARDO MASCARENHAS CURI AZEVEDO ANALISTA DO MP ATIVO BELO HORIZONTE - COMARCA; DIRETORIA DE IMPRENSA 6.469,61 646,96 0,00 0,00 2.372,19 0,00 9.488,76 782,82 1.567,98 0,00 2.350,80 7.137,96 457,00 0,00 28/02/2014
729 601300 EDUARDO TRAD VIEIRA OFICIAL DO MP ATIVO CAMANDUCAIA - COMARCA; CAMANDUCAIA-PJ-UNPJ 2.859,08 0,00 0,00 0,00 0,00 0,00 2.859,08 314,50 56,76 0,00 371,26 2.487,82 927,00 0,00 28/02/2014
730 257600 EDUARDO VALADARES CABRAL ASSESSOR/ANALISTA ATIVO BELO HORIZONTE - COMARCA; EXTINTA - SECRETARIA ADMINISTRATIVA 0,00 1.755,56 8.777,78 0,00 0,00 0,00 10.533,34 1.086,76 1.771,66 0,00 2.858,42 7.674,92 457,00 0,00 28/02/2014
731 545700 EDVAIR FERREIRA DE CARVALHO OFICIAL DO MP ATIVO ARAGUARI - COMARCA; ARAGUARI-PJ-02PJ 2.859,08 0,00 0,00 0,00 953,03 0,00 3.812,11 314,50 108,74 0,00 423,24 3.388,87 457,00 0,00 28/02/2014
732 401700 EDWANIA AMORIM DO CARMO OFICIAL DO MP ATIVO RIBEIRÃO DAS NEVES - COMARCA; RIBEIRAO DAS NEVES-PJ-03PJ 5.006,87 500,69 0,00 0,00 0,00 0,00 5.507,56 605,83 521,83 0,00 1.127,66 4.379,90 457,00 0,00 28/02/2014
733 303600 EFIGENIO SARAIVA LOPES ANALISTA DO MP ATIVO BELO HORIZONTE - COMARCA; DIRETORIA DE PAGAMENTO DE PESSOAL-DPAG 10.302,83 1.030,28 0,00 0,00 0,00 0,00 11.333,11 1.246,64 1.848,79 0,00 3.095,43 8.237,68 457,00 0,00 28/02/2014
734 312000 ELAINE APARECIDA DE ARAUJO RODRIGUES ASSESSOR/OFICIAL ATIVO DIVINÓPOLIS - COMARCA; DIVINOPOLIS-PJ-02PJ 0,00 4.385,91 6.265,58 0,00 0,00 0,00 10.651,49 1.064,30 1.760,91 0,00 2.825,21 7.826,28 457,00 0,00 28/02/2014
735 286000 ELAINE APARECIDA SILVA BERZOINI OFICIAL DO MP ATIVO JUIZ DE FORA - COMARCA; JUIZ DE FORA-PJ-07PJ 6.068,01 1.213,60 0,00 0,00 0,00 0,00 7.281,61 800,98 956,02 0,00 1.757,00 5.524,61 4.237,29 324,98 28/02/2014
736 509000 ELAINE CANDIDA PONTES OFICIAL DO MP ATIVO BELO HORIZONTE - COMARCA; BH-02PJ FAMILIA-SECRETARIA 3.577,90 0,00 0,00 0,00 0,00 0,00 3.577,90 393,57 142,62 0,00 536,19 3.041,71 457,00 0,00 28/02/2014
737 283601 ELAINE CRISTINA MEQUELINO DUARTE ANALISTA DO MP ATIVO ALFENAS - COMARCA; ALFENAS-PJ-04PJ 7.973,40 797,34 0,00 0,00 2.923,58 0,00 11.694,32 964,78 2.075,05 0,00 3.039,83 8.654,49 927,00 0,00 28/02/2014
738 535500 ELAINE DE OLIVEIRA CAMPOS REIS OFICIAL DO MP ATIVO RIBEIRÃO DAS NEVES - COMARCA; RIBEIRAO DAS NEVES-PJ-11PJ 2.859,08 0,00 0,00 0,00 0,00 0,00 2.859,08 314,50 56,76 0,00 371,26 2.487,82 457,00 0,00 28/02/2014
739 455700 ELAINE DE OLIVEIRA CASTRO ANALISTA DO MP ATIVO POMPÉU - COMARCA; POMPEU-PJ-UNPJ 5.691,44 341,49 0,00 0,00 0,00 0,00 6.032,93 663,62 650,41 0,00 1.314,03 4.718,90 457,00 0,00 28/02/2014
740 367200 ELAINE MUNIZ BARBOSA ANALISTA DO MP ATIVO BELO HORIZONTE - COMARCA; DIRETORIA DE REDES E BANCOS DE DADOS 8.233,02 823,30 0,00 0,00 0,00 0,00 9.056,32 996,20 1.390,38 0,00 2.386,58 6.669,74 457,00 0,00 28/02/2014
741 176900 ELAINE RIBEIRO TAVEIRA OFICIAL DO MP ATIVO BELO HORIZONTE - COMARCA; DIRETORIA DE PESSOAL ADMINISTRATIVO - DPAD 7.242,73 2.172,82 0,00 0,00 0,00 0,00 9.415,55 1.115,38 1.721,96 0,00 2.837,34 6.578,21 4.726,56 1.357,06 28/02/2014
742 496200 ELAINE SABRINA DIAS MOREIRA ANALISTA DO MP ATIVO CORONEL FABRICIANO - COMARCA; CORONEL FABRICIANO-PJ-03PJ 6.068,01 0,00 0,00 0,00 0,00 0,00 6.068,01 667,48 659,00 0,00 1.326,48 4.741,53 457,00 0,00 28/02/2014
743 489200 ELAINE VICENTINO GARCIA ANALISTA DO MP ATIVO BELO HORIZONTE - COMARCA; CENTRAL DE APOIO TECNICO-SETOR CONTABIL 6.068,01 1.213,60 0,00 0,00 0,00 0,00 7.281,61 800,98 857,18 0,00 1.658,16 5.623,45 4.472,29 324,98 28/02/2014
744 244500 ELCI ALVES DE SOUZA ASSESSOR ATIVO BELO HORIZONTE - COMARCA; CAO-CONFLITOS AGRARIOS-SECRETARIA 0,00 787,77 3.938,84 0,00 0,00 0,00 4.726,61 482,93 417,12 0,00 900,05 3.826,56 4.002,29 324,98 28/02/2014
745 472500 ELCI VAZ DE OLIVEIRA FILHO ANALISTA DO MP ATIVO PIUMHI - COMARCA; PIUMHI-PJ-02PJ 6.265,58 2.506,23 0,00 0,00 0,00 0,00 8.771,81 964,90 1.320,75 0,00 2.285,65 6.486,16 457,00 0,00 28/02/2014
746 385200 ELCI VIANA REIS OFICIAL DO MP ATIVO RIO PARDO DE MINAS - COMARCA; RIO PARDO DE MINAS-PJ-SECRETARIA 5.006,87 1.502,06 0,00 0,00 0,00 0,00 6.508,93 715,98 766,91 0,00 1.482,89 5.026,04 4.002,29 324,98 28/02/2014
747 289801 ELCIO JOSE DOS SANTOS ASSESSOR/ANALISTA ATIVO BELO HORIZONTE - COMARCA; EXTINTA - DIVISAO DE SERVICOS GERAIS 0,00 526,67 8.777,78 0,00 0,00 0,00 9.304,45 730,57 1.531,67 0,00 2.262,24 7.042,21 457,00 0,00 28/02/2014
748 123000 ELCIO VILHENA DE FARIA OFICIAL DO MP ATIVO BELO HORIZONTE - COMARCA; ARQUIVO DO MINISTERIO PUBLICO DO ESTADO DE MG 12.356,19 9.884,96 0,00 0,00 0,00 2.446,53 24.687,68 2.446,53 5.290,17 0,00 7.736,70 16.950,98 457,00 0,00 28/02/2014
749 503200 ELDER GOMES DUTRA ANALISTA DO MP ATIVO IGARAPÉ - COMARCA; IGARAPE-PJ-03PJ 6.068,01 0,00 0,00 0,00 0,00 0,00 6.068,01 667,48 659,00 0,00 1.326,48 4.741,53 457,00 0,00 28/02/2014
750 319600 ELEN TULER DE ALBERGARIA ANALISTA DO MP ATIVO BELO HORIZONTE - COMARCA; BH-19PJ SAUDE 7.721,95 2.316,59 0,00 0,00 3.346,18 0,00 13.384,72 1.570,44 3.292,75 0,00 4.863,19 8.521,53 927,00 4.238,16 28/02/2014
751 333100 ELENILDA ROCHA DE MORAES MELO OFICIAL DO MP ATIVO MAR DE ESPANHA - COMARCA; MAR DE ESPANHA-PJ-SECRETARIA 4.696,06 469,61 0,00 0,00 1.721,89 0,00 6.887,56 568,22 862,25 0,00 1.430,47 5.457,09 457,00 0,00 28/02/2014
752 151000 ELI LOURENCO RIBEIRO AGENTE DO MP ATIVO BELO HORIZONTE - COMARCA; BH-17PJ PATRIMONIO PUBLICO-SECRETARIA 6.793,15 2.717,26 0,00 0,00 0,00 0,00 9.510,41 1.046,15 1.066,43 0,00 2.112,58 7.397,83 4.002,29 324,98 28/02/2014
753 205500 ELIANA ALVES DE SOUSA OFICIAL DO MP ATIVO GOVERNADOR VALADARES - COMARCA; GOVERNADOR VALADARES-PJ-07PJ 5.691,44 1.138,29 0,00 0,00 0,00 0,00 6.829,73 751,27 845,43 0,00 1.596,70 5.233,03 457,00 0,00 28/02/2014
754 301700 ELIANA DA SILVEIRA ANALISTA DO MP ATIVO BELO HORIZONTE - COMARCA; ASSESS TECNICO-JUR JUNTO AS PROC. DE JUST 8.501,02 850,10 0,00 0,00 0,00 0,00 9.351,12 1.028,62 1.413,12 0,00 2.441,74 6.909,38 457,00 0,00 28/02/2014
755 103400 ELIANA DE FARIA MORAIS JOTTA OFICIAL DO MP ATIVO BELO HORIZONTE - COMARCA; DIRET DE PESSOAL DO MINISTERIO PUBLICO - DPMP 18.939,65 7.575,87 0,00 0,00 0,00 0,00 26.515,52 2.785,59 5.223,51 1.192,02 9.201,12 17.314,40 4.002,29 324,98 28/02/2014
756 251500 ELIANA DE LIMA MILAGRES FONSECA ANALISTA DO MP ATIVO CONTAGEM - COMARCA; CONTAGEM-PJ-06PJ 9.063,59 1.812,72 0,00 0,00 0,00 0,00 10.876,31 1.196,39 1.736,99 0,00 2.933,38 7.942,93 457,00 0,00 28/02/2014
757 503900 ELIANA DIAS DUTRA FERREIRA OFICIAL DO MP ATIVO GOVERNADOR VALADARES - COMARCA; GOVERNADOR VALADARES-PJ-10PJ 3.938,84 0,00 0,00 0,00 0,00 0,00 3.938,84 433,27 136,89 0,00 570,16 3.368,68 692,00 0,00 28/02/2014
758 413900 ELIANA PINTO DE OLIVEIRA NEVES ANALISTA DO MP ATIVO CAMPO BELO - COMARCA; CAMPO BELO-PJ-03PJ 7.014,37 701,44 0,00 0,00 0,00 0,00 7.715,81 848,74 1.062,29 0,00 1.911,03 5.804,78 4.002,29 324,98 28/02/2014
759 228200 ELIANA RODRIGUES DA CUNHA PINHEIRO DIRETOR/OFICIAL ATIVO BELO HORIZONTE - COMARCA; SUPERINTENDÊNCIA DE ENGENHARIA E ARQUITETURA 0,00 2.670,79 13.353,95 0,00 0,00 925,90 16.950,64 925,90 3.531,23 0,00 4.457,13 12.493,51 457,00 0,00 28/02/2014
760 386600 ELIANA SABINO CHAVES ANALISTA DO MP ATIVO CARATINGA - COMARCA; CARATINGA-PJ-06PJ 6.578,93 3.289,46 0,00 0,00 0,00 0,00 9.868,39 1.157,89 1.700,74 0,00 2.858,63 7.009,76 457,00 657,89 28/02/2014
761 297400 ELIANE AUGUSTA RIBEIRO COSTA ANALISTA DO MP ATIVO CONSELHEIRO LAFAIETE - COMARCA; CONSELHEIRO LAFAIETE-PJ-05PJ 9.663,38 966,34 0,00 0,00 0,00 0,00 10.629,72 1.169,27 1.627,21 0,00 2.796,48 7.833,24 457,00 0,00 28/02/2014
762 510600 ELIANE CAROLINA MAIA ANALISTA DO MP ATIVO IGARAPÉ - COMARCA; IGARAPE-PJ-01PJ 5.511,94 0,00 0,00 0,00 0,00 0,00 5.511,94 606,31 339,07 0,00 945,38 4.566,56 927,00 0,00 28/02/2014
763 269300 ELIANE EDLAMAR ROCHA OFICIAL DO MP ATIVO PEDRO LEOPOLDO - COMARCA; PEDRO LEOPOLDO-PJ-02PJ 6.068,01 1.213,60 0,00 0,00 0,00 0,00 7.281,61 800,98 857,18 0,00 1.658,16 5.623,45 692,00 0,00 28/02/2014
764 359100 ELIANE FARIAS DE OLIVEIRA ASSESSOR ATIVO BELO HORIZONTE - COMARCA; EXTINTA-TUTELA DAS FUNDACOES-21 PJ- GABINETE 0,00 0,00 2.359,08 0,00 0,00 0,00 2.359,08 309,77 53,89 0,00 363,66 1.995,42 457,00 0,00 28/02/2014
765 262600 ELIANE FERREIRA SOARES ASSESSOR ATIVO BELO HORIZONTE - COMARCA; BH-18PJ DIREITOS HUMANOS-SECRETARIA 0,00 1.181,65 3.938,84 0,00 0,00 0,00 5.120,49 482,93 525,43 0,00 1.008,36 4.112,13 692,00 0,00 28/02/2014
766 204400 ELIANE GLAUCE DE QUEIROS MAIA OFICIAL DO MP ATIVO GUANHÃES - COMARCA; GUANHAES-PJ-01PJ 8.233,02 1.646,60 0,00 0,00 0,00 0,00 9.879,62 1.086,76 1.542,47 0,00 2.629,23 7.250,39 457,00 0,00 28/02/2014
767 91800 ELIANE KAPLER COORDENADOR/OFICIAL ATIVO BELO HORIZONTE - COMARCA; DIRET DE CONTROLE E DE MANUTENCAO DE IMOVEIS 11.342,29 6.803,55 0,00 0,00 0,00 0,00 18.145,84 1.746,71 3.584,77 0,00 5.331,48 12.814,36 927,00 0,00 28/02/2014
768 334200 ELIANE MARCIA DE OLIVEIRA BRITO OFICIAL DO MP ATIVO BELO HORIZONTE - COMARCA; BH-09PJ AUDITORIA MILITAR 4.696,06 469,61 0,00 0,00 0,00 0,00 5.165,67 568,22 438,15 0,00 1.006,37 4.159,30 457,00 0,00 28/02/2014
769 365900 ELIANE MARIA DE OLIVEIRA FERREIRA OFICIAL DO MP ATIVO SETE LAGOAS - COMARCA; SETE LAGOAS-PJ-11PJ 5.691,44 2.276,58 0,00 0,00 0,00 0,00 7.968,02 876,48 1.124,02 0,00 2.000,50 5.967,52 4.002,29 324,98 28/02/2014
770 320600 ELIANE STADLER DE SOUZA OFICIAL DO MP ATIVO FRANCISCO SÁ - COMARCA; FRANCISCO SA-PJ-SECRETARIA 5.169,86 516,99 0,00 0,00 1.895,62 0,00 7.582,47 625,55 1.037,58 0,00 1.663,13 5.919,34 457,00 0,00 28/02/2014
771 448900 ELIAS PEREIRA OTONI ASSESSOR ATIVO BELO HORIZONTE - COMARCA; EXTINTA - DIVISAO DE TRANSPORTES 0,00 0,00 3.938,84 0,00 1.312,95 0,00 5.251,79 482,93 512,12 0,00 995,05 4.256,74 457,00 0,00 28/02/2014
772 495400 ELICA SOUZA GASPARONI MATTOS OFICIAL DO MP ATIVO UBÁ - COMARCA; UBA-PJ-SECRETARIA 3.577,90 0,00 0,00 0,00 0,00 0,00 3.577,90 393,57 142,62 0,00 536,19 3.041,71 692,00 0,00 28/02/2014
773 86600 ELIENE FERREIRA DA SILVA OFICIAL DO MP ATIVO BELO HORIZONTE - COMARCA; BH-22PJ PES COM DEF E IDOSOS 16.215,23 8.107,62 0,00 0,00 0,00 0,00 24.322,85 2.675,51 4.978,61 0,00 7.654,12 16.668,73 4.472,29 324,98 28/02/2014
774 183800 ELIENE MARIA CUNHA OFICIAL DO MP ATIVO BELO HORIZONTE - COMARCA; DIRETORIA DE PESSOAL ADMINISTRATIVO - DPAD 8.501,02 1.700,20 0,00 0,00 0,00 0,00 10.201,22 1.122,13 1.621,18 0,00 2.743,31 7.457,91 4.002,29 324,98 28/02/2014
775 172300 ELINA APARECIDA SILVA ASSESSOR ATIVO BELO HORIZONTE - COMARCA; BH-19PJ SAUDE-SECRETARIA 130PJ 0,00 707,72 2.359,08 0,00 0,00 0,00 3.066,80 387,62 81,48 0,00 469,10 2.597,70 692,00 0,00 28/02/2014
776 492500 ELINE CAMPOS DA FONSECA CUNHA ANALISTA DO MP ATIVO CAPELINHA - COMARCA; CAPELINHA-PJ-02PJ 5.006,87 0,00 0,00 0,00 0,00 0,00 5.006,87 550,76 399,66 0,00 950,42 4.056,45 692,00 0,00 28/02/2014
777 256500 ELISABETE NOGUEIRA ANALISTA DO MP ATIVO BELO HORIZONTE - COMARCA; BH-21PJ TUTELA DAS FUNDACOES-ASS CURADORES 8.233,02 3.293,21 0,00 0,00 0,00 0,00 11.526,23 1.358,45 2.123,61 0,00 3.482,06 8.044,17 5.295,59 1.498,19 28/02/2014
778 355000 ELISANGELA DARLANTONI RIBEIRO OFICIAL DO MP ATIVO ARAXÁ - COMARCA; ARAXA-PJ-05PJ 4.265,74 426,57 0,00 0,00 0,00 0,00 4.692,31 516,15 296,24 0,00 812,39 3.879,92 1.839,02 86,03 28/02/2014
779 604400 ELISANGELA DEMASI FERREIRA MOREIRA ANALISTA DO MP ATIVO CAXAMBU - COMARCA; CAXAMBU-PJ-UNPJ 4.848,98 0,00 0,00 0,00 0,00 0,00 4.848,98 605,08 520,16 0,00 1.125,24 3.723,74 457,00 651,77 28/02/2014
780 323800 ELISANGELA GONCALVES DE JESUS OFICIAL DO MP ATIVO BELO HORIZONTE - COMARCA; BH-09PJ AUDITORIA MILITAR-SECRETARIA 4.696,06 469,61 0,00 0,00 0,00 0,00 5.165,67 568,22 438,15 0,00 1.006,37 4.159,30 2.077,38 148,53 28/02/2014
781 261400 ELISANGELA MENDES OFICIAL DO MP ATIVO POUSO ALEGRE - COMARCA; POUSO ALEGRE-PJ-05PJ 5.691,44 1.138,29 0,00 0,00 0,00 0,00 6.829,73 751,27 845,43 0,00 1.596,70 5.233,03 4.002,29 324,98 28/02/2014
782 507400 ELISANGELA MIGUEL DA ROCHA ASSESSOR ATIVO BELO HORIZONTE - COMARCA; CGMP-DIVIS DE APOIO FISC ORIENTACAO FUNCIONAL 0,00 0,00 2.359,08 0,00 0,00 0,00 2.359,08 309,77 53,89 0,00 363,66 1.995,42 457,00 0,00 28/02/2014
783 534100 ELISANGELA ROSINE SILVA OFICIAL DO MP ATIVO UBERABA - COMARCA; UBERABA-PJ-06PJ 2.859,08 0,00 0,00 0,00 0,00 0,00 2.859,08 314,50 56,76 0,00 371,26 2.487,82 3.316,08 71,48 28/02/2014
784 461700 ELIZABETH ALEIXO DA PAZ ANALISTA DO MP ATIVO JUIZ DE FORA - COMARCA; JUIZ DE FORA-PJ-24PJ 6.265,58 375,93 0,00 0,00 0,00 0,00 6.641,51 730,57 799,36 0,00 1.529,93 5.111,58 457,00 0,00 28/02/2014
785 198100 ELIZABETH CARDOSO CAMPOS OFICIAL DO MP ATIVO PIUMHI - COMARCA; PIUMHI-PJ-02PJ 6.793,15 5.434,53 0,00 0,00 0,00 1.460,34 13.688,02 1.460,34 2.775,27 0,00 4.235,61 9.452,41 457,00 1.048,10 28/02/2014
786 227300 ELIZABETH COIMBRA FELIX COORDENADOR/OFICIAL ATIVO BELO HORIZONTE - COMARCA; DIRETORIA DE PAGAMENTO DE PESSOAL-DPAG 0,00 2.719,08 9.063,59 0,00 0,00 0,00 11.782,67 895,98 2.019,43 0,00 2.915,41 8.867,26 4.002,29 324,98 28/02/2014
787 354800 ELIZABETH DOS REIS OFICIAL DO MP ATIVO BELO HORIZONTE - COMARCA; EXTINTA - DIVISÃO DE MATERIAL PERMANENTE 5.691,44 569,14 0,00 0,00 0,00 0,00 6.260,58 688,66 656,71 0,00 1.345,37 4.915,21 457,00 0,00 28/02/2014
788 452800 ELIZANGELA MARIA DAVI OFICIAL DO MP ATIVO ARCOS - COMARCA; ARCOS-PJ-01PJ 3.355,81 201,35 0,00 0,00 0,00 0,00 3.557,16 391,29 112,89 0,00 504,18 3.052,98 927,00 0,00 28/02/2014
789 496300 ELIZANGELA MARQUES PINTO COELHO OFICIAL DO MP ATIVO BELO HORIZONTE - COMARCA; DIRETORIA DE PESSOAL ADMINISTRATIVO - DPAD 3.938,84 0,00 0,00 0,00 0,00 0,00 3.938,84 433,27 190,81 0,00 624,08 3.314,76 1.085,55 19,68 28/02/2014
790 422500 ELIZETE FORTES DA CUNHA ANALISTA DO MP ATIVO RIBEIRÃO DAS NEVES - COMARCA; RIBEIRAO DAS NEVES-PJ-07PJ 7.014,37 701,44 0,00 0,00 0,00 0,00 7.715,81 848,74 1.012,87 0,00 1.861,61 5.854,20 692,00 0,00 28/02/2014
791 506100 ELLEM CRISTINA ROCHA FONSECA BOWEN ANALISTA DO MP ATIVO GOVERNADOR VALADARES - COMARCA; COORD REG PJ DEF EDU DIR CRIANCA ADOL RIODOCE 6.068,01 0,00 0,00 0,00 0,00 0,00 6.068,01 667,48 659,00 0,00 1.326,48 4.741,53 927,00 0,00 28/02/2014
792 468200 ELLEN CRISTINA BERNARDES DARE ANALISTA DO MP ATIVO TRÊS PONTAS - COMARCA; TRES PONTAS-PJ-02PJ 6.265,58 375,93 0,00 0,00 0,00 0,00 6.641,51 793,19 889,28 0,00 1.682,47 4.959,04 457,00 569,30 28/02/2014
793 418800 ELLEN CRISTINA DE QUEIROZ FERREIRA ANALISTA DO MP ATIVO BELO HORIZONTE - COMARCA; CENTRAL DE APOIO TECNICO-SETOR CONTABIL 7.014,37 701,44 0,00 0,00 0,00 0,00 7.715,81 972,06 1.227,24 0,00 2.199,30 5.516,51 4.282,85 1.565,37 28/02/2014
794 328401 ELLEN CRISTINA FERREIRA MORAIS MONTEIRO ANALISTA DO MP ATIVO CAMANDUCAIA - COMARCA; CAMANDUCAIA-PJ-UNPJ 7.014,37 701,44 0,00 0,00 0,00 0,00 7.715,81 848,74 963,45 0,00 1.812,19 5.903,62 692,00 0,00 28/02/2014
795 556100 ELLEN CRISTINE BIANCHIN DA SILVA OFICIAL DO MP ATIVO SÃO GONÇALO DO SAPUCAÍ - COMARCA; SAO GONCALO DO SAPUCAI-PJ-02PJ 2.859,08 0,00 0,00 0,00 0,00 0,00 2.859,08 314,50 16,33 0,00 330,83 2.528,25 457,00 0,00 28/02/2014
796 447100 ELLEN ROSANA DE MACEDO BORGES OFICIAL DO MP ATIVO UBERLÂNDIA - COMARCA; UBERLANDIA-PJ-17PJ 4.404,59 264,28 0,00 0,00 0,00 0,00 4.668,87 513,58 331,98 0,00 845,56 3.823,31 457,00 0,00 28/02/2014
797 477700 ELMA JACOB OFICIAL DO MP ATIVO BELO HORIZONTE - COMARCA; CAO-CRIANCAS E ADOLESCENTES 4.000,95 2.000,48 0,00 0,00 0,00 0,00 6.001,43 660,16 642,70 0,00 1.302,86 4.698,57 457,00 0,00 28/02/2014
798 123300 ELMA PAULA DOS SANTOS COELHO OFICIAL DO MP ATIVO BELO HORIZONTE - COMARCA; BH-19PJ SAUDE-SECRETARIA 130PJ 10.302,83 8.242,26 0,00 0,00 0,00 2.039,96 20.585,05 2.039,96 4.224,33 0,00 6.264,29 14.320,76 457,00 0,00 28/02/2014
799 356500 ELOISA CARDOSO SILVA FRANCA OFICIAL DO MP ATIVO PEÇANHA - COMARCA; PECANHA-PJ-SECRETARIA 4.265,74 426,57 0,00 0,00 0,00 0,00 4.692,31 516,15 215,37 0,00 731,52 3.960,79 457,00 0,00 28/02/2014
800 251901 ELOISA COSTA E SILVA ANALISTA DO MP ATIVO SANTOS DUMONT - COMARCA; SANTOS DUMONT-PJ-02PJ 6.068,01 1.213,60 0,00 0,00 0,00 0,00 7.281,61 800,98 956,02 0,00 1.757,00 5.524,61 457,00 0,00 28/02/2014
801 400400 ELOIZA MARIA FERRI PIRES DA SILVA OFICIAL DO MP ATIVO BELO HORIZONTE - COMARCA; CAO-MEIO AMBIENTE 4.131,19 413,12 0,00 0,00 1.514,77 0,00 6.059,08 499,87 653,21 0,00 1.153,08 4.906,00 457,00 0,00 28/02/2014
802 258000 ELSO CECIANO PALMEIRA ASSESSOR/OFICIAL ATIVO BELO HORIZONTE - COMARCA; DIRET DE PESSOAL DO MINISTERIO PUBLICO - DPMP 0,00 3.986,70 7.973,40 0,00 0,00 0,00 11.960,10 1.085,52 2.417,84 0,00 3.503,36 8.456,74 4.002,29 1.606,16 28/02/2014
803 206900 ELVIRA RITA DOS SANTOS ANALISTA DO MP ATIVO BELO HORIZONTE - COMARCA; CENTRAL DE APOIO TECNICO-SETOR CONTABIL 13.353,95 2.670,79 0,00 0,00 0,00 0,00 16.024,74 1.762,72 3.095,91 0,00 4.858,63 11.166,11 457,00 0,00 28/02/2014
804 506800 ELVIS FERREIRA DA SILVA ANALISTA DO MP ATIVO BELO HORIZONTE - COMARCA; DIRETORIA DE SISTEMAS DE INFORMACAO 6.068,01 0,00 0,00 0,00 2.022,67 0,00 8.090,68 667,48 1.165,81 0,00 1.833,29 6.257,39 457,00 0,00 28/02/2014
805 154300 ELZA MARIA DA SILVA OFICIAL DO MP ATIVO ERVÁLIA - COMARCA; ERVALIA-PJ-SECRETARIA 7.478,49 5.982,80 0,00 0,00 0,00 1.527,42 14.988,71 1.527,42 3.031,31 0,00 4.558,73 10.429,98 457,00 565,83 28/02/2014
806 206600 ELZA MARIA GONTIJO DE MAGALHAES GOMES ANALISTA DO MP ATIVO BELO HORIZONTE - COMARCA; DIVISAO DE ACERVOS BIBLIOGRAFICOS 10.302,83 2.060,57 0,00 0,00 0,00 1.359,97 13.723,37 1.359,97 2.573,79 0,00 3.933,76 9.789,61 457,00 0,00 28/02/2014
807 602400 ELZA MARIA MOREIRA MUNIZ ANALISTA DO MP ATIVO CARMO DO PARANAÍBA - COMARCA; CARMO DO PARANAIBA-PJ-01PJ 4.404,59 0,00 0,00 0,00 0,00 0,00 4.404,59 484,50 279,06 0,00 763,56 3.641,03 457,00 0,00 28/02/2014
808 368401 ELZIRA SIMOES DOS SANTOS ASSESSOR ATIVO BELO HORIZONTE - COMARCA; DIRETORIA DE RELACOES PUBLICAS E CERIMONIAL 0,00 0,00 8.777,78 0,00 0,00 0,00 8.777,78 482,93 1.580,61 0,00 2.063,54 6.714,24 457,00 0,00 28/02/2014
809 437400 EMANOELLE DA SILVA RODRIGUES OFICIAL DO MP ATIVO UNAÍ - COMARCA; UNAI-PJ-03PJ 4.404,59 264,28 0,00 0,00 0,00 0,00 4.668,87 513,58 291,55 0,00 805,13 3.863,74 3.258,32 210,10 28/02/2014
810 458900 EMANUELLE CONRAD SILVA FREDERICO ANALISTA DO MP ATIVO DIVINÓPOLIS - COMARCA; DIVINOPOLIS-PJ-08PJ 6.265,58 375,93 0,00 0,00 0,00 0,00 6.641,51 730,57 799,36 0,00 1.529,93 5.111,58 3.553,22 283,82 28/02/2014
811 284100 EMERSON MAGNO ALMEIDA PEDROSA DA FONSECA ANALISTA DO MP ATIVO BELO HORIZONTE - COMARCA; CENTRAL DE APOIO TECNICO-SETOR CONTABIL 9.663,38 1.932,68 0,00 0,00 0,00 0,00 11.596,06 1.275,57 1.219,54 0,00 2.495,11 9.100,95 4.237,29 324,98 28/02/2014
812 179900 EMERSON MORAIS DIAS OFICIAL DO MP ATIVO BELO HORIZONTE - COMARCA; EXTINTA - DIVISÃO DE APOIO À LICITAÇÃO 8.501,02 2.550,31 0,00 0,00 0,00 0,00 11.051,33 1.215,65 1.878,66 0,00 3.094,31 7.957,02 457,00 0,00 28/02/2014
813 488700 EMERSON SIQUEIRA DE SOUSA TEIXEIRA ANALISTA DO MP ATIVO TARUMIRIM - COMARCA; TARUMIRIM-PJ-UNPJ 6.068,01 0,00 0,00 0,00 0,00 0,00 6.068,01 667,48 510,74 0,00 1.178,22 4.889,79 927,00 0,00 28/02/2014
814 194200 EMILIA ALVES FERREIRA RAMOS OFICIAL DO MP ATIVO UBERLÂNDIA - COMARCA; UBERLANDIA-PJ-19PJ 4.696,06 939,21 0,00 0,00 0,00 0,00 5.635,27 619,88 454,24 0,00 1.074,12 4.561,15 3.838,16 309,94 28/02/2014
815 123400 EMILIO CARLOS MARTINS OFICIAL DO MP ATIVO AREADO - COMARCA; AREADO-PJ-UNPJ 9.977,95 6.984,58 0,00 0,00 0,00 0,00 16.962,53 1.865,88 3.276,01 0,00 5.141,89 11.820,64 457,00 0,00 28/02/2014
816 549300 EMILIO VIEIRA SILVA ASSESSOR ATIVO BELO HORIZONTE - COMARCA; EXTINTA - DIVISAO DE TRANSPORTES 0,00 0,00 2.359,08 0,00 0,00 0,00 2.359,08 309,77 53,89 0,00 363,66 1.995,42 457,00 0,00 28/02/2014
817 297000 ENEIDA SOARES COSTA MELO ANALISTA DO MP ATIVO PIUMHI - COMARCA; PIUMHI-PJ-01PJ 9.663,38 966,34 0,00 0,00 0,00 0,00 10.629,72 1.169,27 1.775,47 0,00 2.944,74 7.684,98 4.002,29 324,98 28/02/2014
818 276000 ENEZIO RODRIGUES DE SOUZA FILHO OFICIAL DO MP ATIVO UBERLÂNDIA - COMARCA; UBERLANDIA-PJ-SEC FAMILIA 5.876,69 1.175,34 0,00 0,00 0,00 0,00 7.052,03 775,72 899,84 0,00 1.675,56 5.376,47 457,00 0,00 28/02/2014
819 387700 ENI MARIA DOS REIS OFICIAL DO MP ATIVO POUSO ALEGRE - COMARCA; POUSO ALEGRE-PJ-04PJ 5.006,87 1.609,01 0,00 0,00 0,00 0,00 6.615,88 605,83 777,19 0,00 1.383,02 5.232,86 4.002,29 324,98 28/02/2014
820 605100 ENIA MAIA OFICIAL DO MP ATIVO BELO HORIZONTE - COMARCA; DIRETORIA DE ORCAMENTO-DIOR/SPC 2.859,08 0,00 0,00 0,00 0,00 0,00 2.859,08 314,50 56,76 0,00 371,26 2.487,82 457,00 0,00 28/02/2014
821 612200 ENILDO GOMES MEIRA FILHO ANALISTA DO MP ATIVO BUENÓPOLIS - COMARCA; BUENOPOLIS-PJ-UNPJ 3.964,13 0,00 0,00 0,00 0,00 0,00 3.964,13 436,05 194,18 0,00 630,23 3.333,90 436,23 0,00 28/02/2014
822 553700 ENIVALDO NOVATO PUBLIO ANALISTA DO MP ATIVO DIVINÓPOLIS - COMARCA; DIVINOPOLIS-PJ-09PJ 4.404,59 0,00 0,00 0,00 0,00 0,00 4.404,59 484,50 238,63 0,00 723,13 3.681,46 457,00 0,00 28/02/2014
823 417300 ERIC BARATTI DA SILVA ANALISTA DO MP ATIVO PRATA - COMARCA; PRATA-PJ-UNPJ 6.469,61 388,18 0,00 0,00 0,00 0,00 6.857,79 754,36 852,29 0,00 1.606,65 5.251,14 457,00 0,00 28/02/2014
824 398900 ERIC TEIXEIRA SILVA OFICIAL DO MP ATIVO UBERLÂNDIA - COMARCA; UBERLANDIA-PJ-08PJ 4.131,19 413,12 0,00 0,00 0,00 0,00 4.544,31 499,87 307,04 0,00 806,91 3.737,40 457,00 0,00 28/02/2014
825 274200 ERICA DE SOUZA ANDRADE OFICIAL DO MP ATIVO BELO HORIZONTE - COMARCA; BH-18PJ DIREITOS HUMANOS 6.265,58 1.253,12 0,00 0,00 0,00 0,00 7.518,70 827,06 915,21 0,00 1.742,27 5.776,43 4.002,29 324,98 28/02/2014
826 225700 ERICA GOMES DO COUTO OFICIAL DO MP ATIVO BELO HORIZONTE - COMARCA; CAO-TS-TERCEIRO SETOR-SECRETARIA 7.242,73 1.448,55 0,00 0,00 0,00 0,00 8.691,28 956,04 1.301,04 0,00 2.257,08 6.434,20 4.002,29 324,98 28/02/2014
827 524800 ERICA MACHADO DA COSTA E SOUZA ANALISTA DO MP ATIVO BELO HORIZONTE - COMARCA; PROC JUST RECURSOS ESP E EXTRAORD CRIMINAIS 5.511,94 0,00 0,00 0,00 0,00 0,00 5.511,94 606,31 522,90 0,00 1.129,21 4.382,73 457,00 0,00 28/02/2014
828 249500 ERICA RODRIGUES ANDRADE OFICIAL DO MP ATIVO SÃO FRANCISCO - COMARCA; SAO FRANCISCO-PJ-02PJ 4.696,06 939,21 0,00 0,00 0,00 0,00 5.635,27 619,88 503,66 0,00 1.123,54 4.511,73 692,00 0,00 28/02/2014
829 260800 ERICA VIANA GIARDINI DE OLIVEIRA OFICIAL DO MP ATIVO BELO HORIZONTE - COMARCA; EXTINTA - DIVISÃO DE COMPRAS 6.469,61 1.293,92 0,00 0,00 0,00 0,00 7.763,53 853,99 1.073,97 0,00 1.927,96 5.835,57 457,00 0,00 28/02/2014
830 299800 ERICH DOUGLAS RIBEIRO GARCIA ANALISTA DO MP ATIVO BELO HORIZONTE - COMARCA; CENTRAL DE APOIO TECNICO-SETOR CONTABIL 9.358,72 935,87 0,00 0,00 3.431,53 0,00 13.726,12 1.132,40 2.637,12 0,00 3.769,52 9.956,60 457,00 0,00 28/02/2014
831 365000 ERICK EDUARDO JOSE DA SILVA OFICIAL DO MP ATIVO SANTOS DUMONT - COMARCA; SANTOS DUMONT-PJ-02PJ 4.265,74 426,57 0,00 0,00 1.564,10 0,00 6.256,41 516,15 752,42 0,00 1.268,57 4.987,84 457,00 0,00 28/02/2014
832 123500 ERICO SEGISMUNDO LIMA VILASBOAS ANALISTA DO MP ATIVO MONTES CLAROS - COMARCA; COORD REG PJ DEF EDUC DIR CRIANCA ADOL NORTE 14.432,31 11.545,84 0,00 0,00 0,00 0,00 25.978,15 2.966,43 5.667,17 0,00 8.633,60 17.344,55 4.002,29 1.644,17 28/02/2014
833 227400 ERIKA DE LAET GOULART BOECHAT ASSESSOR/OFICIAL ATIVO BELO HORIZONTE - COMARCA; ASSESSORIA ESPECIAL DO PGJ 0,00 1.932,68 9.663,38 0,00 0,00 0,00 11.596,06 1.052,49 2.073,33 0,00 3.125,82 8.470,24 3.869,35 312,80 28/02/2014
834 451800 ERIKA DELLARETTI GUIMARAES OFICIAL DO MP ATIVO LAVRAS - COMARCA; LAVRAS-PJ-04PJ 3.694,41 221,66 0,00 0,00 0,00 0,00 3.916,07 430,77 160,81 0,00 591,58 3.324,49 457,00 0,00 28/02/2014
835 285100 ERIKA FERREIRA DA SILVA OFICIAL DO MP ATIVO JUIZ DE FORA - COMARCA; JUIZ DE FORA-PJ-14PJ 6.265,58 1.253,12 0,00 0,00 0,00 0,00 7.518,70 827,06 1.014,05 0,00 1.841,11 5.677,59 4.002,29 324,98 28/02/2014
836 420100 ERIKA JEANINE VERSIANI DE CASTRO ANALISTA DO MP ATIVO MONTES CLAROS - COMARCA; COORD REG PJ DEF EDUC DIR CRIANCA ADOL NORTE 7.014,37 701,44 0,00 0,00 0,00 0,00 7.715,81 848,74 1.012,87 0,00 1.861,61 5.854,20 4.002,29 324,98 28/02/2014
837 606900 ERIKA MARIA BARBOSA ANALISTA DO MP ATIVO BELO HORIZONTE - COMARCA; CAO-SAUDE 4.404,59 0,00 0,00 0,00 0,00 0,00 4.404,59 484,50 238,63 0,00 723,13 3.681,46 457,00 0,00 28/02/2014
838 491000 ERIKA ROCHA PEREIRA E SILVA ANALISTA DO MP ATIVO BELO HORIZONTE - COMARCA; DIRETORIA DE SISTEMAS DE INFORMACAO 6.068,01 0,00 0,00 0,00 0,00 0,00 6.068,01 667,48 659,00 0,00 1.326,48 4.741,53 457,00 0,00 28/02/2014
839 283201 ERIKA STEHLING ASSESSOR/ANALISTA ATIVO BELO HORIZONTE - COMARCA; CENTRAL DE APOIO TECNICO-SETOR DE ENGENHARIA 0,00 0,00 7.973,40 0,00 0,00 0,00 7.973,40 667,48 1.084,14 0,00 1.751,62 6.221,78 457,00 0,00 28/02/2014
840 383500 ERIKO RODRIGUES VELOSO ANALISTA DO MP ATIVO BOCAIÚVA - COMARCA; BOCAIUVA-PJ-01PJ 6.578,93 657,89 0,00 0,00 0,00 0,00 7.236,82 796,05 945,06 0,00 1.741,11 5.495,71 457,00 0,00 28/02/2014
841 254000 ERLANDIA DA SILVA MENDES OFICIAL DO MP ATIVO IPATINGA - COMARCA; IPATINGA-PJ-03PJ 6.265,58 1.879,67 0,00 0,00 0,00 0,00 8.145,25 895,98 1.019,14 0,00 1.915,12 6.230,13 4.237,29 324,98 28/02/2014
842 208600 ERNANE JOSE DA COSTA ANALISTA DO MP ATIVO BELO HORIZONTE - COMARCA; CENTRAL DE APOIO TECNICO-SETOR MEDICO 13.353,95 6.676,98 0,00 0,00 0,00 0,00 20.030,93 2.203,40 4.076,42 0,00 6.279,82 13.751,11 457,00 0,00 28/02/2014
843 260600 ERNANI CALDEIRA DE ANDRADE ANALISTA DO MP ATIVO BELO HORIZONTE - COMARCA; CENTRAL DE APOIO TECNICO-SETOR CONTABIL 9.401,94 2.127,66 0,00 0,00 0,00 0,00 11.529,60 1.404,25 1.958,32 0,00 3.362,57 8.167,03 4.002,29 324,98 28/02/2014
844 348500 ERNILANDIA OLIVEIRA DIAS OFICIAL DO MP ATIVO BELO HORIZONTE - COMARCA; EXTINTA - JUIZO DE FAMILIA-02 PJ-02 VARA 5.006,87 500,69 0,00 0,00 0,00 0,00 5.507,56 605,83 521,83 0,00 1.127,66 4.379,90 457,00 0,00 28/02/2014
845 199300 ERTON PORTINARI DE ANDRADE OFICIAL DO MP ATIVO SETE LAGOAS - COMARCA; SETE LAGOAS-PJ-01PJ 8.233,02 2.469,91 0,00 0,00 0,00 0,00 10.702,93 1.278,24 1.919,08 0,00 3.197,32 7.505,61 4.002,29 1.242,38 28/02/2014
846 430400 ESDRAS SOARES VILAS BOAS RIBEIRO OFICIAL DO MP ATIVO BELO HORIZONTE - COMARCA; BH-17PJ PATRIMONIO PUBLICO-SECRETARIA 4.404,59 264,28 0,00 0,00 0,00 0,00 4.668,87 513,58 331,98 0,00 845,56 3.823,31 457,00 0,00 28/02/2014
847 537000 ESTANISLAU CORREIA ALMEIDA JUNIOR OFICIAL DO MP ATIVO UBERLÂNDIA - COMARCA; UBERLANDIA-PJ-04PJ 2.859,08 0,00 0,00 0,00 0,00 0,00 2.859,08 314,50 56,76 0,00 371,26 2.487,82 457,00 0,00 28/02/2014
848 326900 ESTER ALICE PIMENTA OFICIAL DO MP ATIVO BELO HORIZONTE - COMARCA; COORD DE INCLUSAO E MOBILIZACAO SOCIAIS 5.876,69 587,67 0,00 0,00 0,00 0,00 6.464,36 711,08 706,58 0,00 1.417,66 5.046,70 3.376,07 267,58 28/02/2014
849 503700 ESTHER GONCALVES FONSECA ANALISTA DO MP ATIVO BELO HORIZONTE - COMARCA; DIRETORIA DE PUBLICIDADE INSTITUCIONAL 5.006,87 0,00 0,00 0,00 0,00 0,00 5.006,87 550,76 399,66 0,00 950,42 4.056,45 457,00 0,00 28/02/2014
850 475600 ETIENE DE FATIMA OLIVEIRA PEREIRA ANALISTA DO MP ATIVO PATROCÍNIO - COMARCA; PATROCINIO-PJ-04PJ 6.265,58 375,93 0,00 0,00 0,00 0,00 6.641,51 730,57 749,94 0,00 1.480,51 5.161,00 457,00 0,00 28/02/2014
851 428800 EUGENIA RODRIGUES TRAJANO BORGES ANALISTA DO MP ATIVO UBERABA - COMARCA; UBERABA-PJ-08PJ 6.793,15 407,59 0,00 0,00 0,00 0,00 7.200,74 792,08 936,23 0,00 1.728,31 5.472,43 457,00 0,00 28/02/2014
852 272700 EUGENIO DE BARCELOS FILHO OFICIAL DO MP ATIVO FRUTAL - COMARCA; FRUTAL-PJ-02PJ 5.006,87 1.001,37 0,00 0,00 0,00 0,00 6.008,24 660,91 594,95 0,00 1.255,86 4.752,38 2.919,95 225,77 28/02/2014
853 254100 EULALIA ALVES MIRANDA LUCAS OFICIAL DO MP ATIVO ALMENARA - COMARCA; ALMENARA-PJ-SECRETARIA 6.265,58 2.361,44 0,00 0,00 0,00 0,00 8.627,02 827,06 1.170,58 0,00 1.997,64 6.629,38 457,00 0,00 28/02/2014
854 557900 EURIPEDES JUSUE PERES OFICIAL DO MP ATIVO IBIÁ - COMARCA; IBIA-PJ-UNPJ 2.859,08 0,00 0,00 0,00 0,00 0,00 2.859,08 314,50 56,76 0,00 371,26 2.487,82 457,00 0,00 28/02/2014
855 225800 EURO CESAR VIEIRA BARBOSA ANALISTA DO MP ATIVO BELO HORIZONTE - COMARCA; BH-17PJ PATRIMONIO PUBLICO 11.885,64 2.377,13 0,00 0,00 0,00 0,00 14.262,77 1.568,90 2.565,82 0,00 4.134,72 10.128,05 4.472,29 324,98 28/02/2014
856 199400 EUSTAQUIO ADAILTON LIMA E SILVA OFICIAL DO MP ATIVO MANGA - COMARCA; MANGA-PJ-01PJ 8.233,02 3.293,21 0,00 0,00 0,00 0,00 11.526,23 1.267,89 1.797,21 0,00 3.065,10 8.461,13 457,00 0,00 28/02/2014
857 249000 EUSTAQUIO GOMES DE OLIVEIRA OFICIAL DO MP ATIVO BELO HORIZONTE - COMARCA; CAO-TS-CONTROLADORIA E APOIO AS ENTIDADES  6.469,61 2.587,84 0,00 0,00 0,00 0,00 9.057,45 996,32 1.341,24 0,00 2.337,56 6.719,89 457,00 0,00 28/02/2014
858 67100 EVA DAS DORES BARROS VALGAS ANALISTA DO MP ATIVO FERROS - COMARCA; FERROS-PJ-SECRETARIA 13.882,65 9.717,87 0,00 0,00 0,00 0,00 23.600,52 2.892,66 5.324,16 0,00 8.216,82 15.383,70 457,00 2.995,97 28/02/2014
859 548000 EVA VILMA LEAO DOS REIS JULIO OFICIAL DO MP ATIVO BELO HORIZONTE - COMARCA; BH-15PJ M AMB 16PJ HAB URB-SECRETARIA 2.859,08 571,82 0,00 0,00 1.143,63 0,00 4.574,53 377,40 341,39 0,00 718,79 3.855,74 457,00 0,00 28/02/2014
860 517000 EVALDO SENA COSTA FILHO ANALISTA DO MP ATIVO CONTAGEM - COMARCA; CONTAGEM-PJ-15PJ 6.068,01 1.213,60 0,00 0,00 0,00 0,00 7.281,61 800,98 807,76 0,00 1.608,74 5.672,87 4.237,29 324,98 28/02/2014
861 217500 EVELANGE LEAO RABELO ASSESSOR ATIVO BELO HORIZONTE - COMARCA; COORD EST DEF DIR FAMILIA PESSOA DEFICI IDOSO 0,00 471,82 2.359,08 0,00 943,63 0,00 3.774,53 361,67 267,76 0,00 629,43 3.145,10 457,00 0,00 28/02/2014
862 540400 EVIE SARAMELLA DE RESENDE OFICIAL DO MP ATIVO BARBACENA - COMARCA; BARBACENA-PJ-01PJ 2.859,08 0,00 0,00 0,00 953,03 0,00 3.812,11 341,46 233,08 0,00 574,54 3.237,57 457,00 245,10 28/02/2014
863 469000 EWERTON CARDOSO DE SA RODRIGUES ANALISTA DO MP ATIVO CAMPO BELO - COMARCA; CAMPO BELO-PJ-01PJ 6.265,58 375,93 0,00 0,00 0,00 0,00 6.641,51 837,03 986,81 0,00 1.823,84 4.817,67 457,00 967,81 28/02/2014
864 368900 FABIANA BARBOSA SIQUEIRA OFICIAL DO MP ATIVO BELO HORIZONTE - COMARCA; CAO-ORDEM ECONOMICA E TRIBUTARIA-SECRETARIA 5.169,86 516,99 0,00 0,00 0,00 0,00 5.686,85 625,55 516,29 0,00 1.141,84 4.545,01 692,00 0,00 28/02/2014
865 273800 FABIANA CARNEIRO AMORIM COORDENADOR/OFICIAL ATIVO BELO HORIZONTE - COMARCA; BH-23PJ INFRACIONAL-COORD ADM INFRACIONAL 0,00 1.812,72 9.063,59 0,00 0,00 0,00 10.876,31 751,27 1.859,40 0,00 2.610,67 8.265,64 4.002,29 324,98 28/02/2014
866 519300 FABIANA DE OLIVEIRA LOUREIRO ANALISTA DO MP ATIVO BELO HORIZONTE - COMARCA; BH-09PJ AUDITORIA MILITAR 6.068,01 0,00 0,00 0,00 0,00 0,00 6.068,01 793,89 867,68 0,00 1.661,57 4.406,44 692,00 1.149,21 28/02/2014
867 363400 FABIANA DOURADO DUPIN VIEGAS ANALISTA DO MP ATIVO BELO HORIZONTE - COMARCA; GABINETE DE PROCURADOR DE JUSTIÇA - SALA 705 8.501,02 850,10 0,00 0,00 0,00 0,00 9.351,12 1.028,62 1.413,12 0,00 2.441,74 6.909,38 692,00 0,00 28/02/2014
868 410800 FABIANA DUARTE QUITITE ANALISTA DO MP ATIVO BELO HORIZONTE - COMARCA; COORD ESTADUAL COMBATE CRIMES CIBERNETICOS 7.014,37 701,44 0,00 0,00 0,00 0,00 7.715,81 848,74 1.062,29 0,00 1.911,03 5.804,78 4.002,29 324,98 28/02/2014
869 419500 FABIANA EULALIA DOS SANTOS ANALISTA DO MP ATIVO SÃO JOÃO DEL REI - COMARCA; SAO JOAO DEL REI-PJ-01PJ 7.014,37 701,44 0,00 0,00 0,00 0,00 7.715,81 848,74 1.062,29 0,00 1.911,03 5.804,78 4.002,29 324,98 28/02/2014
870 376300 FABIANA MATTOSO LEMOS ANALISTA DO MP ATIVO BELO HORIZONTE - COMARCA; COORD-GERAL DAS PJS POR BACIA HIDRO. DE MG 7.973,40 797,34 0,00 0,00 2.923,58 0,00 11.694,32 964,78 2.124,47 0,00 3.089,25 8.605,07 457,00 0,00 28/02/2014
871 331500 FABIANA PACHECO OFICIAL DO MP ATIVO GUAXUPÉ - COMARCA; GUAXUPE-PJ-01PJ 5.691,44 569,14 0,00 0,00 0,00 0,00 6.260,58 688,66 607,29 0,00 1.295,95 4.964,63 3.172,29 248,90 28/02/2014
872 510700 FABIANA PEREIRA SANTOS BORGES ANALISTA DO MP ATIVO BELO HORIZONTE - COMARCA; DIRETORIA DE SISTEMAS DE INFORMACAO 5.511,94 0,00 0,00 0,00 0,00 0,00 5.511,94 658,29 589,12 0,00 1.247,41 4.264,53 457,00 472,50 28/02/2014
873 181700 FABIANA SOUZA FERREIRA OFICIAL DO MP ATIVO BELO HORIZONTE - COMARCA; BH-19PJ SAUDE 4.404,59 880,92 0,00 0,00 0,00 0,00 5.285,51 581,41 374,59 0,00 956,00 4.329,51 2.432,22 130,52 28/02/2014
874 272900 FABIANA STOCKLER LEITE OFICIAL DO MP ATIVO LAJINHA - COMARCA; LAJINHA-PJ-SECRETARIA 6.265,58 1.879,67 0,00 0,00 0,00 0,00 8.145,25 895,98 1.068,56 0,00 1.964,54 6.180,71 692,00 0,00 28/02/2014
875 225500 FABIANE DE FATIMA PORTELLA ANALISTA DO MP ATIVO BELO HORIZONTE - COMARCA; SERVICO MEDICO-DEPTO PERIC MEDICA SAUDE OCUP 10.984,62 2.196,92 0,00 0,00 0,00 0,00 13.181,54 1.449,97 2.400,03 0,00 3.850,00 9.331,54 457,00 0,00 28/02/2014
876 433800 FABIANE DINIZ MATTOS ANALISTA DO MP ATIVO BELO HORIZONTE - COMARCA; BH-23PJ INFRACIONAL-ASS JURIDICA 6.793,15 407,59 0,00 0,00 0,00 0,00 7.200,74 792,08 936,23 0,00 1.728,31 5.472,43 457,00 0,00 28/02/2014
877 455000 FABIANO CARVALHO DA SILVA ANALISTA DO MP ATIVO LAVRAS - COMARCA; COORD REG DO MA DA BACIA DO RIO GRANDE 6.265,58 375,93 0,00 0,00 2.213,84 0,00 8.855,35 730,57 1.408,16 0,00 2.138,73 6.716,62 457,00 0,00 28/02/2014
878 498800 FABIANO FURTADO PESSOA COELHO ANALISTA DO MP ATIVO BELO HORIZONTE - COMARCA; DIRETORIA DE REDES E BANCOS DE DADOS 6.068,01 0,00 0,00 0,00 0,00 0,00 6.068,01 713,25 711,41 0,00 1.424,66 4.643,35 927,00 416,08 28/02/2014
879 394600 FABIANO PALHARES SILVA ANALISTA DO MP ATIVO BELO HORIZONTE - COMARCA; CENTRAL DE APOIO TECN-SETOR DE MEIO AMBIENTE 7.973,40 797,34 0,00 0,00 0,00 0,00 8.770,74 964,78 1.271,07 0,00 2.235,85 6.534,89 2.540,98 169,49 28/02/2014
880 444400 FABIANO SARAIVA MEDEIROS ANALISTA DO MP ATIVO BETIM - COMARCA; BETIM-PJ-11PJ 6.793,15 407,59 0,00 0,00 0,00 0,00 7.200,74 792,08 886,81 0,00 1.678,89 5.521,85 4.237,29 324,98 28/02/2014
881 408700 FABIANO SOARES PORTILHO ANALISTA DO MP ATIVO VIÇOSA - COMARCA; VICOSA-PJ-02PJ 7.014,37 701,44 0,00 0,00 0,00 0,00 7.715,81 848,74 1.062,29 0,00 1.911,03 5.804,78 1.541,20 99,39 28/02/2014
882 384301 FABIO BRUNO DA SILVA ANALISTA DO MP ATIVO BONFIM - COMARCA; BONFIM-PJ-UNPJ 6.469,61 646,96 0,00 0,00 0,00 0,00 7.116,57 832,19 998,03 0,00 1.830,22 5.286,35 457,00 448,87 28/02/2014
883 442600 FABIO CARVALHO ANALISTA DO MP ATIVO MONTES CLAROS - COMARCA; MONTES CLAROS-PJ-SECRETARIA 5.169,86 310,19 0,00 0,00 0,00 0,00 5.480,05 602,81 515,09 0,00 1.117,90 4.362,15 457,00 0,00 28/02/2014
884 123700 FABIO JOSE ANDRADE NOGUEIRA OFICIAL DO MP ATIVO FORMIGA - COMARCA; FORMIGA-PJ-SECRETARIA 7.721,95 5.405,38 0,00 0,00 0,00 0,00 13.127,33 1.444,01 1.364,14 0,00 2.808,15 10.319,18 457,00 0,00 28/02/2014
885 240101 FABIO JUNQUEIRA DE ASSIS FONSECA OFICIAL DO MP ATIVO BELO HORIZONTE - COMARCA; DIRET DE DESENV DE RECURSOS HUMANOS-DDRH 4.131,19 413,12 0,00 0,00 0,00 0,00 4.544,31 499,87 307,04 0,00 806,91 3.737,40 457,00 0,00 28/02/2014
886 271500 FABIO LUIZ VIEIRA OFICIAL DO MP ATIVO SANTA VITÓRIA - COMARCA; SANTA VITORIA-PJ-UNPJ 5.006,87 1.001,37 0,00 0,00 0,00 0,00 6.008,24 762,88 722,99 0,00 1.485,87 4.522,37 3.008,11 1.152,77 28/02/2014
887 213100 FABIO PRATES GONCALVES ASSESSOR ATIVO BELO HORIZONTE - COMARCA; DIRETORIA DE RELACOES PUBLICAS E CERIMONIAL 6.265,58 1.253,12 0,00 0,00 0,00 0,00 7.518,70 482,93 1.135,52 0,00 1.618,45 5.900,25 692,00 0,00 28/02/2014
888 436700 FABIO SANTIAGO DE CARVALHO OFICIAL DO MP ATIVO POÇO FUNDO - COMARCA; POCO FUNDO-PJ-UNPJ 4.848,98 290,94 0,00 0,00 0,00 0,00 5.139,92 613,86 539,68 0,00 1.153,54 3.986,38 457,00 440,60 28/02/2014
889 208400 FABIOLA DE SOUSA CARDOSO ASSESSOR/ANALISTA ATIVO BELO HORIZONTE - COMARCA; ASSESS TECNICA DA CORREGEDORIA-GERAL DO MP 13.353,95 4.603,47 0,00 0,00 0,00 0,00 17.957,42 1.762,72 3.627,39 0,00 5.390,11 12.567,31 4.002,29 324,98 28/02/2014
890 392200 FABIOLA LEROY COSTA ANALISTA DO MP ATIVO ESMERALDAS - COMARCA; ESMERALDAS-PJ-01PJ 5.876,69 587,67 0,00 0,00 0,00 0,00 6.464,36 711,08 756,00 0,00 1.467,08 4.997,28 457,00 0,00 28/02/2014
891 409000 FABIOLA MONTEIRO DE CARVALHO CASTRO ANALISTA DO MP ATIVO BOM SUCESSO - COMARCA; BOM SUCESSO-PJ-UNPJ 7.014,37 701,44 0,00 0,00 0,00 0,00 7.715,81 848,74 1.062,29 0,00 1.911,03 5.804,78 457,00 0,00 28/02/2014
892 227900 FABIOLA PIMENTA DE CARVALHO OFICIAL DO MP ATIVO MONTES CLAROS - COMARCA; COORD REG BACIA RIOS VERDE GRANDE E PARDO 5.691,44 1.138,29 0,00 0,00 0,00 0,00 6.829,73 751,27 796,01 0,00 1.547,28 5.282,45 3.741,44 301,07 28/02/2014
893 525800 FABRICIA ALVES DANTAS OFICIAL DO MP ATIVO MONTES CLAROS - COMARCA; MONTES CLAROS-PJ-02PJ 3.577,90 0,00 0,00 0,00 0,00 0,00 3.577,90 393,57 88,71 0,00 482,28 3.095,62 692,00 0,00 28/02/2014
894 263400 FABRICIA PINTO TEIXEIRA SANTIAGO OFICIAL DO MP ATIVO BELO HORIZONTE - COMARCA; CAO-TS-TERCEIRO SETOR-SECRETARIA 6.469,61 1.293,92 0,00 0,00 0,00 0,00 7.763,53 853,99 975,13 0,00 1.829,12 5.934,41 692,00 0,00 28/02/2014
895 420800 FABRICIO BERNARDES DE OLIVEIRA OFICIAL DO MP ATIVO ITURAMA - COMARCA; ITURAMA-PJ-02PJ 4.848,98 484,90 0,00 0,00 0,00 0,00 5.333,88 687,31 653,70 0,00 1.341,01 3.992,87 601,96 914,40 28/02/2014
896 474000 FABRICIO DE FREITAS SALES ANALISTA DO MP ATIVO BELO HORIZONTE - COMARCA; SUPERINTENDENCIA DE RECURSOS HUMANOS 6.265,58 375,93 0,00 0,00 0,00 0,00 6.641,51 730,57 799,36 0,00 1.529,93 5.111,58 692,00 0,00 28/02/2014
897 510100 FABRICIO FURTADO ASSIS DO CARMO ANALISTA DO MP ATIVO BELO HORIZONTE - COMARCA; SERVICO MEDICO-DEPTO PERIC MEDICA SAUDE OCUP 5.511,94 0,00 0,00 0,00 0,00 0,00 5.511,94 606,31 522,90 0,00 1.129,21 4.382,73 457,00 0,00 28/02/2014
898 519600 FABRICIO GONTIJO SALVATI ANALISTA DO MP ATIVO JUIZ DE FORA - COMARCA; JUIZ DE FORA-PJ-13PJ 6.068,01 0,00 0,00 0,00 0,00 0,00 6.068,01 793,89 918,65 0,00 1.712,54 4.355,47 790,64 1.365,15 28/02/2014
899 428200 FABRICIO ORZIL VIANA ANALISTA DO MP ATIVO SANTA LUZIA - COMARCA; SANTA LUZIA-PJ-04PJ 6.265,58 375,93 0,00 0,00 0,00 0,00 6.641,51 730,57 799,36 0,00 1.529,93 5.111,58 457,00 0,00 28/02/2014
900 455600 FABRICIO PAIVA DA ROCHA ANALISTA DO MP ATIVO ANDRELÂNDIA - COMARCA; ANDRELANDIA-PJ-UNPJ 6.265,58 375,93 0,00 0,00 0,00 0,00 6.641,51 793,19 889,28 0,00 1.682,47 4.959,04 457,00 569,30 28/02/2014
901 511500 FABRICIO RENE CARDOSO DE PADUA ANALISTA DO MP ATIVO SÃO SEBASTIÃO DO PARAÍSO - COMARCA; SAO SEBASTIAO DO PARAISO-PJ-03PJ 6.068,01 0,00 0,00 0,00 0,00 0,00 6.068,01 667,48 659,00 0,00 1.326,48 4.741,53 457,00 0,00 28/02/2014
902 496100 FABRICIO RESENDE GONCALVES OFICIAL DO MP ATIVO ENTRE-RIOS DE MINAS - COMARCA; ENTRE RIOS DE MINAS-PJ-UNPJ 3.577,90 1.108,32 0,00 0,00 0,00 0,00 4.686,22 393,57 362,89 0,00 756,46 3.929,76 457,00 0,00 28/02/2014
903 514900 FADUA MARIA DRUMOND CHEQUER ANALISTA DO MP ATIVO ALMENARA - COMARCA; COORD REG INCLUSAO MOBILIZ VALE JEQUITINHONHA 6.068,01 0,00 0,00 0,00 0,00 0,00 6.068,01 834,67 1.014,99 0,00 1.849,66 4.218,35 457,00 1.890,65 28/02/2014
904 282500 FANNY FERREIRA MELO FAVERO DE FRAVET OFICIAL DO MP ATIVO ARAXÁ - COMARCA; ARAXA-PJ-03PJ 5.006,87 1.001,37 0,00 0,00 0,00 0,00 6.008,24 793,08 938,46 0,00 1.731,54 4.276,70 4.472,29 1.526,58 28/02/2014
905 540100 FATIMA CRISTINA POVOA DA COSTA OFICIAL DO MP ATIVO BELO HORIZONTE - COMARCA; BH-18PJ VIOLENCIA DOMESTICA-SECRETARIA 2.859,08 571,82 0,00 0,00 0,00 0,00 3.430,90 442,12 201,91 0,00 644,03 2.786,87 457,00 588,40 28/02/2014
906 382800 FATIMA DE OLIVEIRA COELHO E SILVA OFICIAL DO MP ATIVO BELO HORIZONTE - COMARCA; DIRETORIA DE ADMINISTRACAO FINANCEIRA 4.000,95 800,19 0,00 0,00 0,00 0,00 4.801,14 533,41 327,65 0,00 861,06 3.940,08 692,00 48,02 28/02/2014
907 398601 FELIPE ANTONIO HORTA DE PAULA ANALISTA DO MP ATIVO BELO HORIZONTE - COMARCA; PROC. JUSTICA DIR. DIFUSOS E COLETIVOS-SEC 4.848,98 0,00 0,00 0,00 0,00 0,00 4.848,98 533,39 368,05 0,00 901,44 3.947,54 457,00 0,00 28/02/2014
908 529200 FELIPE AUGUSTO NASCIMENTO PEREIRA ASSESSOR ATIVO UBERABA - COMARCA; COORD REG PP TRIANGULO MINEIRO UBERABA 0,00 0,00 3.938,84 0,00 0,00 0,00 3.938,84 482,93 277,44 0,00 760,37 3.178,47 457,00 0,00 28/02/2014
909 430900 FELIPE BOY VIEIRA ANALISTA DO MP ATIVO BELO HORIZONTE - COMARCA; CAO-DH APOIO COMUNITARIO-SEC ADM 6.793,15 407,59 0,00 0,00 0,00 0,00 7.200,74 792,08 936,23 0,00 1.728,31 5.472,43 4.002,29 324,98 28/02/2014
910 549100 FELIPE FERNANDES ALVIM ANALISTA DO MP ATIVO LAJINHA - COMARCA; LAJINHA-PJ-UNPJ 4.404,59 0,00 0,00 0,00 0,00 0,00 4.404,59 546,81 392,48 0,00 939,29 3.465,30 457,00 566,40 28/02/2014
911 487300 FELIPE FERNANDES SILVEIRA ASSESSOR ATIVO BELO HORIZONTE - COMARCA; DIVISAO DE MANUTENCAO PREDIAL 0,00 0,00 2.359,08 0,00 0,00 0,00 2.359,08 309,77 53,89 0,00 363,66 1.995,42 457,00 0,00 28/02/2014
912 601600 FELIPE RODRIGUES DE SIQUEIRA ANALISTA DO MP ATIVO BELO HORIZONTE - COMARCA; BH-02PJ FAMILIA 4.404,59 0,00 0,00 0,00 0,00 0,00 4.404,59 484,50 279,06 0,00 763,56 3.641,03 457,00 0,00 28/02/2014
913 544500 FELLIPE LEMOS MARCONDES BUENO ANALISTA DO MP ATIVO SÃO SEBASTIÃO DO PARAÍSO - COMARCA; SAO SEBASTIAO DO PARAISO-PJ-04PJ 4.404,59 0,00 0,00 0,00 1.468,20 0,00 5.872,79 484,50 655,63 0,00 1.140,13 4.732,66 457,00 0,00 28/02/2014
914 508400 FERNANDA AGANETTI MATTOS DE OLIVEIRA ANALISTA DO MP ATIVO BELO HORIZONTE - COMARCA; BH-19PJ SAUDE 6.068,01 0,00 0,00 0,00 0,00 0,00 6.068,01 667,48 659,00 0,00 1.326,48 4.741,53 457,00 0,00 28/02/2014
915 453600 FERNANDA ALBERNAZ RABELO ANALISTA DO MP ATIVO BELO HORIZONTE - COMARCA; PROC. JUSTICA DE HABEAS CORPUS 6.265,58 375,93 0,00 0,00 0,00 0,00 6.641,51 730,57 799,36 0,00 1.529,93 5.111,58 457,00 0,00 28/02/2014
916 255600 FERNANDA ALINA DE ALMEIDA ANDRADE OFICIAL DO MP ATIVO BELO HORIZONTE - COMARCA; DIR ESTRUTURA E PROCESSOS ORGANIZACIONAIS 5.691,44 1.138,29 0,00 0,00 0,00 0,00 6.829,73 751,27 845,43 0,00 1.596,70 5.233,03 457,00 0,00 28/02/2014
917 443200 FERNANDA ALMEIDA LOPES ANALISTA DO MP ATIVO CONTAGEM - COMARCA; CONTAGEM-PJ-23PJ 6.793,15 407,59 0,00 0,00 0,00 0,00 7.200,74 792,08 936,23 0,00 1.728,31 5.472,43 4.002,29 324,98 28/02/2014
918 281100 FERNANDA ANANIAS MEIRA ANALISTA DO MP ATIVO BELO HORIZONTE - COMARCA; BH-23PJ INFRACIONAL-ASS JURIDICA 8.235,58 1.871,74 0,00 0,00 0,00 0,00 10.107,32 1.298,88 1.755,00 0,00 3.053,88 7.053,44 4.002,29 902,54 28/02/2014
919 539000 FERNANDA BARBOSA ALVES ANALISTA DO MP ATIVO CANÁPOLIS - COMARCA; CANAPOLIS-PJ-SECRETARIA 4.848,98 0,00 0,00 0,00 0,00 0,00 4.848,98 533,39 368,05 0,00 901,44 3.947,54 457,00 0,00 28/02/2014
920 451200 FERNANDA BLOISE PRADO OFICIAL DO MP ATIVO BELO HORIZONTE - COMARCA; NUCLEO DE NEGOCIACAO DE CONFLITOS AMBIENTAIS 3.694,41 221,66 0,00 0,00 0,00 0,00 3.916,07 430,77 187,77 0,00 618,54 3.297,53 457,00 0,00 28/02/2014
921 427900 FERNANDA BRAGA CARNEIRO BICALHO ANALISTA DO MP ATIVO PEÇANHA - COMARCA; PECANHA-PJ-SECRETARIA 6.793,15 407,59 0,00 0,00 0,00 0,00 7.200,74 792,08 886,81 0,00 1.678,89 5.521,85 457,00 0,00 28/02/2014
922 507100 FERNANDA CABRINI VAZ MOTA ANALISTA DO MP ATIVO BELO HORIZONTE - COMARCA; ASSESSORIA JURIDICO-ADMINISTRATIVA 6.068,01 0,00 0,00 0,00 0,00 0,00 6.068,01 667,48 659,00 0,00 1.326,48 4.741,53 4.002,29 324,98 28/02/2014
923 259800 FERNANDA CALZAVARA DE SOUSA COORDENADOR/OFICIAL ATIVO BELO HORIZONTE - COMARCA; DIRET DE FORMACAO, APERFEIC. E POS-GRADUACAO 0,00 2.060,57 10.302,83 0,00 0,00 0,00 12.363,40 868,42 2.469,22 0,00 3.337,64 9.025,76 4.002,29 813,16 28/02/2014
924 550300 FERNANDA CAMARGOS CALDEIRA BRANT ANALISTA DO MP ATIVO CONTAGEM - COMARCA; CONTAGEM-PJ-10PJ 4.848,98 0,00 0,00 0,00 0,00 0,00 4.848,98 533,39 368,05 0,00 901,44 3.947,54 457,00 0,00 28/02/2014
925 494400 FERNANDA CAMPOS BARATA OFICIAL DO MP ATIVO JUIZ DE FORA - COMARCA; JUIZ DE FORA-PJ-SECRETARIA 3.250,03 0,00 0,00 0,00 0,00 0,00 3.250,03 357,50 98,85 0,00 456,35 2.793,68 692,00 0,00 28/02/2014
926 555600 FERNANDA CAROLINE RIBEIRO ANALISTA DO MP ATIVO BELO HORIZONTE - COMARCA; EXTINTA - DIRETORIA DE CONTRATOS E CONVÊNIOS 4.848,98 0,00 0,00 0,00 0,00 0,00 4.848,98 533,39 368,05 0,00 901,44 3.947,54 457,00 0,00 28/02/2014
927 294500 FERNANDA COSTA FLORES OFICIAL DO MP ATIVO PARÁ DE MINAS - COMARCA; PARA DE MINAS-PJ-04PJ 6.265,58 1.253,12 0,00 0,00 0,00 0,00 7.518,70 895,98 1.175,42 0,00 2.071,40 5.447,30 4.430,41 1.199,63 28/02/2014
928 344500 FERNANDA CRISTINA DE SOUZA PAZ ASSESSOR ATIVO BELO HORIZONTE - COMARCA; CENTRAL DE APOIO TECN-SETOR DE MEIO AMBIENTE 0,00 0,00 3.938,84 0,00 0,00 0,00 3.938,84 482,93 197,99 0,00 680,92 3.257,92 927,00 0,00 28/02/2014
929 538100 FERNANDA CRISTINA DOS SANTOS ROSA MOREIRA OFICIAL DO MP ATIVO RIBEIRÃO DAS NEVES - COMARCA; RIBEIRAO DAS NEVES-PJ-SEC CIVEL 2.859,08 0,00 0,00 0,00 0,00 0,00 2.859,08 314,50 56,76 0,00 371,26 2.487,82 457,00 0,00 28/02/2014
930 337800 FERNANDA CRISTINA REIS ROLAND CLIMACO DA SILVA ASSESSOR/OFICIAL ATIVO BELO HORIZONTE - COMARCA; DIRETORIA-GERAL 0,00 877,78 8.777,78 0,00 0,00 0,00 9.655,56 688,66 1.639,75 0,00 2.328,41 7.327,15 4.002,29 324,98 28/02/2014
931 545400 FERNANDA CUNHA GUIMARAES ANALISTA DO MP ATIVO BELO HORIZONTE - COMARCA; EXTINTA - COORD DEFESA DO DIREITO DE FAMILIA 4.404,59 0,00 0,00 0,00 0,00 0,00 4.404,59 484,50 238,63 0,00 723,13 3.681,46 2.218,84 132,14 28/02/2014
932 429801 FERNANDA CUNHA PINHEIRO DA SILVA ANALISTA DO MP ATIVO BELO HORIZONTE - COMARCA; DIRETORIA DE PRODUCAO EDITORIAL 5.511,94 0,00 0,00 0,00 0,00 0,00 5.511,94 606,31 522,90 0,00 1.129,21 4.382,73 457,00 0,00 28/02/2014
933 408000 FERNANDA DAS NEVES RAMOS ANALISTA DO MP ATIVO BELO HORIZONTE - COMARCA; CENTRAL DE APOIO TECNICO-SETOR CONTABIL 7.014,37 701,44 0,00 0,00 0,00 0,00 7.715,81 848,74 1.062,29 0,00 1.911,03 5.804,78 3.543,32 282,91 28/02/2014
934 496000 FERNANDA DE ALMEIDA VIANA ANALISTA DO MP ATIVO BELO HORIZONTE - COMARCA; PROC JUST RECURSOS ESP E EXTRAORD CRIMINAIS 6.068,01 0,00 0,00 0,00 0,00 0,00 6.068,01 667,48 659,00 0,00 1.326,48 4.741,53 4.002,29 324,98 28/02/2014
935 266700 FERNANDA DE CASTRO LUCAS ASSESSOR/OFICIAL ATIVO BELO HORIZONTE - COMARCA; DIRET DE DESENV DE RECURSOS HUMANOS-DDRH 0,00 1.594,68 7.973,40 0,00 0,00 0,00 9.568,08 853,99 1.570,22 0,00 2.424,21 7.143,87 4.002,29 324,98 28/02/2014
936 433200 FERNANDA DE FIGUEIREDO NORTE ANALISTA DO MP ATIVO BELO HORIZONTE - COMARCA; ASSESS JUR DO CONS SUPERIOR DO MINISTERIO PUB 6.793,15 407,59 0,00 0,00 2.400,25 0,00 9.600,99 792,08 1.596,30 0,00 2.388,38 7.212,61 692,00 0,00 28/02/2014
937 419200 FERNANDA DE MIRANDA MARTINS SIMOES ANALISTA DO MP ATIVO UBERLÂNDIA - COMARCA; UBERLANDIA-PJ-19PJ 7.014,37 701,44 0,00 0,00 0,00 0,00 7.715,81 848,74 1.062,29 0,00 1.911,03 5.804,78 4.002,29 324,98 28/02/2014
938 441400 FERNANDA DE MORAIS PINTO ANALISTA DO MP ATIVO BELO HORIZONTE - COMARCA; PROC. JUSTICA DIR. DIFUSOS E COLETIVOS-SEC 6.793,15 407,59 0,00 0,00 0,00 0,00 7.200,74 792,08 936,23 0,00 1.728,31 5.472,43 457,00 0,00 28/02/2014
939 432200 FERNANDA DE MOURA GUIMARAES ANALISTA DO MP ATIVO BELO HORIZONTE - COMARCA; ASSESS TECNICO-JUR JUNTO AS PROC. DE JUST 6.793,15 407,59 0,00 0,00 0,00 0,00 7.200,74 792,08 936,23 0,00 1.728,31 5.472,43 4.002,29 324,98 28/02/2014
940 461800 FERNANDA DE OLIVEIRA SANTOS ANALISTA DO MP ATIVO JUIZ DE FORA - COMARCA; JUIZ DE FORA-PJ-21PJ 6.265,58 375,93 0,00 0,00 0,00 0,00 6.641,51 730,57 799,36 0,00 1.529,93 5.111,58 3.553,22 283,82 28/02/2014
941 432500 FERNANDA DE PAULA ABRANTES ANALISTA DO MP ATIVO BELO HORIZONTE - COMARCA; PROC JUST RECURSOS ESP E EXTRAORD CRIMINAIS 6.793,15 407,59 0,00 0,00 0,00 0,00 7.200,74 792,08 936,23 0,00 1.728,31 5.472,43 457,00 0,00 28/02/2014
942 431600 FERNANDA DIAS BARBOSA MENEZES ANALISTA DO MP ATIVO OURO BRANCO - COMARCA; OURO BRANCO-PJ-UNPJ 6.793,15 407,59 0,00 0,00 0,00 0,00 7.200,74 792,08 886,81 0,00 1.678,89 5.521,85 692,00 0,00 28/02/2014
943 162200 FERNANDA FERNANDES MONTEIRO ASSESSOR ATIVO BELO HORIZONTE - COMARCA; CAO-DH APOIO COMUNITARIO-SEC ADM 0,00 1.181,65 3.938,84 0,00 0,00 0,00 5.120,49 482,93 426,59 0,00 909,52 4.210,97 2.267,20 144,39 28/02/2014
944 512800 FERNANDA FERREIRA BARBOSA MOREIRA ANALISTA DO MP ATIVO IPATINGA - COMARCA; IPATINGA-PJ-05PJ 5.511,94 0,00 0,00 0,00 0,00 0,00 5.511,94 606,31 522,90 0,00 1.129,21 4.382,73 457,00 0,00 28/02/2014
945 329200 FERNANDA GABRIEL GUZELLA OFICIAL DO MP ATIVO BELO HORIZONTE - COMARCA; ASSESS ESPECIAL DO PGJ ATUACAO JUNTO A PGJAI 5.006,87 500,69 0,00 0,00 0,00 0,00 5.507,56 605,83 521,83 0,00 1.127,66 4.379,90 457,00 0,00 28/02/2014
946 324200 FERNANDA GEORGIA NEVES ZAHAN OFICIAL DO MP ATIVO IPANEMA - COMARCA; IPANEMA-PJ-SECRETARIA 4.848,98 2.424,49 0,00 0,00 0,00 0,00 7.273,47 800,08 855,19 0,00 1.655,27 5.618,20 457,00 0,00 28/02/2014
947 548200 FERNANDA GONCALVES DE CARVALHO ZUZA OFICIAL DO MP ATIVO TUPACIGUARA - COMARCA; TUPACIGUARA-PJ-UNPJ 2.859,08 0,00 0,00 0,00 953,03 0,00 3.812,11 314,50 189,61 0,00 504,11 3.308,00 457,00 0,00 28/02/2014
948 355400 FERNANDA HELENA BASQUES OFICIAL DO MP ATIVO SABARÁ - COMARCA; SABARA-PJ-01PJ 5.169,86 516,99 0,00 0,00 1.895,62 0,00 7.582,47 657,73 1.158,59 0,00 1.816,32 5.766,15 457,00 292,50 28/02/2014
949 454800 FERNANDA IATAROLA BARBOSA DIAS ANALISTA DO MP ATIVO BARBACENA - COMARCA; BARBACENA-PJ-01PJ 6.265,58 375,93 0,00 0,00 0,00 0,00 6.641,51 793,19 889,28 0,00 1.682,47 4.959,04 4.002,29 894,28 28/02/2014
950 515500 FERNANDA LILIANE MARUGEIRO ANALISTA DO MP ATIVO VESPASIANO - COMARCA; VESPASIANO-PJ-02PJ 6.068,01 0,00 0,00 0,00 0,00 0,00 6.068,01 667,48 659,00 0,00 1.326,48 4.741,53 457,00 0,00 28/02/2014
951 392900 FERNANDA MAGALHAES SILVA COORDENADOR/ANALISTA ATIVO BELO HORIZONTE - COMARCA; DIRETORIA DE IMPRENSA 0,00 1.030,28 10.302,83 0,00 0,00 0,00 11.333,11 964,78 2.025,14 0,00 2.989,92 8.343,19 4.002,29 324,98 28/02/2014
952 409200 FERNANDA MAIA SANTIAGO ANALISTA DO MP ATIVO PIRAPORA - COMARCA; PIRAPORA-PJ-03PJ 5.876,69 587,67 0,00 0,00 0,00 0,00 6.464,36 711,08 756,00 0,00 1.467,08 4.997,28 457,00 0,00 28/02/2014
953 556500 FERNANDA OTERO COSTA ANALISTA DO MP ATIVO BELO HORIZONTE - COMARCA; ASSESS TECNICO-JUR JUNTO AS PROC. DE JUST 4.404,59 0,00 0,00 0,00 0,00 0,00 4.404,59 484,50 279,06 0,00 763,56 3.641,03 457,00 0,00 28/02/2014
954 412900 FERNANDA PORTELA ROSA ANALISTA DO MP ATIVO BELO HORIZONTE - COMARCA; BH-08PJ JUIZADO ESPECIAL-SECRETARIA 7.014,37 701,44 0,00 0,00 0,00 0,00 7.715,81 1.037,90 1.483,18 0,00 2.521,08 5.194,73 1.251,05 1.792,43 28/02/2014
955 274301 FERNANDA QUEIROZ PARREIRA ANALISTA DO MP ATIVO PATOS DE MINAS - COMARCA; COORD REG PJ DEF EDU DIR CRI ADO AL PAR NOROE 6.068,01 0,00 0,00 0,00 0,00 0,00 6.068,01 667,48 659,00 0,00 1.326,48 4.741,53 457,00 0,00 28/02/2014
956 467900 FERNANDA QUEIROZ SIMOES GANNAM ANALISTA DO MP ATIVO SÃO LOURENÇO - COMARCA; SAO LOURENCO-PJ-02PJ 6.265,58 375,93 0,00 0,00 0,00 0,00 6.641,51 730,57 799,36 0,00 1.529,93 5.111,58 457,00 0,00 28/02/2014
957 255500 FERNANDA SIMOES LOPES MENDES ANALISTA DO MP ATIVO BELO HORIZONTE - COMARCA; BH-17PJ PATRIMONIO PUBLICO-SECRETARIA 9.977,95 1.995,59 0,00 0,00 0,00 0,00 11.973,54 1.317,09 2.005,53 0,00 3.322,62 8.650,92 927,00 0,00 28/02/2014
958 481700 FERNANDA VIANA FROES DA SILVA OFICIAL DO MP ATIVO GOVERNADOR VALADARES - COMARCA; GOVERNADOR VALADARES-PJ-09PJ 4.000,95 240,06 0,00 0,00 1.413,67 0,00 5.654,68 480,80 624,77 0,00 1.105,57 4.549,11 692,00 129,83 28/02/2014
959 123900 FERNANDO ANTONIO FARIA ABREU ASSESSOR/ANALISTA ATIVO BELO HORIZONTE - COMARCA; PROCURADORIA-GERAL ADJUNTA ADMINISTRATIVA 20.299,65 21.542,83 0,00 0,00 0,00 2.924,86 44.767,34 2.924,86 3.999,88 15.252,80 22.177,54 22.589,80 4.002,29 324,99 28/02/2014
960 416900 FERNANDO APARECIDO DA SILVA ANALISTA DO MP ATIVO BOM DESPACHO - COMARCA; BOM DESPACHO-PJ-01PJ 6.063,37 2.805,75 0,00 0,00 0,00 0,00 8.869,12 1.080,21 1.216,96 0,00 2.297,17 6.571,95 3.590,36 265,68 28/02/2014
961 395900 FERNANDO AUGUSTO ETO LAGES ANALISTA DO MP ATIVO BELO HORIZONTE - COMARCA; CENTRAL DE APOIO TECN-SETOR DE MEIO AMBIENTE 7.973,40 797,34 0,00 0,00 0,00 0,00 8.770,74 964,78 1.320,49 0,00 2.285,27 6.485,47 457,00 0,00 28/02/2014
962 380500 FERNANDO BONES COSTA OFICIAL DO MP ATIVO BELO HORIZONTE - COMARCA; EXTINTA - DIVISÃO DE MATERIAL PERMANENTE 3.814,70 381,47 0,00 0,00 0,00 0,00 4.196,17 461,58 237,32 0,00 698,90 3.497,27 457,00 0,00 28/02/2014
963 500100 FERNANDO CEZAR PINTO ASSESSOR/OFICIAL ATIVO BELO HORIZONTE - COMARCA; EXTINTA - DIVISÃO DE MATERIAL PERMANENTE 0,00 0,00 7.973,40 0,00 2.657,80 0,00 10.631,20 393,57 1.939,78 0,00 2.333,35 8.297,85 692,00 0,00 28/02/2014
964 346100 FERNANDO EUSTAQUIO CAMPOS UTSCH MOREIRA COORDENADOR/ANALISTA ATIVO BELO HORIZONTE - COMARCA; DIRETORIA DE REDES E BANCOS DE DADOS 8.501,02 2.910,67 0,00 0,00 0,00 0,00 11.411,69 1.028,62 1.880,93 0,00 2.909,55 8.502,14 692,00 0,00 28/02/2014
965 103500 FERNANDO LUIZ DA SILVA JUNIOR COORDENADOR/OFICIAL ATIVO BELO HORIZONTE - COMARCA; DIVISAO DE ATENDIMENTO E CONSULTA JURIDICA 12.356,19 6.936,47 0,00 0,00 0,00 0,00 19.292,66 1.902,85 3.956,05 0,00 5.858,90 13.433,76 4.002,29 324,98 28/02/2014
966 287300 FERNANDO MARCIO ALVES MARTINS OFICIAL DO MP ATIVO LEOPOLDINA - COMARCA; LEOPOLDINA-PJ-01PJ 4.848,98 969,80 0,00 0,00 0,00 0,00 5.818,78 640,07 449,73 0,00 1.089,80 4.728,98 4.002,29 324,98 28/02/2014
967 262200 FERNANDO MARCIO RESENDE PEREIRA COORDENADOR/OFICIAL ATIVO BELO HORIZONTE - COMARCA; BH-12PJ JUIZO CRIMINAL-SECRETARIA 0,00 1.812,72 9.063,59 0,00 3.625,44 0,00 14.501,75 727,58 2.961,75 0,00 3.689,33 10.812,42 457,00 0,00 28/02/2014
968 472900 FERNANDO RODRIGUES DE FREITAS ANALISTA DO MP ATIVO BELO HORIZONTE - COMARCA; BH-15PJ M AMB PAT HIST CULT-ASS TECNICA 6.265,58 375,93 0,00 0,00 2.213,84 0,00 8.855,35 851,07 1.567,28 0,00 2.418,35 6.437,00 457,00 1.095,47 28/02/2014
969 219600 FERNANDO SOARES MIRANDA COORDENADOR/ANALISTA ATIVO BELO HORIZONTE - COMARCA; PROCON-MG-GAB DO COORDENADOR DO PROCON-MG 11.885,64 14.703,26 0,00 0,00 0,00 2.484,10 29.073,00 2.484,10 6.038,97 1.265,40 9.788,47 19.284,53 457,00 0,00 28/02/2014
970 421400 FERNANDO TEODORO MACIEL ANALISTA DO MP ATIVO SANTA VITÓRIA - COMARCA; SANTA VITORIA-PJ-UNPJ 6.469,61 646,96 0,00 0,00 0,00 0,00 7.116,57 917,04 1.164,86 0,00 2.081,90 5.034,67 4.237,29 1.545,18 28/02/2014
971 446300 FERNANDO VITOR DE OLIVEIRA ANALISTA DO MP ATIVO MONTES CLAROS - COMARCA; COORD REG BACIA RIOS VERDE GRANDE E PARDO 6.793,15 407,59 0,00 0,00 0,00 0,00 7.200,74 792,08 936,23 0,00 1.728,31 5.472,43 457,00 0,00 28/02/2014
972 398400 FLAVIA ALVARES GUIMARAES OFICIAL DO MP ATIVO BELO HORIZONTE - COMARCA; CORREGEDORIA-GERAL 3.814,70 381,47 0,00 0,00 0,00 0,00 4.196,17 461,58 198,20 0,00 659,78 3.536,39 2.974,70 125,89 28/02/2014
973 398200 FLAVIA ALVES DE ASSUNCAO RODRIGUES ANALISTA DO MP ATIVO DIVINÓPOLIS - COMARCA; COORD REG DO MA DA BACIA DO ALTO SAO FRANC 7.014,37 701,44 0,00 0,00 0,00 0,00 7.715,81 848,74 1.062,29 0,00 1.911,03 5.804,78 457,00 0,00 28/02/2014
974 554400 FLAVIA BAO TRAVIZANI ANALISTA DO MP ATIVO SETE LAGOAS - COMARCA; SETE LAGOAS-PJ-11PJ 4.848,98 0,00 0,00 0,00 0,00 0,00 4.848,98 533,39 368,05 0,00 901,44 3.947,54 457,00 0,00 28/02/2014
975 318500 FLAVIA BEATRIZ NUNES CRUZ VIEIRA ANALISTA DO MP ATIVO BARBACENA - COMARCA; BARBACENA-PJ-SECRETARIA 9.358,72 935,87 0,00 0,00 3.431,53 0,00 13.726,12 1.132,40 2.587,70 0,00 3.720,10 10.006,02 692,00 0,00 28/02/2014
976 496500 FLAVIA CARAM BORLIDO ANALISTA DO MP ATIVO BELO HORIZONTE - COMARCA; EXTINTA - DIVISAO DE SERVICOS GERAIS 6.068,01 0,00 0,00 0,00 0,00 0,00 6.068,01 667,48 659,00 0,00 1.326,48 4.741,53 457,00 0,00 28/02/2014
977 534800 FLAVIA CONDE SOARES ANALISTA DO MP ATIVO RIBEIRÃO DAS NEVES - COMARCA; RIBEIRAO DAS NEVES-PJ-10PJ 4.848,98 0,00 0,00 0,00 0,00 0,00 4.848,98 533,39 368,05 0,00 901,44 3.947,54 457,00 0,00 28/02/2014
978 219500 FLAVIA CRISTINA ANCELMO OFICIAL DO MP ATIVO BELO HORIZONTE - COMARCA; BH-17PJ PATRIMONIO PUBLICO-SECRETARIA 6.068,01 1.213,60 0,00 0,00 0,00 0,00 7.281,61 800,98 956,02 0,00 1.757,00 5.524,61 457,00 0,00 28/02/2014
979 329600 FLAVIA CRISTINA DE MATOS XAVIER ANALISTA DO MP ATIVO UBERABA - COMARCA; UBERABA-PJ-15PJ 9.358,72 1.871,74 0,00 0,00 0,00 0,00 11.230,46 1.235,35 1.823,66 0,00 3.059,01 8.171,45 692,00 0,00 28/02/2014
980 207600 FLAVIA DE ANDRADE MANCINI ANALISTA DO MP ATIVO BELO HORIZONTE - COMARCA; ASSESSORIA JURIDICO-ADMINISTRATIVA 11.885,64 2.377,13 0,00 0,00 0,00 0,00 14.262,77 1.568,90 2.516,40 0,00 4.085,30 10.177,47 4.472,29 324,98 28/02/2014
981 402801 FLAVIA MARIA DE RESENDE NASCIMENTO ANALISTA DO MP ATIVO SÃO JOÃO DEL REI - COMARCA; SAO JOAO DEL REI-PJ-04PJ 6.068,01 0,00 0,00 0,00 0,00 0,00 6.068,01 793,89 867,68 0,00 1.661,57 4.406,44 692,00 1.149,21 28/02/2014
982 437500 FLAVIA MARIA TORRES MARCHETTI COORDENADOR/ANALISTA ATIVO BELO HORIZONTE - COMARCA; BH-13ª PJ JUÍXO DE TÓXICOS 0,00 543,82 9.063,59 0,00 0,00 0,00 9.607,41 792,08 1.598,07 0,00 2.390,15 7.217,26 457,00 0,00 28/02/2014
983 386000 FLAVIA NEVES BRIGIDO OFICIAL DO MP ATIVO BELO HORIZONTE - COMARCA; PROMOT ESTADUAL DE DEF PATRI CULT E TUR DE MG 3.814,70 381,47 0,00 0,00 0,00 0,00 4.196,17 461,58 237,32 0,00 698,90 3.497,27 4.002,29 265,90 28/02/2014
984 488600 FLAVIA PEREIRA COSTA ANALISTA DO MP ATIVO BELO HORIZONTE - COMARCA; SERVICO MEDICO-DEPTO PERIC MEDICA SAUDE OCUP 6.068,01 0,00 0,00 0,00 0,00 0,00 6.068,01 667,48 659,00 0,00 1.326,48 4.741,53 457,00 0,00 28/02/2014
985 365400 FLAVIA PEREIRA DA SILVA OFICIAL DO MP ATIVO BELO HORIZONTE - COMARCA; BH-15PJ M AMB 16PJ HAB URB-SECRETARIA 5.511,94 551,19 0,00 0,00 0,00 0,00 6.063,13 666,94 657,80 0,00 1.324,74 4.738,39 2.974,84 230,80 28/02/2014
986 515400 FLAVIA RODRIGUES DE OLIVEIRA E SILVA PAIVA ANALISTA DO MP ATIVO CARATINGA - COMARCA; CARATINGA-PJ-01PJ 6.068,01 0,00 0,00 0,00 2.022,67 0,00 8.090,68 667,48 1.017,55 0,00 1.685,03 6.405,65 457,00 0,00 28/02/2014
987 535800 FLAVIA SILVA VALADAO OFICIAL DO MP ATIVO TRÊS CORACOES - COMARCA; TRES CORACOES-PJ-04PJ 2.859,08 0,00 0,00 0,00 0,00 0,00 2.859,08 314,50 56,76 0,00 371,26 2.487,82 692,00 0,00 28/02/2014
988 515300 FLAVIA VIEIRA OLIVEIRA ANALISTA DO MP ATIVO BELO HORIZONTE - COMARCA; CAO-CRIMINAL-SECRETARIA 6.068,01 0,00 0,00 0,00 2.022,67 0,00 8.090,68 667,48 1.215,23 0,00 1.882,71 6.207,97 457,00 0,00 28/02/2014
989 377500 FLAVIANA GONCALVES DE OLIVEIRA ANALISTA DO MP ATIVO AÇUCENA - COMARCA; ACUCENA-PJ-UNPJ 7.973,40 797,34 0,00 0,00 0,00 0,00 8.770,74 964,78 1.320,49 0,00 2.285,27 6.485,47 457,00 0,00 28/02/2014
990 273100 FLAVIANE DOS SANTOS CASTRO OFICIAL DO MP ATIVO CAXAMBU - COMARCA; CAXAMBU-PJ-SECRETARIA 6.068,01 1.213,60 0,00 0,00 0,00 0,00 7.281,61 800,98 857,18 0,00 1.658,16 5.623,45 927,00 0,00 28/02/2014
991 310600 FLAVIANE NAVES ALCANTARA ASSESSOR/OFICIAL ATIVO BELO HORIZONTE - COMARCA; COMB CRIMES PRAT POR AG POL MUN-SECRETARIA 0,00 797,34 7.973,40 0,00 0,00 0,00 8.770,74 758,14 1.377,32 0,00 2.135,46 6.635,28 457,00 0,00 28/02/2014
992 455800 FLAVIO ANTONIO RIBEIRO OFICIAL DO MP ATIVO BELO HORIZONTE - COMARCA; GRUPO ESP PROM PROC JUST DEF PROB ADM PAT PUB 3.355,81 201,35 0,00 0,00 0,00 0,00 3.557,16 391,29 139,85 0,00 531,14 3.026,02 457,00 0,00 28/02/2014
993 458200 FLAVIO AUGUSTO BRAGA SOARES ANALISTA DO MP ATIVO BELO HORIZONTE - COMARCA; DIVISAO DE MANUTENCAO PREDIAL 6.265,58 375,93 0,00 0,00 0,00 0,00 6.641,51 730,57 799,36 0,00 1.529,93 5.111,58 457,00 0,00 28/02/2014
994 516500 FLAVIO AUGUSTO RODRIGUES CORREA ANALISTA DO MP ATIVO BELO HORIZONTE - COMARCA; COORD REG BACIAS RIO VELHAS E PARAOPEBA 5.511,94 0,00 0,00 0,00 0,00 0,00 5.511,94 606,31 522,90 0,00 1.129,21 4.382,73 4.002,29 324,98 28/02/2014
995 84300 FLAVIO DE FARIA BELTRAO OFICIAL DO MP ATIVO BELO HORIZONTE - COMARCA; DIRETORIA DE ADMINISTRACAO FINANCEIRA 18.218,36 12.752,85 0,00 0,00 0,00 0,00 30.971,21 2.924,86 5.632,26 4.381,53 12.938,65 18.032,56 457,00 0,00 28/02/2014
996 266600 FLAVIO GUIMARAES LANA ANALISTA DO MP ATIVO BELO HORIZONTE - COMARCA; CENTRAL DE APOIO TECN-SETOR DE MEIO AMBIENTE 8.777,78 1.755,56 0,00 0,00 0,00 0,00 10.533,34 1.158,67 1.751,88 0,00 2.910,55 7.622,79 457,00 0,00 28/02/2014
997 552600 FLAVIO HENRIQUE EVARISTO GOMES ANALISTA DO MP ATIVO BELO HORIZONTE - COMARCA; DIRETORIA DE SUPORTE E MANUTENCAO 4.848,98 0,00 0,00 0,00 0,00 0,00 4.848,98 574,54 452,21 0,00 1.026,75 3.822,23 457,00 374,13 28/02/2014
998 241500 FLAVIO HENRIQUE SILVA MARTINS LAGE OFICIAL DO MP ATIVO BELO HORIZONTE - COMARCA; CAO-DIREITOS HUMANOS E APOIO COMUNITARIO 6.265,58 1.879,67 0,00 0,00 0,00 0,00 8.145,25 895,98 1.167,40 0,00 2.063,38 6.081,87 457,00 0,00 28/02/2014
999 86700 FLAVIO LUCAS TOMAZ AGENTE DO MP ATIVO BELO HORIZONTE - COMARCA; BH-06PJ JUIZO CIVEL-SECRETARIA 5.169,86 2.584,93 0,00 0,00 0,00 0,00 7.754,79 853,03 679,71 0,00 1.532,74 6.222,05 4.002,29 324,98 28/02/2014
1000 407200 FLAVIO LUCIO MONTEIRO PENA ANALISTA DO MP ATIVO BELO HORIZONTE - COMARCA; DIRETORIA DE IMPRENSA 6.469,61 646,96 0,00 0,00 2.372,19 0,00 9.488,76 782,82 1.567,98 0,00 2.350,80 7.137,96 4.002,29 324,98 28/02/2014
1001 451700 FLAVIO MAGALHAES PEREIRA ANALISTA DO MP ATIVO BELO HORIZONTE - COMARCA; BH-12PJ JUIZO CRIMINAL-GAB 098PJ 6.265,58 375,93 0,00 0,00 0,00 0,00 6.641,51 730,57 799,36 0,00 1.529,93 5.111,58 692,00 0,00 28/02/2014
1002 481500 FLAVIO NEVES GUELBER DE MACEDO OFICIAL DO MP ATIVO SÃO JOÃO NEPOMUCENO - COMARCA; SAO JOAO NEPOMUCENO-PJ-02PJ 3.694,41 221,66 0,00 0,00 0,00 0,00 3.916,07 457,56 218,33 0,00 675,89 3.240,18 457,00 243,52 28/02/2014
1003 547500 FRANCELINO MOREIRA DA SILVA ANALISTA DO MP ATIVO GRAO MOGOL - COMARCA; GRAO MOGOL-PJ-UNPJ 4.404,59 0,00 0,00 0,00 1.468,20 0,00 5.872,79 484,50 655,63 0,00 1.140,13 4.732,66 457,00 0,00 28/02/2014
1004 278100 FRANCIANE MARY DE SOUZA DOMENICI DE BRITO E CASTRO ANALISTA DO MP ATIVO BELO HORIZONTE - COMARCA; BH-12PJ JUIZO CRIMINAL 10.302,83 2.060,57 0,00 0,00 0,00 0,00 12.363,40 1.359,97 2.150,37 0,00 3.510,34 8.853,06 457,00 0,00 28/02/2014
1005 192501 FRANCIELLE REIS DE OLIVEIRA ANALISTA DO MP ATIVO PASSOS - COMARCA; PASSOS-PJ-04PJ 9.663,38 966,34 0,00 0,00 0,00 0,00 10.629,72 1.169,27 1.627,21 0,00 2.796,48 7.833,24 692,00 0,00 28/02/2014
1006 523600 FRANCINE MOURA LIMIRIO OFICIAL DO MP ATIVO UBERABA - COMARCA; UBERABA-PJ-02PJ 3.250,03 0,00 0,00 0,00 0,00 0,00 3.250,03 357,50 98,85 0,00 456,35 2.793,68 457,00 0,00 28/02/2014
1007 467200 FRANCINI RENNO ANALISTA DO MP ATIVO SILVIANÓPOLIS - COMARCA; SILVIANOPOLIS-PJ-UNPJ 5.691,44 341,49 0,00 0,00 0,00 0,00 6.032,93 663,62 650,41 0,00 1.314,03 4.718,90 457,00 0,00 28/02/2014
1008 189300 FRANCIS BERNARDO DO NASCIMENTO OFICIAL DO MP ATIVO VARGINHA - COMARCA; VARGINHA-PJ-05PJ 8.501,02 2.550,31 0,00 0,00 0,00 0,00 11.051,33 1.215,65 1.878,66 0,00 3.094,31 7.957,02 4.237,29 324,98 28/02/2014
1009 207800 FRANCISCO CAMPOS PIRES DE MORAIS ANALISTA DO MP ATIVO BELO HORIZONTE - COMARCA; CENTRAL DE APOIO TECN-SETOR DE MEIO AMBIENTE 13.353,95 2.670,79 0,00 0,00 0,00 0,00 16.024,74 1.762,72 2.997,07 0,00 4.759,79 11.264,95 457,00 0,00 28/02/2014
1010 424200 FRANCISCO DE FREITAS JUNIOR ANALISTA DO MP ATIVO MONTE AZUL - COMARCA; MONTE AZUL-PJ-UNPJ 5.691,44 569,14 0,00 0,00 0,00 0,00 6.260,58 747,69 837,46 0,00 1.585,15 4.675,43 457,00 536,60 28/02/2014
1011 607700 FRANCISCO EDUARDO DE CASTRO ANALISTA DO MP ATIVO BELO HORIZONTE - COMARCA; DIR ANALISES TECNOLOGIA INTELIGENCIA 4.404,59 0,00 0,00 0,00 0,00 0,00 4.404,59 484,50 279,06 0,00 763,56 3.641,03 457,00 0,00 28/02/2014
1012 204600 FRANCISCO FERREIRA NOVAIS OFICIAL DO MP ATIVO IPATINGA - COMARCA; IPATINGA-PJ-08PJ 6.265,58 1.879,67 0,00 0,00 0,00 0,00 8.145,25 895,98 1.068,56 0,00 1.964,54 6.180,71 4.002,29 324,98 28/02/2014
1013 60500 FRANCISCO OLIMPIO TEIXEIRA AGENTE DO MP ATIVO BELO HORIZONTE - COMARCA; EXTINTA - DIVISAO DE TRANSPORTES 4.696,06 3.756,85 0,00 0,00 0,00 1.328,31 9.781,22 1.328,31 2.346,38 0,00 3.674,69 6.106,53 4.237,29 3.947,66 28/02/2014
1014 411600 FRANCISCO PAIVA BRITO ANALISTA DO MP ATIVO BELO HORIZONTE - COMARCA; TRIBUNAL DO JURI-07 PJ-02 TRIBUNAL 6.469,61 646,96 0,00 0,00 0,00 0,00 7.116,57 782,82 915,63 0,00 1.698,45 5.418,12 457,00 0,00 28/02/2014
1015 515800 FRANCISCO RAFAEL DA SILVA NETO ANALISTA DO MP ATIVO SACRAMENTO - COMARCA; SACRAMENTO-PJ-01PJ 5.006,87 0,00 0,00 0,00 0,00 0,00 5.006,87 550,76 278,36 0,00 829,12 4.177,75 457,00 0,00 28/02/2014
1016 515200 FRANCISLEI ELIAS GONCALVES OFICIAL DO MP ATIVO PASSOS - COMARCA; PASSOS-PJ-01PJ 3.250,03 650,01 0,00 0,00 0,00 0,00 3.900,04 429,00 77,80 0,00 506,80 3.393,24 1.162,00 0,00 28/02/2014
1017 443600 FRANCISLEI MARTINS DE SOUSA ANALISTA DO MP ATIVO TIMÓTEO - COMARCA; TIMOTEO-PJ-01PJ 6.793,15 407,59 0,00 0,00 2.400,25 0,00 9.600,99 792,08 1.596,30 0,00 2.388,38 7.212,61 457,00 0,00 28/02/2014
1018 424500 FREDERICO AUGUSTO COBRA MULLER ANALISTA DO MP ATIVO POUSO ALEGRE - COMARCA; POUSO ALEGRE-PJ-02PJ 7.014,37 701,44 0,00 0,00 0,00 0,00 7.715,81 928,20 1.203,83 0,00 2.132,03 5.583,78 457,00 803,47 28/02/2014
1019 473100 FREDERICO AUGUSTO LIMA FELICIO ANALISTA DO MP ATIVO CONCEIÇÃO DO MATO DENTRO - COMARCA; CONCEICAO DO MATO DENTRO-PJ-UNPJ 6.265,58 375,93 0,00 0,00 2.213,84 0,00 8.855,35 730,57 1.408,16 0,00 2.138,73 6.716,62 457,00 0,00 28/02/2014
1020 318100 FREDERICO BIANCHINI JOVIANO DOS SANTOS ASSESSOR/OFICIAL ATIVO BELO HORIZONTE - COMARCA; PROMOT ESTADUAL DE DEF PATRI CULT E TUR DE MG 0,00 797,34 7.973,40 0,00 0,00 0,00 8.770,74 568,22 1.429,54 0,00 1.997,76 6.772,98 4.002,29 324,98 28/02/2014
1021 124200 FREDERICO DE SOUZA ROCHA OFICIAL DO MP ATIVO ESPINOSA - COMARCA; ESPINOSA-PJ-SECRETARIA 9.358,72 6.551,11 0,00 0,00 0,00 0,00 15.909,83 1.900,09 3.253,29 0,00 5.153,38 10.756,45 4.647,41 1.688,68 28/02/2014
1022 177100 FREDERICO FERNANDES DE ANDRADE ASSESSOR/OFICIAL ATIVO BELO HORIZONTE - COMARCA; DIRETORIA DE SUPORTE E MANUTENCAO 0,00 1.594,68 7.973,40 0,00 0,00 0,00 9.568,08 896,70 1.558,48 0,00 2.455,18 7.112,90 4.002,29 324,98 28/02/2014
1023 456200 FREDERICO FERNANDES PASSOS ANALISTA DO MP ATIVO BELO HORIZONTE - COMARCA; DIRETORIA DE REDES E BANCOS DE DADOS 6.265,58 375,93 0,00 0,00 0,00 0,00 6.641,51 743,09 777,81 0,00 1.520,90 5.120,61 457,00 113,86 28/02/2014
1024 400900 FREDERICO LUCIANO BORGES REIS ANALISTA DO MP ATIVO BELO HORIZONTE - COMARCA; DIRETORIA DE SISTEMAS DE INFORMACAO 7.014,37 701,44 0,00 0,00 0,00 0,00 7.715,81 906,94 1.191,80 0,00 2.098,74 5.617,07 4.002,29 854,10 28/02/2014
1025 466200 FREDERICO LUIS FERNANDES ANALISTA DO MP ATIVO BELO HORIZONTE - COMARCA; BH-12PJ JUIZO CRIMINAL-GAB 106PJ 6.265,58 375,93 0,00 0,00 2.213,84 0,00 8.855,35 730,57 1.358,74 0,00 2.089,31 6.766,04 457,00 0,00 28/02/2014
1026 419700 FREDERICO MECKLER SANTOS ANALISTA DO MP ATIVO CLÁUDIO - COMARCA; CLAUDIO-PJ-UNPJ 7.014,37 701,44 0,00 0,00 0,00 0,00 7.715,81 848,74 1.062,29 0,00 1.911,03 5.804,78 457,00 0,00 28/02/2014
1027 257100 FULVIA HERONVILLE DA SILVA OFICIAL DO MP ATIVO BELO HORIZONTE - COMARCA; DIVISAO DE MEMORIA INSTITUCIONAL 6.265,58 1.253,12 0,00 0,00 0,00 0,00 7.518,70 827,06 964,63 0,00 1.791,69 5.727,01 692,00 0,00 28/02/2014
1028 397200 GABRIEL DEIVID MARTINS LEITE OFICIAL DO MP ATIVO MONTE CARMELO - COMARCA; MONTE CARMELO-PJ-02PJ 5.006,87 500,69 0,00 0,00 0,00 0,00 5.507,56 605,83 521,83 0,00 1.127,66 4.379,90 646,90 0,00 28/02/2014
1029 386800 GABRIELA SIMOES CHAVES ANALISTA DO MP ATIVO BELO HORIZONTE - COMARCA; EXTINTA - DIVISÃO DE COMPRAS 7.973,40 797,34 0,00 0,00 0,00 0,00 8.770,74 964,78 1.320,49 0,00 2.285,27 6.485,47 457,00 0,00 28/02/2014
1030 449700 GABRIELE COSTA FERREIRA OFICIAL DO MP ATIVO BELO HORIZONTE - COMARCA; DIRETORIA DE ORCAMENTO-DIOR/SPC 3.355,81 201,35 0,00 0,00 0,00 0,00 3.557,16 391,29 139,85 0,00 531,14 3.026,02 457,00 0,00 28/02/2014
1031 357600 GABRIELLA CRUZ EMRICH OFICIAL DO MP ATIVO ARCOS - COMARCA; ARCOS-PJ-SECRETARIA 4.265,74 426,57 0,00 0,00 1.564,10 0,00 6.256,41 516,15 752,42 0,00 1.268,57 4.987,84 457,00 0,00 28/02/2014
1032 470600 GABRIELLA SPIRANDELLI COIMBRA ANALISTA DO MP ATIVO UBERLÂNDIA - COMARCA; UBERLANDIA-PJ-19PJ 6.265,58 375,93 0,00 0,00 0,00 0,00 6.641,51 730,57 799,36 0,00 1.529,93 5.111,58 457,00 0,00 28/02/2014
1033 86000 GASPAR GOMES DE SOUSA AGENTE DO MP ATIVO BELO HORIZONTE - COMARCA; BH-15PJ M AMB PAT HIST CULT-RECEPCAO 18.218,36 14.574,69 0,00 0,00 0,00 0,00 32.793,05 2.924,86 5.681,68 8.025,21 16.631,75 16.161,30 4.002,29 2.146,82 28/02/2014
1034 183100 GECIELLE FERNANDA SILVA OFICIAL DO MP ATIVO PITANGUI - COMARCA; PITANGUI-PJ-02PJ 8.501,02 1.700,20 0,00 0,00 0,00 0,00 10.201,22 1.122,13 1.670,60 0,00 2.792,73 7.408,49 457,00 0,00 28/02/2014
1035 387300 GEOFFREY GIULLIANO OLIVEIRA ALMEIDA ANALISTA DO MP ATIVO JANAÚBA - COMARCA; JANAUBA-PJ-03PJ 6.469,61 646,96 0,00 0,00 0,00 0,00 7.116,57 782,82 915,63 0,00 1.698,45 5.418,12 457,00 0,00 28/02/2014
1036 277700 GEORGIA CRISTINA BASILIO MEDRADO ANALISTA DO MP ATIVO BELO HORIZONTE - COMARCA; SERVICO MEDICO-DEPTO PERIC MEDICA SAUDE OCUP 9.663,38 1.932,68 0,00 0,00 0,00 0,00 11.596,06 1.275,57 1.962,56 0,00 3.238,13 8.357,93 4.002,29 324,98 28/02/2014
1037 605200 GEOVANI PREZOTI TONUSSI ANALISTA DO MP ATIVO SANTOS DUMONT - COMARCA; SANTOS DUMONT-PJ-03PJ 4.404,59 0,00 0,00 0,00 0,00 0,00 4.404,59 484,50 279,06 0,00 763,56 3.641,03 457,00 0,00 28/02/2014
1038 512100 GEOVANI VICENTIN ANALISTA DO MP ATIVO SANTA RITA DE CALDAS - COMARCA; SANTA RITA DE CALDAS-PJ-UNPJ 5.511,94 0,00 0,00 0,00 0,00 0,00 5.511,94 606,31 522,90 0,00 1.129,21 4.382,73 457,00 0,00 28/02/2014
1039 116300 GEOVANNA DAS GRACAS ROSA REQUEIJO AGENTE DO MP ATIVO SANTA LUZIA - COMARCA; SANTA LUZIA-PJ-06PJ 13.353,95 5.341,59 0,00 0,00 0,00 0,00 18.695,54 2.056,51 3.650,74 0,00 5.707,25 12.988,29 692,00 0,00 28/02/2014
1040 207200 GERALDO AFONSO DE MOURA CALDEIRA ANALISTA DO MP ATIVO BELO HORIZONTE - COMARCA; BH-17PJ PATRIMONIO PUBLICO 13.353,95 2.670,79 0,00 0,00 0,00 1.762,72 17.787,46 1.762,72 3.580,65 0,00 5.343,37 12.444,09 457,00 0,00 28/02/2014
1041 274901 GERALDO ANDRE DE OLIVEIRA ANALISTA DO MP ATIVO CONTAGEM - COMARCA; CONTAGEM-PJ-18PJ 5.511,94 1.102,39 0,00 0,00 0,00 0,00 6.614,33 727,58 792,71 0,00 1.520,29 5.094,04 457,00 0,00 28/02/2014
1042 270900 GERALDO BATISTA BRITES OFICIAL DO MP ATIVO BOM DESPACHO - COMARCA; BOM DESPACHO-PJ-01PJ 6.265,58 1.253,12 0,00 0,00 0,00 0,00 7.518,70 827,06 865,79 0,00 1.692,85 5.825,85 692,00 0,00 28/02/2014
1043 204200 GERALDO CELIO ARAUJO SOARES OFICIAL DO MP ATIVO GOVERNADOR VALADARES - COMARCA; GOVERNADOR VALADARES-PJ-12PJ 8.501,02 2.550,31 0,00 0,00 0,00 0,00 11.051,33 1.215,65 1.829,24 0,00 3.044,89 8.006,44 692,00 0,00 28/02/2014
1044 66900 GERALDO DIAS CYRINO OFICIAL DO MP ATIVO BELO HORIZONTE - COMARCA; DIRET DE INFORMACAO E CONHECIMENTO-DINC/CEAF 12.356,19 8.649,34 0,00 0,00 0,00 0,00 21.005,53 2.310,61 4.265,53 0,00 6.576,14 14.429,39 4.002,29 324,98 28/02/2014
1045 366500 GERALDO LEVY ROMUALDO DA SILVA OFICIAL DO MP ATIVO RIO POMBA - COMARCA; RIO POMBA-PJ-SECRETARIA 4.265,74 426,57 0,00 0,00 0,00 0,00 4.692,31 516,15 296,24 0,00 812,39 3.879,92 457,00 0,00 28/02/2014
1046 124300 GERALDO MARCIO GOMES DA SILVA COORDENADOR/ANALISTA ATIVO BELO HORIZONTE - COMARCA; EXTINTA - DIRETORIA SERVIÇOS GERAIS E TRANS 17.524,60 16.904,48 0,00 0,00 0,00 2.924,86 37.353,94 2.924,86 6.337,75 7.839,40 17.102,01 20.251,93 4.002,29 324,99 28/02/2014
1047 124400 GERALDO MAURICIO DE FARIA ROCHA OFICIAL DO MP ATIVO BELO HORIZONTE - COMARCA; BH-13ª PJ JUÍXO DE TÓXICOS 7.478,49 5.234,95 0,00 0,00 0,00 0,00 12.713,44 1.398,48 2.186,62 0,00 3.585,10 9.128,34 457,00 0,00 28/02/2014
1048 472800 GERALDO MONTEIRO CAMARGO JUNIOR ANALISTA DO MP ATIVO ESPINOSA - COMARCA; ESPINOSA-PJ-UNPJ 5.169,86 1.033,97 0,00 0,00 0,00 0,00 6.203,83 682,42 692,24 0,00 1.374,66 4.829,17 457,00 0,00 28/02/2014
1049 124500 GERALDO ROGERIO GOMES SILVEIRA COORDENADOR/OFICIAL ATIVO BELO HORIZONTE - COMARCA; DIRETORIA DE PESSOAL ADMINISTRATIVO - DPAD 9.358,72 9.229,85 0,00 0,00 0,00 0,00 18.588,57 1.750,08 3.755,01 0,00 5.505,09 13.083,48 4.002,29 324,98 28/02/2014
1050 445900 GERALDO TAVARES FERREIRA ANALISTA DO MP ATIVO FORMIGA - COMARCA; FORMIGA-PJ-03PJ 6.793,15 407,59 0,00 0,00 0,00 0,00 7.200,74 792,08 936,23 0,00 1.728,31 5.472,43 457,00 0,00 28/02/2014
1051 521000 GERALDO VINICIUS IRENO ANALISTA DO MP ATIVO CURVELO - COMARCA; CURVELO-PJ-01PJ 5.006,87 0,00 0,00 0,00 0,00 0,00 5.006,87 550,76 399,66 0,00 950,42 4.056,45 2.459,75 150,21 28/02/2014
1052 325400 GERSONI FERREIRA LUCENA OFICIAL DO MP ATIVO POÇOS DE CALDAS - COMARCA; POCOS DE CALDAS-PJ-02PJ 5.006,87 1.609,01 0,00 0,00 0,00 0,00 6.615,88 605,83 678,35 0,00 1.284,18 5.331,70 4.237,29 324,98 28/02/2014
1053 445600 GERUSA E SILVA CASTRO LOPEZ ANALISTA DO MP ATIVO BELO HORIZONTE - COMARCA; ASSESSORIA JURIDICO-ADMINISTRATIVA 6.793,15 407,59 0,00 0,00 0,00 0,00 7.200,74 792,08 936,23 0,00 1.728,31 5.472,43 457,00 0,00 28/02/2014
1054 468600 GILDA MARIA SANTOS DE FILIPPO ANDRADE OFICIAL DO MP ATIVO UBÁ - COMARCA; COORD REG BACIA DO RIO PARAIBA DO SUL 4.000,95 240,06 0,00 0,00 0,00 0,00 4.241,01 466,51 246,30 0,00 712,81 3.528,20 457,00 0,00 28/02/2014
1055 508300 GILMAR ALVES FERREIRA OFICIAL DO MP ATIVO BELO HORIZONTE - COMARCA; BH-13ª PJ JUÍXO DE TÓXICOS 3.250,03 0,00 0,00 0,00 0,00 0,00 3.250,03 357,50 98,85 0,00 456,35 2.793,68 457,00 0,00 28/02/2014
1056 455400 GILMAR DIAS NASCIMENTO OFICIAL DO MP ATIVO SÃO FRANCISCO - COMARCA; SAO FRANCISCO-PJ-01PJ 3.355,81 201,35 0,00 0,00 0,00 0,00 3.557,16 458,39 194,33 0,00 652,72 2.904,44 457,00 610,00 28/02/2014
1057 213000 GILMAR JOSE DA SILVA OFICIAL DO MP ATIVO DIVINÓPOLIS - COMARCA; DIVINOPOLIS-PJ-SECRETARIA 8.501,02 1.700,20 0,00 0,00 0,00 0,00 10.201,22 1.122,13 1.621,18 0,00 2.743,31 7.457,91 4.237,29 324,98 28/02/2014
1058 496900 GILSON NOGUEIRA GUIMARAES ANALISTA DO MP ATIVO MANHUMIRIM - COMARCA; MANHUMIRIM-PJ-01PJ 6.068,01 0,00 0,00 0,00 0,00 0,00 6.068,01 667,48 609,58 0,00 1.277,06 4.790,95 927,00 0,00 28/02/2014
1059 552000 GILVANIA MACEDO DE SA OFICIAL DO MP ATIVO BONFINÓPOLIS DE MINAS - COMARCA; BONFINOPOLIS DE MINAS-PJ-UNPJ 2.859,08 571,82 0,00 0,00 0,00 0,00 3.430,90 377,40 123,00 0,00 500,40 2.930,50 457,00 0,00 28/02/2014
1060 476600 GIMENNI JULIANA VILELA MACHADO MOREIRA OFICIAL DO MP ATIVO CONTAGEM - COMARCA; CONTAGEM-PJ-12PJ 3.694,41 221,66 0,00 0,00 0,00 0,00 3.916,07 430,77 133,85 0,00 564,62 3.351,45 692,00 0,00 28/02/2014
1061 391700 GIORDANI LOPES TAVARES ANALISTA DO MP ATIVO BELO HORIZONTE - COMARCA; SUPERINTENDÊNCIA DE ENGENHARIA E ARQUITETURA 7.973,40 797,34 0,00 0,00 0,00 0,00 8.770,74 964,78 1.320,49 0,00 2.285,27 6.485,47 457,00 0,00 28/02/2014
1062 251300 GIOVANE SOUZA PEREIRA OFICIAL DO MP ATIVO PARAGUAÇU - COMARCA; PARAGUACU-PJ-SECRETARIA 5.006,87 1.001,37 0,00 0,00 0,00 0,00 6.008,24 660,91 545,53 0,00 1.206,44 4.801,80 692,00 0,00 28/02/2014
1063 438800 GIOVANNA BRANDAO DE ARAUJO ANALISTA DO MP ATIVO ALMENARA - COMARCA; ALMENARA-PJ-01PJ 6.793,15 407,59 0,00 0,00 0,00 0,00 7.200,74 792,08 936,23 0,00 1.728,31 5.472,43 457,00 0,00 28/02/2014
1064 243400 GIOVANNA FRANCA BISTENE ASSESSOR/OFICIAL ATIVO BELO HORIZONTE - COMARCA; ASSESS EXECUTIVA DO CONSELHO SUPERIOR DO MP 0,00 1.755,56 8.777,78 0,00 0,00 0,00 10.533,34 868,42 1.732,86 0,00 2.601,28 7.932,06 927,00 0,00 28/02/2014
1065 124600 GIOVANNI ANANIAS CAMILO DO VALLE ANALISTA DO MP ATIVO OLIVEIRA - COMARCA; OLIVEIRA-PJ-01PJ 14.432,31 10.102,61 0,00 0,00 8.178,31 0,00 32.713,23 2.801,63 7.656,51 0,00 10.458,14 22.255,09 457,00 934,43 28/02/2014
1066 366700 GIOVANNI DE SOUZA ANDRADE OFICIAL DO MP ATIVO PASSOS - COMARCA; PASSOS-PJ-01PJ 4.265,74 1.534,89 0,00 0,00 0,00 0,00 5.800,63 516,15 478,82 0,00 994,97 4.805,66 457,00 0,00 28/02/2014
1067 124700 GIOVANNI REIS CONDE OFICIAL DO MP ATIVO MERCÊS - COMARCA; MERCES-PJ-SECRETARIA 5.876,69 4.113,69 0,00 0,00 0,00 0,00 9.990,38 1.098,94 1.319,01 0,00 2.417,95 7.572,43 457,00 0,00 28/02/2014
1068 219000 GIRLEI DE FATIMA SOUSA ASSESSOR ATIVO BELO HORIZONTE - COMARCA; OUVIDORIA DO MPMG 0,00 1.755,56 8.777,78 0,00 3.511,11 0,00 14.044,45 482,93 2.979,52 0,00 3.462,45 10.582,00 457,00 0,00 28/02/2014
1069 444600 GISELE ADRIANE FONSECA ANALISTA DO MP ATIVO BETIM - COMARCA; BETIM-PJ-03PJ 6.793,15 407,59 0,00 0,00 2.400,25 0,00 9.600,99 792,08 1.596,30 0,00 2.388,38 7.212,61 457,00 0,00 28/02/2014
1070 536600 GISELE APARECIDA VAZ DO CARMO ANALISTA DO MP ATIVO OURO PRETO - COMARCA; OURO PRETO-PJ-02PJ 4.404,59 0,00 0,00 0,00 0,00 0,00 4.404,59 484,50 279,06 0,00 763,56 3.641,03 457,00 0,00 28/02/2014
1071 445100 GISELE DE CAMPOS VERSIANI COORDENADOR/OFICIAL ATIVO BELO HORIZONTE - COMARCA; DIRETORIA DE SERVICO CRIMINAL 0,00 618,17 10.302,83 0,00 0,00 0,00 10.921,00 466,51 2.048,83 0,00 2.515,34 8.405,66 3.464,31 275,67 28/02/2014
1072 542000 GISELE GOMES ROCHA OFICIAL DO MP ATIVO ITUIUTABA - COMARCA; ITUIUTABA-PJ-04PJ 3.147,52 0,00 0,00 0,00 0,00 0,00 3.147,52 346,23 85,16 0,00 431,39 2.716,13 457,00 0,00 28/02/2014
1073 602900 GISELE MARIANA PAGANO DO AMARAL OFICIAL DO MP ATIVO BETIM - COMARCA; BETIM-PJ-02PJ 2.859,08 0,00 0,00 0,00 0,00 0,00 2.859,08 314,50 56,76 0,00 371,26 2.487,82 457,00 0,00 28/02/2014
1074 423000 GISELE MEGALE SANTINI ANALISTA DO MP ATIVO BELO HORIZONTE - COMARCA; BH-09PJ AUDITORIA MILITAR-SECRETARIA 7.014,37 701,44 0,00 0,00 0,00 0,00 7.715,81 904,06 1.153,62 0,00 2.057,68 5.658,13 692,00 502,90 28/02/2014
1075 425300 GISELE MENEZES RIBEIRO DE OLIVEIRA ANALISTA DO MP ATIVO SANTA LUZIA - COMARCA; SANTA LUZIA-PJ-01PJ 7.014,37 701,44 0,00 0,00 2.571,94 0,00 10.287,75 898,71 1.805,52 0,00 2.704,23 7.583,52 457,00 454,24 28/02/2014
1076 478200 GISELLE BRESCIA SOARES DE SOUZA CUNHA ANALISTA DO MP ATIVO ITAÚNA - COMARCA; ITAUNA-PJ-04PJ 6.265,58 375,93 0,00 0,00 0,00 0,00 6.641,51 730,57 749,94 0,00 1.480,51 5.161,00 692,00 0,00 28/02/2014
1077 289300 GISELLE CASTRO MACHADO ANALISTA DO MP ATIVO BELO HORIZONTE - COMARCA; EXTINTA - SECRETARIA ADMINISTRATIVA 6.469,61 1.293,92 0,00 0,00 0,00 0,00 7.763,53 914,88 1.189,76 0,00 2.104,64 5.658,89 457,00 628,40 28/02/2014
1078 345400 GISELLE CORREIA BORGES DIRETOR/ANALISTA ATIVO BELO HORIZONTE - COMARCA; SUPERINTENDENCIA DE COMUNICACAO INTEGRADA 0,00 1.335,40 13.353,95 0,00 0,00 0,00 14.689,35 1.028,62 2.930,55 0,00 3.959,17 10.730,18 4.002,29 324,98 28/02/2014
1079 399100 GISELLE DE VIVEIROS LEITAO OFICIAL DO MP ATIVO MATIAS BARBOSA - COMARCA; MATIAS BARBOSA-PJ-SECRETARIA 3.814,70 381,47 0,00 0,00 0,00 0,00 4.196,17 461,58 237,32 0,00 698,90 3.497,27 457,00 0,00 28/02/2014
1080 357401 GISELLE GUIMARAES DE OLIVEIRA REZENDE ANALISTA DO MP ATIVO BELO HORIZONTE - COMARCA; COMB CRIMES PRAT POR AG POL MUN-ASSESSORIA 7.973,40 797,34 0,00 0,00 0,00 0,00 8.770,74 964,78 1.320,49 0,00 2.285,27 6.485,47 4.002,29 324,98 28/02/2014
1081 492200 GISELLE MUNIZ DE AGUIAR ANALISTA DO MP ATIVO BRASÍLIA DE MINAS - COMARCA; BRASILIA DE MINAS-PJ-02PJ 6.068,01 0,00 0,00 0,00 0,00 0,00 6.068,01 667,48 659,00 0,00 1.326,48 4.741,53 457,00 0,00 28/02/2014
1082 520300 GISELLE NORMANDIA GONCALVES ANALISTA DO MP ATIVO SANTO ANTÔNIO DO MONTE - COMARCA; SANTO ANTONIO DO MONTE-PJ-UNPJ 6.068,01 0,00 0,00 0,00 0,00 0,00 6.068,01 789,81 914,12 0,00 1.703,93 4.364,08 457,00 1.297